<?xml version="1.0" encoding="UTF-8" standalone="no" ?>
<gpx xmlns="http://www.topografix.com/GPX/1/1" xmlns:gpxtpx="http://www.garmin.com/xmlschemas/TrackPointExtension/v1" creator="OruxMaps v.7.4.22" version="1.1" xmlns:xsi="http://www.w3.org/2001/XMLSchema-instance" xsi:schemaLocation="http://www.topografix.com/GPX/1/1 http://www.topografix.com/GPX/1/1/gpx.xsd">
<metadata>
<name><![CDATA[2021-06-26 10:20]]></name>
<link href="https://www.oruxmaps.com">
<text>OruxMaps</text>
</link>
<time>2021-06-26T08:20:43Z</time><bounds maxlat="47.3366100" maxlon="4.1078780" minlat="47.2534788" minlon="3.9802589"/>
</metadata>
<wpt lat="47.3289420" lon="4.0952193">
<ele>526.68</ele>
<time>2021-06-26T08:20:44Z</time>
<name><![CDATA[0000144]]></name>
<sym>Waypoint</sym>
<type>Point de départ</type>
<extensions>
<om:oruxmapsextensions xmlns:om="http://www.oruxmaps.com/oruxmapsextensions/1/0">
<om:ext type="ICON" subtype="0">38</om:ext>
</om:oruxmapsextensions>
</extensions>
</wpt>
<wpt lat="47.3288044" lon="4.0945327">
<ele>526.39</ele>
<time>2021-06-26T12:56:42Z</time>
<name><![CDATA[0000145]]></name>
<desc><![CDATA[<p><br /><h3>Nom: Segment: 1</h3><br />Heure de départ: 10:20 26 juin 2021<br/>Heure d'arrivée: 14:56 26 juin 2021<br/>Distance: 43,9km (04:35)<br/>Temps déplacement: 03:16<br/>Vitesse moyenne: 9,54 km/h<br/>Vitesse moyenne mouv.: 13,42 km/h<br/>Vitesse Max.: 43,06 km/h<br/>Altitude minimale: 420 m<br/>Altitude maximale: 646 m<br/>Vitesse de montée: 660,6 m/h<br/>Vitesse de descente: -499,1 m/h<br/>Gain d'altitude: 1273 m<br/>Perte d'altitude: -1274 m<br/>Temps de montée: 01:55<br/>Temps de descente: 02:33<br/></p>]]></desc>
<sym>Waypoint</sym>
<type>Point d'arrivée</type>
<extensions>
<om:oruxmapsextensions xmlns:om="http://www.oruxmaps.com/oruxmapsextensions/1/0">
<om:ext type="ICON" subtype="0">15</om:ext>
</om:oruxmapsextensions>
</extensions>
</wpt>
<trk>
<name><![CDATA[2021-06-26 10:20]]></name>
<desc><![CDATA[<p>Heure de départ: 10:20 26 juin 2021<br/>Heure d'arrivée: 14:56 26 juin 2021<br/>Distance: 43,9 km (04:35)<br/>Temps déplacement: 03:16<br/>Vitesse moyenne: 9,54 km/h<br/>Vitesse moyenne mouv.: 13,42 km/h<br/>Vitesse Max.: 43,06 km/h<br/>Altitude minimale: 420 m<br/>Altitude maximale: 646 m<br/>Vitesse de montée: 507,9 m/h<br/>Vitesse de descente: -409,2 m/h<br/>Gain d'altitude: 1021 m<br/>Perte d'altitude: -1021 m<br/>Temps de montée: 02:00<br/>Temps de descente: 02:29<br/></p><hr align="center" width="480" style="height: 2px; width: 517px"/>]]></desc>
<type>Indéfini</type>
<extensions>
<om:oruxmapsextensions xmlns:om="http://www.oruxmaps.com/oruxmapsextensions/1/0">
<om:ext type="TYPE" subtype="0">0</om:ext>
<om:ext type="DIFFICULTY">0</om:ext>
</om:oruxmapsextensions>
</extensions>
<trkseg>
<trkpt lat="47.3289420" lon="4.0952193">
<ele>526.68</ele>
<time>2021-06-26T08:20:44Z</time>
</trkpt>
<trkpt lat="47.3291239" lon="4.0953267">
<ele>525.08</ele>
<time>2021-06-26T08:20:50Z</time>
</trkpt>
<trkpt lat="47.3293245" lon="4.0953770">
<ele>527.23</ele>
<time>2021-06-26T08:20:55Z</time>
</trkpt>
<trkpt lat="47.3294461" lon="4.0956012">
<ele>525.88</ele>
<time>2021-06-26T08:21:01Z</time>
</trkpt>
<trkpt lat="47.3295564" lon="4.0958176">
<ele>523.75</ele>
<time>2021-06-26T08:21:09Z</time>
</trkpt>
<trkpt lat="47.3296261" lon="4.0960914">
<ele>524.00</ele>
<time>2021-06-26T08:21:15Z</time>
</trkpt>
<trkpt lat="47.3296782" lon="4.0963515">
<ele>523.88</ele>
<time>2021-06-26T08:21:20Z</time>
</trkpt>
<trkpt lat="47.3298472" lon="4.0964642">
<ele>523.14</ele>
<time>2021-06-26T08:21:26Z</time>
</trkpt>
<trkpt lat="47.3300307" lon="4.0964925">
<ele>524.36</ele>
<time>2021-06-26T08:21:31Z</time>
</trkpt>
<trkpt lat="47.3302233" lon="4.0965042">
<ele>526.44</ele>
<time>2021-06-26T08:21:37Z</time>
</trkpt>
<trkpt lat="47.3303818" lon="4.0963033">
<ele>525.01</ele>
<time>2021-06-26T08:21:43Z</time>
</trkpt>
<trkpt lat="47.3305831" lon="4.0962587">
<ele>520.38</ele>
<time>2021-06-26T08:21:49Z</time>
</trkpt>
<trkpt lat="47.3307766" lon="4.0962145">
<ele>525.02</ele>
<time>2021-06-26T08:21:56Z</time>
</trkpt>
<trkpt lat="47.3308596" lon="4.0959518">
<ele>525.69</ele>
<time>2021-06-26T08:22:18Z</time>
</trkpt>
<trkpt lat="47.3309649" lon="4.0957145">
<ele>525.96</ele>
<time>2021-06-26T08:22:26Z</time>
</trkpt>
<trkpt lat="47.3311258" lon="4.0955439">
<ele>526.62</ele>
<time>2021-06-26T08:22:31Z</time>
</trkpt>
<trkpt lat="47.3312741" lon="4.0953754">
<ele>527.03</ele>
<time>2021-06-26T08:22:39Z</time>
</trkpt>
<trkpt lat="47.3314198" lon="4.0951836">
<ele>527.13</ele>
<time>2021-06-26T08:22:47Z</time>
</trkpt>
<trkpt lat="47.3315392" lon="4.0949565">
<ele>527.11</ele>
<time>2021-06-26T08:22:54Z</time>
</trkpt>
<trkpt lat="47.3317276" lon="4.0950151">
<ele>530.69</ele>
<time>2021-06-26T08:23:02Z</time>
</trkpt>
<trkpt lat="47.3319140" lon="4.0950194">
<ele>530.60</ele>
<time>2021-06-26T08:23:08Z</time>
</trkpt>
<trkpt lat="47.3320584" lon="4.0951893">
<ele>530.85</ele>
<time>2021-06-26T08:23:15Z</time>
</trkpt>
<trkpt lat="47.3322303" lon="4.0953195">
<ele>531.62</ele>
<time>2021-06-26T08:23:23Z</time>
</trkpt>
<trkpt lat="47.3323470" lon="4.0950696">
<ele>531.96</ele>
<time>2021-06-26T08:23:40Z</time>
</trkpt>
<trkpt lat="47.3324508" lon="4.0948165">
<ele>529.93</ele>
<time>2021-06-26T08:23:45Z</time>
</trkpt>
<trkpt lat="47.3325897" lon="4.0946166">
<ele>529.65</ele>
<time>2021-06-26T08:23:49Z</time>
</trkpt>
<trkpt lat="47.3327528" lon="4.0945040">
<ele>531.19</ele>
<time>2021-06-26T08:23:53Z</time>
</trkpt>
<trkpt lat="47.3329450" lon="4.0944309">
<ele>530.75</ele>
<time>2021-06-26T08:23:57Z</time>
</trkpt>
<trkpt lat="47.3331349" lon="4.0943541">
<ele>529.72</ele>
<time>2021-06-26T08:24:02Z</time>
</trkpt>
<trkpt lat="47.3333179" lon="4.0942851">
<ele>533.20</ele>
<time>2021-06-26T08:24:12Z</time>
</trkpt>
<trkpt lat="47.3332683" lon="4.0940243">
<ele>534.14</ele>
<time>2021-06-26T08:24:24Z</time>
</trkpt>
<trkpt lat="47.3334023" lon="4.0938468">
<ele>533.58</ele>
<time>2021-06-26T08:24:28Z</time>
</trkpt>
<trkpt lat="47.3335187" lon="4.0936347">
<ele>532.53</ele>
<time>2021-06-26T08:24:32Z</time>
</trkpt>
<trkpt lat="47.3336759" lon="4.0934071">
<ele>535.81</ele>
<time>2021-06-26T08:24:37Z</time>
</trkpt>
<trkpt lat="47.3338782" lon="4.0932865">
<ele>534.99</ele>
<time>2021-06-26T08:24:42Z</time>
</trkpt>
<trkpt lat="47.3340433" lon="4.0931550">
<ele>536.64</ele>
<time>2021-06-26T08:24:47Z</time>
</trkpt>
<trkpt lat="47.3342137" lon="4.0930575">
<ele>538.39</ele>
<time>2021-06-26T08:24:52Z</time>
</trkpt>
<trkpt lat="47.3343723" lon="4.0929312">
<ele>540.73</ele>
<time>2021-06-26T08:24:57Z</time>
</trkpt>
<trkpt lat="47.3344085" lon="4.0926489">
<ele>544.05</ele>
<time>2021-06-26T08:25:03Z</time>
</trkpt>
<trkpt lat="47.3344275" lon="4.0923587">
<ele>541.95</ele>
<time>2021-06-26T08:25:09Z</time>
</trkpt>
<trkpt lat="47.3345459" lon="4.0921441">
<ele>537.38</ele>
<time>2021-06-26T08:25:41Z</time>
</trkpt>
<trkpt lat="47.3345309" lon="4.0918467">
<ele>535.39</ele>
<time>2021-06-26T08:25:58Z</time>
</trkpt>
<trkpt lat="47.3345744" lon="4.0915662">
<ele>534.26</ele>
<time>2021-06-26T08:26:03Z</time>
</trkpt>
<trkpt lat="47.3346225" lon="4.0913039">
<ele>537.65</ele>
<time>2021-06-26T08:26:08Z</time>
</trkpt>
<trkpt lat="47.3346455" lon="4.0910352">
<ele>535.95</ele>
<time>2021-06-26T08:26:13Z</time>
</trkpt>
<trkpt lat="47.3345448" lon="4.0907909">
<ele>532.75</ele>
<time>2021-06-26T08:26:16Z</time>
</trkpt>
<trkpt lat="47.3345541" lon="4.0904469">
<ele>532.90</ele>
<time>2021-06-26T08:26:20Z</time>
</trkpt>
<trkpt lat="47.3345773" lon="4.0901719">
<ele>531.56</ele>
<time>2021-06-26T08:26:26Z</time>
</trkpt>
<trkpt lat="47.3345962" lon="4.0898035">
<ele>531.77</ele>
<time>2021-06-26T08:26:28Z</time>
</trkpt>
<trkpt lat="47.3346175" lon="4.0895209">
<ele>534.11</ele>
<time>2021-06-26T08:26:33Z</time>
</trkpt>
<trkpt lat="47.3347273" lon="4.0892908">
<ele>537.27</ele>
<time>2021-06-26T08:26:39Z</time>
</trkpt>
<trkpt lat="47.3348162" lon="4.0890204">
<ele>536.72</ele>
<time>2021-06-26T08:26:44Z</time>
</trkpt>
<trkpt lat="47.3347666" lon="4.0887543">
<ele>535.37</ele>
<time>2021-06-26T08:26:55Z</time>
</trkpt>
<trkpt lat="47.3348519" lon="4.0884636">
<ele>533.59</ele>
<time>2021-06-26T08:27:06Z</time>
</trkpt>
<trkpt lat="47.3348052" lon="4.0881979">
<ele>534.75</ele>
<time>2021-06-26T08:27:13Z</time>
</trkpt>
<trkpt lat="47.3346662" lon="4.0880154">
<ele>535.42</ele>
<time>2021-06-26T08:27:21Z</time>
</trkpt>
<trkpt lat="47.3344904" lon="4.0878743">
<ele>535.68</ele>
<time>2021-06-26T08:27:32Z</time>
</trkpt>
<trkpt lat="47.3342993" lon="4.0877351">
<ele>535.01</ele>
<time>2021-06-26T08:27:35Z</time>
</trkpt>
<trkpt lat="47.3341497" lon="4.0875737">
<ele>533.49</ele>
<time>2021-06-26T08:27:39Z</time>
</trkpt>
<trkpt lat="47.3339917" lon="4.0873192">
<ele>535.11</ele>
<time>2021-06-26T08:27:45Z</time>
</trkpt>
<trkpt lat="47.3338404" lon="4.0871483">
<ele>532.17</ele>
<time>2021-06-26T08:27:49Z</time>
</trkpt>
<trkpt lat="47.3337116" lon="4.0869553">
<ele>531.50</ele>
<time>2021-06-26T08:27:56Z</time>
</trkpt>
<trkpt lat="47.3335998" lon="4.0867404">
<ele>531.67</ele>
<time>2021-06-26T08:28:00Z</time>
</trkpt>
<trkpt lat="47.3335114" lon="4.0865080">
<ele>531.93</ele>
<time>2021-06-26T08:28:04Z</time>
</trkpt>
<trkpt lat="47.3334036" lon="4.0862523">
<ele>531.97</ele>
<time>2021-06-26T08:28:09Z</time>
</trkpt>
<trkpt lat="47.3333222" lon="4.0860081">
<ele>532.26</ele>
<time>2021-06-26T08:28:14Z</time>
</trkpt>
<trkpt lat="47.3332939" lon="4.0857305">
<ele>532.74</ele>
<time>2021-06-26T08:28:19Z</time>
</trkpt>
<trkpt lat="47.3332505" lon="4.0854305">
<ele>532.58</ele>
<time>2021-06-26T08:28:24Z</time>
</trkpt>
<trkpt lat="47.3332576" lon="4.0851179">
<ele>531.88</ele>
<time>2021-06-26T08:28:29Z</time>
</trkpt>
<trkpt lat="47.3333019" lon="4.0848292">
<ele>531.85</ele>
<time>2021-06-26T08:28:35Z</time>
</trkpt>
<trkpt lat="47.3333615" lon="4.0845562">
<ele>531.67</ele>
<time>2021-06-26T08:28:40Z</time>
</trkpt>
<trkpt lat="47.3334505" lon="4.0842843">
<ele>532.08</ele>
<time>2021-06-26T08:28:45Z</time>
</trkpt>
<trkpt lat="47.3335292" lon="4.0840184">
<ele>532.46</ele>
<time>2021-06-26T08:28:50Z</time>
</trkpt>
<trkpt lat="47.3336839" lon="4.0838213">
<ele>532.20</ele>
<time>2021-06-26T08:28:57Z</time>
</trkpt>
<trkpt lat="47.3338202" lon="4.0835596">
<ele>531.94</ele>
<time>2021-06-26T08:29:02Z</time>
</trkpt>
<trkpt lat="47.3338726" lon="4.0833037">
<ele>531.05</ele>
<time>2021-06-26T08:29:06Z</time>
</trkpt>
<trkpt lat="47.3339880" lon="4.0830664">
<ele>530.96</ele>
<time>2021-06-26T08:29:10Z</time>
</trkpt>
<trkpt lat="47.3340307" lon="4.0827827">
<ele>530.91</ele>
<time>2021-06-26T08:29:14Z</time>
</trkpt>
<trkpt lat="47.3340750" lon="4.0824815">
<ele>529.04</ele>
<time>2021-06-26T08:29:18Z</time>
</trkpt>
<trkpt lat="47.3341306" lon="4.0821750">
<ele>530.35</ele>
<time>2021-06-26T08:29:22Z</time>
</trkpt>
<trkpt lat="47.3341936" lon="4.0818636">
<ele>530.09</ele>
<time>2021-06-26T08:29:26Z</time>
</trkpt>
<trkpt lat="47.3342736" lon="4.0815742">
<ele>529.94</ele>
<time>2021-06-26T08:29:30Z</time>
</trkpt>
<trkpt lat="47.3343535" lon="4.0812961">
<ele>529.93</ele>
<time>2021-06-26T08:29:34Z</time>
</trkpt>
<trkpt lat="47.3344639" lon="4.0810765">
<ele>530.64</ele>
<time>2021-06-26T08:29:38Z</time>
</trkpt>
<trkpt lat="47.3346214" lon="4.0808906">
<ele>530.15</ele>
<time>2021-06-26T08:29:43Z</time>
</trkpt>
<trkpt lat="47.3347813" lon="4.0807486">
<ele>531.43</ele>
<time>2021-06-26T08:29:48Z</time>
</trkpt>
<trkpt lat="47.3349740" lon="4.0808228">
<ele>530.72</ele>
<time>2021-06-26T08:29:54Z</time>
</trkpt>
<trkpt lat="47.3352057" lon="4.0807275">
<ele>530.61</ele>
<time>2021-06-26T08:30:00Z</time>
</trkpt>
<trkpt lat="47.3353291" lon="4.0805061">
<ele>529.44</ele>
<time>2021-06-26T08:30:04Z</time>
</trkpt>
<trkpt lat="47.3353896" lon="4.0801660">
<ele>529.09</ele>
<time>2021-06-26T08:30:09Z</time>
</trkpt>
<trkpt lat="47.3354929" lon="4.0798559">
<ele>529.08</ele>
<time>2021-06-26T08:30:13Z</time>
</trkpt>
<trkpt lat="47.3356435" lon="4.0794734">
<ele>526.14</ele>
<time>2021-06-26T08:30:19Z</time>
</trkpt>
<trkpt lat="47.3357821" lon="4.0792645">
<ele>529.89</ele>
<time>2021-06-26T08:30:24Z</time>
</trkpt>
<trkpt lat="47.3359556" lon="4.0788866">
<ele>529.99</ele>
<time>2021-06-26T08:30:29Z</time>
</trkpt>
<trkpt lat="47.3360569" lon="4.0786662">
<ele>530.29</ele>
<time>2021-06-26T08:30:36Z</time>
</trkpt>
<trkpt lat="47.3362162" lon="4.0785387">
<ele>527.56</ele>
<time>2021-06-26T08:30:42Z</time>
</trkpt>
<trkpt lat="47.3363815" lon="4.0783922">
<ele>524.65</ele>
<time>2021-06-26T08:30:47Z</time>
</trkpt>
<trkpt lat="47.3364166" lon="4.0781008">
<ele>526.38</ele>
<time>2021-06-26T08:30:56Z</time>
</trkpt>
<trkpt lat="47.3364350" lon="4.0778311">
<ele>525.91</ele>
<time>2021-06-26T08:31:04Z</time>
</trkpt>
<trkpt lat="47.3364530" lon="4.0775432">
<ele>526.62</ele>
<time>2021-06-26T08:31:12Z</time>
</trkpt>
<trkpt lat="47.3364802" lon="4.0772646">
<ele>526.45</ele>
<time>2021-06-26T08:31:19Z</time>
</trkpt>
<trkpt lat="47.3364960" lon="4.0769884">
<ele>526.38</ele>
<time>2021-06-26T08:31:25Z</time>
</trkpt>
<trkpt lat="47.3365131" lon="4.0767216">
<ele>526.39</ele>
<time>2021-06-26T08:31:30Z</time>
</trkpt>
<trkpt lat="47.3365414" lon="4.0764421">
<ele>526.95</ele>
<time>2021-06-26T08:31:35Z</time>
</trkpt>
<trkpt lat="47.3366100" lon="4.0761934">
<ele>526.12</ele>
<time>2021-06-26T08:31:40Z</time>
</trkpt>
<trkpt lat="47.3364946" lon="4.0759633">
<ele>526.65</ele>
<time>2021-06-26T08:31:46Z</time>
</trkpt>
<trkpt lat="47.3363113" lon="4.0758624">
<ele>528.84</ele>
<time>2021-06-26T08:31:54Z</time>
</trkpt>
<trkpt lat="47.3361338" lon="4.0757278">
<ele>529.08</ele>
<time>2021-06-26T08:32:01Z</time>
</trkpt>
<trkpt lat="47.3359769" lon="4.0755739">
<ele>530.86</ele>
<time>2021-06-26T08:32:08Z</time>
</trkpt>
<trkpt lat="47.3357987" lon="4.0755217">
<ele>529.36</ele>
<time>2021-06-26T08:32:14Z</time>
</trkpt>
<trkpt lat="47.3355984" lon="4.0754571">
<ele>533.65</ele>
<time>2021-06-26T08:35:12Z</time>
</trkpt>
<trkpt lat="47.3354100" lon="4.0754337">
<ele>533.95</ele>
<time>2021-06-26T08:35:18Z</time>
</trkpt>
<trkpt lat="47.3352389" lon="4.0755192">
<ele>532.13</ele>
<time>2021-06-26T08:35:21Z</time>
</trkpt>
<trkpt lat="47.3350636" lon="4.0754314">
<ele>529.45</ele>
<time>2021-06-26T08:35:25Z</time>
</trkpt>
<trkpt lat="47.3348744" lon="4.0752367">
<ele>529.54</ele>
<time>2021-06-26T08:35:31Z</time>
</trkpt>
<trkpt lat="47.3346768" lon="4.0751266">
<ele>529.01</ele>
<time>2021-06-26T08:35:36Z</time>
</trkpt>
<trkpt lat="47.3344817" lon="4.0750326">
<ele>528.25</ele>
<time>2021-06-26T08:35:40Z</time>
</trkpt>
<trkpt lat="47.3343041" lon="4.0750967">
<ele>526.46</ele>
<time>2021-06-26T08:35:46Z</time>
</trkpt>
<trkpt lat="47.3344933" lon="4.0750662">
<ele>525.73</ele>
<time>2021-06-26T08:36:00Z</time>
</trkpt>
<trkpt lat="47.3345830" lon="4.0748062">
<ele>529.42</ele>
<time>2021-06-26T08:36:38Z</time>
</trkpt>
<trkpt lat="47.3344767" lon="4.0745887">
<ele>530.68</ele>
<time>2021-06-26T08:36:45Z</time>
</trkpt>
<trkpt lat="47.3343092" lon="4.0744581">
<ele>530.81</ele>
<time>2021-06-26T08:36:51Z</time>
</trkpt>
<trkpt lat="47.3340924" lon="4.0744985">
<ele>531.34</ele>
<time>2021-06-26T08:36:58Z</time>
</trkpt>
<trkpt lat="47.3338278" lon="4.0744530">
<ele>532.24</ele>
<time>2021-06-26T08:37:01Z</time>
</trkpt>
<trkpt lat="47.3336434" lon="4.0743975">
<ele>532.88</ele>
<time>2021-06-26T08:37:04Z</time>
</trkpt>
<trkpt lat="47.3334302" lon="4.0743765">
<ele>531.77</ele>
<time>2021-06-26T08:37:07Z</time>
</trkpt>
<trkpt lat="47.3332502" lon="4.0743329">
<ele>531.26</ele>
<time>2021-06-26T08:37:11Z</time>
</trkpt>
<trkpt lat="47.3330526" lon="4.0743443">
<ele>530.54</ele>
<time>2021-06-26T08:37:14Z</time>
</trkpt>
<trkpt lat="47.3328656" lon="4.0744224">
<ele>530.58</ele>
<time>2021-06-26T08:37:19Z</time>
</trkpt>
<trkpt lat="47.3326760" lon="4.0742459">
<ele>529.15</ele>
<time>2021-06-26T08:37:25Z</time>
</trkpt>
<trkpt lat="47.3325748" lon="4.0740176">
<ele>527.60</ele>
<time>2021-06-26T08:37:31Z</time>
</trkpt>
<trkpt lat="47.3324326" lon="4.0737806">
<ele>527.56</ele>
<time>2021-06-26T08:37:40Z</time>
</trkpt>
<trkpt lat="47.3322203" lon="4.0736770">
<ele>526.72</ele>
<time>2021-06-26T08:37:45Z</time>
</trkpt>
<trkpt lat="47.3320488" lon="4.0735882">
<ele>526.69</ele>
<time>2021-06-26T08:37:48Z</time>
</trkpt>
<trkpt lat="47.3318881" lon="4.0734191">
<ele>528.72</ele>
<time>2021-06-26T08:37:54Z</time>
</trkpt>
<trkpt lat="47.3317008" lon="4.0732928">
<ele>529.28</ele>
<time>2021-06-26T08:37:59Z</time>
</trkpt>
<trkpt lat="47.3315436" lon="4.0734376">
<ele>527.14</ele>
<time>2021-06-26T08:38:08Z</time>
</trkpt>
<trkpt lat="47.3315016" lon="4.0737035">
<ele>524.78</ele>
<time>2021-06-26T08:38:18Z</time>
</trkpt>
<trkpt lat="47.3315759" lon="4.0739746">
<ele>528.44</ele>
<time>2021-06-26T08:38:27Z</time>
</trkpt>
<trkpt lat="47.3316259" lon="4.0742598">
<ele>525.63</ele>
<time>2021-06-26T08:38:34Z</time>
</trkpt>
<trkpt lat="47.3317139" lon="4.0745170">
<ele>524.55</ele>
<time>2021-06-26T08:38:38Z</time>
</trkpt>
<trkpt lat="47.3318337" lon="4.0748072">
<ele>527.07</ele>
<time>2021-06-26T08:38:44Z</time>
</trkpt>
<trkpt lat="47.3318378" lon="4.0750881">
<ele>528.54</ele>
<time>2021-06-26T08:38:52Z</time>
</trkpt>
<trkpt lat="47.3319042" lon="4.0753582">
<ele>524.53</ele>
<time>2021-06-26T08:38:57Z</time>
</trkpt>
<trkpt lat="47.3319979" lon="4.0756350">
<ele>523.55</ele>
<time>2021-06-26T08:39:02Z</time>
</trkpt>
<trkpt lat="47.3320644" lon="4.0759293">
<ele>525.15</ele>
<time>2021-06-26T08:39:08Z</time>
</trkpt>
<trkpt lat="47.3321242" lon="4.0761902">
<ele>524.94</ele>
<time>2021-06-26T08:39:13Z</time>
</trkpt>
<trkpt lat="47.3320946" lon="4.0764834">
<ele>526.40</ele>
<time>2021-06-26T08:39:19Z</time>
</trkpt>
<trkpt lat="47.3320720" lon="4.0767818">
<ele>529.84</ele>
<time>2021-06-26T08:39:26Z</time>
</trkpt>
<trkpt lat="47.3320683" lon="4.0770519">
<ele>530.44</ele>
<time>2021-06-26T08:39:33Z</time>
</trkpt>
<trkpt lat="47.3321109" lon="4.0773492">
<ele>530.80</ele>
<time>2021-06-26T08:39:38Z</time>
</trkpt>
<trkpt lat="47.3321481" lon="4.0776150">
<ele>530.05</ele>
<time>2021-06-26T08:39:42Z</time>
</trkpt>
<trkpt lat="47.3321284" lon="4.0778820">
<ele>528.43</ele>
<time>2021-06-26T08:39:47Z</time>
</trkpt>
<trkpt lat="47.3320747" lon="4.0781550">
<ele>529.22</ele>
<time>2021-06-26T08:39:52Z</time>
</trkpt>
<trkpt lat="47.3319753" lon="4.0783803">
<ele>529.32</ele>
<time>2021-06-26T08:39:59Z</time>
</trkpt>
<trkpt lat="47.3318218" lon="4.0785547">
<ele>530.16</ele>
<time>2021-06-26T08:40:03Z</time>
</trkpt>
<trkpt lat="47.3316477" lon="4.0784735">
<ele>528.88</ele>
<time>2021-06-26T08:40:11Z</time>
</trkpt>
<trkpt lat="47.3315197" lon="4.0786875">
<ele>530.30</ele>
<time>2021-06-26T08:40:29Z</time>
</trkpt>
<trkpt lat="47.3315103" lon="4.0789789">
<ele>529.95</ele>
<time>2021-06-26T08:40:35Z</time>
</trkpt>
<trkpt lat="47.3314926" lon="4.0792640">
<ele>532.14</ele>
<time>2021-06-26T08:40:41Z</time>
</trkpt>
<trkpt lat="47.3315330" lon="4.0795488">
<ele>531.73</ele>
<time>2021-06-26T08:40:49Z</time>
</trkpt>
<trkpt lat="47.3313505" lon="4.0796560">
<ele>531.92</ele>
<time>2021-06-26T08:40:58Z</time>
</trkpt>
<trkpt lat="47.3311554" lon="4.0796875">
<ele>534.57</ele>
<time>2021-06-26T08:41:06Z</time>
</trkpt>
<trkpt lat="47.3309546" lon="4.0796279">
<ele>534.00</ele>
<time>2021-06-26T08:41:14Z</time>
</trkpt>
<trkpt lat="47.3307587" lon="4.0795942">
<ele>536.29</ele>
<time>2021-06-26T08:41:22Z</time>
</trkpt>
<trkpt lat="47.3306448" lon="4.0793468">
<ele>537.95</ele>
<time>2021-06-26T08:41:33Z</time>
</trkpt>
<trkpt lat="47.3306188" lon="4.0790826">
<ele>536.06</ele>
<time>2021-06-26T08:41:40Z</time>
</trkpt>
<trkpt lat="47.3305422" lon="4.0788061">
<ele>537.52</ele>
<time>2021-06-26T08:41:47Z</time>
</trkpt>
<trkpt lat="47.3304716" lon="4.0785601">
<ele>539.67</ele>
<time>2021-06-26T08:41:54Z</time>
</trkpt>
<trkpt lat="47.3303957" lon="4.0782865">
<ele>542.79</ele>
<time>2021-06-26T08:42:02Z</time>
</trkpt>
<trkpt lat="47.3303064" lon="4.0780396">
<ele>544.41</ele>
<time>2021-06-26T08:42:09Z</time>
</trkpt>
<trkpt lat="47.3302137" lon="4.0778096">
<ele>546.96</ele>
<time>2021-06-26T08:42:17Z</time>
</trkpt>
<trkpt lat="47.3301398" lon="4.0775486">
<ele>548.37</ele>
<time>2021-06-26T08:42:26Z</time>
</trkpt>
<trkpt lat="47.3301306" lon="4.0772753">
<ele>545.23</ele>
<time>2021-06-26T08:42:35Z</time>
</trkpt>
<trkpt lat="47.3301512" lon="4.0770001">
<ele>546.09</ele>
<time>2021-06-26T08:42:43Z</time>
</trkpt>
<trkpt lat="47.3300801" lon="4.0767471">
<ele>548.94</ele>
<time>2021-06-26T08:42:53Z</time>
</trkpt>
<trkpt lat="47.3299482" lon="4.0765641">
<ele>551.43</ele>
<time>2021-06-26T08:43:02Z</time>
</trkpt>
<trkpt lat="47.3298138" lon="4.0763746">
<ele>553.89</ele>
<time>2021-06-26T08:43:11Z</time>
</trkpt>
<trkpt lat="47.3296577" lon="4.0761925">
<ele>554.49</ele>
<time>2021-06-26T08:43:21Z</time>
</trkpt>
<trkpt lat="47.3294884" lon="4.0760651">
<ele>556.45</ele>
<time>2021-06-26T08:43:30Z</time>
</trkpt>
<trkpt lat="47.3293285" lon="4.0759198">
<ele>558.04</ele>
<time>2021-06-26T08:43:39Z</time>
</trkpt>
<trkpt lat="47.3291662" lon="4.0757618">
<ele>567.78</ele>
<time>2021-06-26T08:43:48Z</time>
</trkpt>
<trkpt lat="47.3290301" lon="4.0755564">
<ele>572.13</ele>
<time>2021-06-26T08:43:56Z</time>
</trkpt>
<trkpt lat="47.3289015" lon="4.0753290">
<ele>559.38</ele>
<time>2021-06-26T08:44:04Z</time>
</trkpt>
<trkpt lat="47.3287641" lon="4.0751233">
<ele>560.24</ele>
<time>2021-06-26T08:44:12Z</time>
</trkpt>
<trkpt lat="47.3285516" lon="4.0748647">
<ele>560.23</ele>
<time>2021-06-26T08:44:22Z</time>
</trkpt>
<trkpt lat="47.3284246" lon="4.0746753">
<ele>559.00</ele>
<time>2021-06-26T08:44:27Z</time>
</trkpt>
<trkpt lat="47.3282458" lon="4.0745389">
<ele>554.88</ele>
<time>2021-06-26T08:44:34Z</time>
</trkpt>
<trkpt lat="47.3280651" lon="4.0744402">
<ele>554.91</ele>
<time>2021-06-26T08:44:40Z</time>
</trkpt>
<trkpt lat="47.3278955" lon="4.0742910">
<ele>555.68</ele>
<time>2021-06-26T08:44:46Z</time>
</trkpt>
<trkpt lat="47.3277365" lon="4.0741514">
<ele>557.53</ele>
<time>2021-06-26T08:44:52Z</time>
</trkpt>
<trkpt lat="47.3275477" lon="4.0740113">
<ele>563.55</ele>
<time>2021-06-26T08:44:58Z</time>
</trkpt>
<trkpt lat="47.3273835" lon="4.0738317">
<ele>562.01</ele>
<time>2021-06-26T08:45:04Z</time>
</trkpt>
<trkpt lat="47.3272192" lon="4.0736579">
<ele>571.83</ele>
<time>2021-06-26T08:45:11Z</time>
</trkpt>
<trkpt lat="47.3270345" lon="4.0735367">
<ele>561.73</ele>
<time>2021-06-26T08:45:17Z</time>
</trkpt>
<trkpt lat="47.3268646" lon="4.0734423">
<ele>559.72</ele>
<time>2021-06-26T08:45:23Z</time>
</trkpt>
<trkpt lat="47.3266814" lon="4.0733323">
<ele>554.66</ele>
<time>2021-06-26T08:45:29Z</time>
</trkpt>
<trkpt lat="47.3264866" lon="4.0732010">
<ele>558.41</ele>
<time>2021-06-26T08:45:35Z</time>
</trkpt>
<trkpt lat="47.3263212" lon="4.0730581">
<ele>561.45</ele>
<time>2021-06-26T08:45:41Z</time>
</trkpt>
<trkpt lat="47.3261547" lon="4.0729174">
<ele>562.25</ele>
<time>2021-06-26T08:45:47Z</time>
</trkpt>
<trkpt lat="47.3259418" lon="4.0728445">
<ele>565.71</ele>
<time>2021-06-26T08:45:53Z</time>
</trkpt>
<trkpt lat="47.3257639" lon="4.0726860">
<ele>568.89</ele>
<time>2021-06-26T08:45:58Z</time>
</trkpt>
<trkpt lat="47.3255979" lon="4.0724403">
<ele>568.57</ele>
<time>2021-06-26T08:46:04Z</time>
</trkpt>
<trkpt lat="47.3254395" lon="4.0722651">
<ele>568.54</ele>
<time>2021-06-26T08:46:08Z</time>
</trkpt>
<trkpt lat="47.3252327" lon="4.0722155">
<ele>587.97</ele>
<time>2021-06-26T08:46:13Z</time>
</trkpt>
<trkpt lat="47.3250545" lon="4.0721226">
<ele>569.64</ele>
<time>2021-06-26T08:46:18Z</time>
</trkpt>
<trkpt lat="47.3248809" lon="4.0719779">
<ele>571.69</ele>
<time>2021-06-26T08:46:23Z</time>
</trkpt>
<trkpt lat="47.3246758" lon="4.0718929">
<ele>571.18</ele>
<time>2021-06-26T08:46:29Z</time>
</trkpt>
<trkpt lat="47.3244777" lon="4.0718510">
<ele>589.99</ele>
<time>2021-06-26T08:46:35Z</time>
</trkpt>
<trkpt lat="47.3242820" lon="4.0718561">
<ele>592.64</ele>
<time>2021-06-26T08:46:40Z</time>
</trkpt>
<trkpt lat="47.3240763" lon="4.0718056">
<ele>594.79</ele>
<time>2021-06-26T08:46:46Z</time>
</trkpt>
<trkpt lat="47.3238435" lon="4.0716842">
<ele>593.18</ele>
<time>2021-06-26T08:46:52Z</time>
</trkpt>
<trkpt lat="47.3236646" lon="4.0715858">
<ele>593.50</ele>
<time>2021-06-26T08:46:59Z</time>
</trkpt>
<trkpt lat="47.3234679" lon="4.0715414">
<ele>594.11</ele>
<time>2021-06-26T08:47:04Z</time>
</trkpt>
<trkpt lat="47.3232785" lon="4.0714255">
<ele>594.41</ele>
<time>2021-06-26T08:47:10Z</time>
</trkpt>
<trkpt lat="47.3231103" lon="4.0713247">
<ele>596.28</ele>
<time>2021-06-26T08:47:15Z</time>
</trkpt>
<trkpt lat="47.3229344" lon="4.0712194">
<ele>597.22</ele>
<time>2021-06-26T08:47:21Z</time>
</trkpt>
<trkpt lat="47.3227659" lon="4.0711131">
<ele>598.64</ele>
<time>2021-06-26T08:47:27Z</time>
</trkpt>
<trkpt lat="47.3225939" lon="4.0710200">
<ele>598.05</ele>
<time>2021-06-26T08:47:33Z</time>
</trkpt>
<trkpt lat="47.3224315" lon="4.0708857">
<ele>601.69</ele>
<time>2021-06-26T08:47:40Z</time>
</trkpt>
<trkpt lat="47.3222748" lon="4.0707270">
<ele>603.73</ele>
<time>2021-06-26T08:47:47Z</time>
</trkpt>
<trkpt lat="47.3221003" lon="4.0705718">
<ele>604.80</ele>
<time>2021-06-26T08:47:54Z</time>
</trkpt>
<trkpt lat="47.3219324" lon="4.0704111">
<ele>606.80</ele>
<time>2021-06-26T08:48:02Z</time>
</trkpt>
<trkpt lat="47.3217594" lon="4.0702971">
<ele>606.71</ele>
<time>2021-06-26T08:48:08Z</time>
</trkpt>
<trkpt lat="47.3215658" lon="4.0702058">
<ele>606.32</ele>
<time>2021-06-26T08:48:15Z</time>
</trkpt>
<trkpt lat="47.3213963" lon="4.0701147">
<ele>605.52</ele>
<time>2021-06-26T08:48:21Z</time>
</trkpt>
<trkpt lat="47.3212514" lon="4.0699497">
<ele>604.49</ele>
<time>2021-06-26T08:48:28Z</time>
</trkpt>
<trkpt lat="47.3211079" lon="4.0697649">
<ele>605.57</ele>
<time>2021-06-26T08:48:36Z</time>
</trkpt>
<trkpt lat="47.3209054" lon="4.0697061">
<ele>605.25</ele>
<time>2021-06-26T08:49:30Z</time>
</trkpt>
<trkpt lat="47.3206952" lon="4.0696789">
<ele>604.94</ele>
<time>2021-06-26T08:49:35Z</time>
</trkpt>
<trkpt lat="47.3204664" lon="4.0697169">
<ele>604.09</ele>
<time>2021-06-26T08:49:40Z</time>
</trkpt>
<trkpt lat="47.3202897" lon="4.0698457">
<ele>604.82</ele>
<time>2021-06-26T08:49:44Z</time>
</trkpt>
<trkpt lat="47.3201084" lon="4.0699930">
<ele>605.02</ele>
<time>2021-06-26T08:49:48Z</time>
</trkpt>
<trkpt lat="47.3199408" lon="4.0701225">
<ele>605.70</ele>
<time>2021-06-26T08:49:52Z</time>
</trkpt>
<trkpt lat="47.3198140" lon="4.0703182">
<ele>606.16</ele>
<time>2021-06-26T08:49:56Z</time>
</trkpt>
<trkpt lat="47.3197246" lon="4.0705809">
<ele>606.51</ele>
<time>2021-06-26T08:50:01Z</time>
</trkpt>
<trkpt lat="47.3196741" lon="4.0708553">
<ele>606.68</ele>
<time>2021-06-26T08:50:07Z</time>
</trkpt>
<trkpt lat="47.3195299" lon="4.0711081">
<ele>604.57</ele>
<time>2021-06-26T08:50:12Z</time>
</trkpt>
<trkpt lat="47.3193584" lon="4.0712867">
<ele>606.43</ele>
<time>2021-06-26T08:50:19Z</time>
</trkpt>
<trkpt lat="47.3192045" lon="4.0714466">
<ele>607.15</ele>
<time>2021-06-26T08:50:24Z</time>
</trkpt>
<trkpt lat="47.3190475" lon="4.0716066">
<ele>608.53</ele>
<time>2021-06-26T08:50:29Z</time>
</trkpt>
<trkpt lat="47.3188615" lon="4.0717574">
<ele>609.62</ele>
<time>2021-06-26T08:50:35Z</time>
</trkpt>
<trkpt lat="47.3186971" lon="4.0719202">
<ele>609.18</ele>
<time>2021-06-26T08:50:40Z</time>
</trkpt>
<trkpt lat="47.3185323" lon="4.0720533">
<ele>609.04</ele>
<time>2021-06-26T08:50:47Z</time>
</trkpt>
<trkpt lat="47.3184038" lon="4.0718397">
<ele>608.32</ele>
<time>2021-06-26T08:50:54Z</time>
</trkpt>
<trkpt lat="47.3182676" lon="4.0716380">
<ele>606.83</ele>
<time>2021-06-26T08:51:00Z</time>
</trkpt>
<trkpt lat="47.3181183" lon="4.0714669">
<ele>606.04</ele>
<time>2021-06-26T08:51:05Z</time>
</trkpt>
<trkpt lat="47.3179461" lon="4.0713396">
<ele>605.78</ele>
<time>2021-06-26T08:51:11Z</time>
</trkpt>
<trkpt lat="47.3177758" lon="4.0711957">
<ele>606.15</ele>
<time>2021-06-26T08:51:15Z</time>
</trkpt>
<trkpt lat="47.3175290" lon="4.0710944">
<ele>604.74</ele>
<time>2021-06-26T08:51:19Z</time>
</trkpt>
<trkpt lat="47.3173138" lon="4.0710603">
<ele>602.30</ele>
<time>2021-06-26T08:51:23Z</time>
</trkpt>
<trkpt lat="47.3170107" lon="4.0710815">
<ele>602.07</ele>
<time>2021-06-26T08:51:28Z</time>
</trkpt>
<trkpt lat="47.3168109" lon="4.0711290">
<ele>601.45</ele>
<time>2021-06-26T08:51:31Z</time>
</trkpt>
<trkpt lat="47.3165558" lon="4.0711820">
<ele>599.38</ele>
<time>2021-06-26T08:51:36Z</time>
</trkpt>
<trkpt lat="47.3163856" lon="4.0713003">
<ele>596.79</ele>
<time>2021-06-26T08:51:38Z</time>
</trkpt>
<trkpt lat="47.3162288" lon="4.0714318">
<ele>593.18</ele>
<time>2021-06-26T08:51:41Z</time>
</trkpt>
<trkpt lat="47.3160976" lon="4.0716407">
<ele>592.44</ele>
<time>2021-06-26T08:51:44Z</time>
</trkpt>
<trkpt lat="47.3159282" lon="4.0718101">
<ele>590.88</ele>
<time>2021-06-26T08:51:47Z</time>
</trkpt>
<trkpt lat="47.3157380" lon="4.0717777">
<ele>587.67</ele>
<time>2021-06-26T08:51:54Z</time>
</trkpt>
<trkpt lat="47.3156408" lon="4.0715367">
<ele>592.70</ele>
<time>2021-06-26T08:52:04Z</time>
</trkpt>
<trkpt lat="47.3156014" lon="4.0712774">
<ele>595.10</ele>
<time>2021-06-26T08:52:16Z</time>
</trkpt>
<trkpt lat="47.3155183" lon="4.0710084">
<ele>592.82</ele>
<time>2021-06-26T08:54:23Z</time>
</trkpt>
<trkpt lat="47.3153647" lon="4.0708341">
<ele>592.36</ele>
<time>2021-06-26T08:54:30Z</time>
</trkpt>
<trkpt lat="47.3151680" lon="4.0707877">
<ele>592.47</ele>
<time>2021-06-26T08:54:37Z</time>
</trkpt>
<trkpt lat="47.3149749" lon="4.0707476">
<ele>595.90</ele>
<time>2021-06-26T08:54:45Z</time>
</trkpt>
<trkpt lat="47.3147905" lon="4.0706995">
<ele>592.14</ele>
<time>2021-06-26T08:54:54Z</time>
</trkpt>
<trkpt lat="47.3146045" lon="4.0706318">
<ele>593.71</ele>
<time>2021-06-26T08:55:02Z</time>
</trkpt>
<trkpt lat="47.3144498" lon="4.0704851">
<ele>592.75</ele>
<time>2021-06-26T08:55:09Z</time>
</trkpt>
<trkpt lat="47.3143071" lon="4.0703162">
<ele>595.43</ele>
<time>2021-06-26T08:55:18Z</time>
</trkpt>
<trkpt lat="47.3141490" lon="4.0701681">
<ele>600.78</ele>
<time>2021-06-26T08:55:24Z</time>
</trkpt>
<trkpt lat="47.3139782" lon="4.0700067">
<ele>599.11</ele>
<time>2021-06-26T08:55:31Z</time>
</trkpt>
<trkpt lat="47.3138460" lon="4.0697915">
<ele>600.68</ele>
<time>2021-06-26T08:55:39Z</time>
</trkpt>
<trkpt lat="47.3137255" lon="4.0695660">
<ele>602.29</ele>
<time>2021-06-26T08:55:46Z</time>
</trkpt>
<trkpt lat="47.3136156" lon="4.0693297">
<ele>606.21</ele>
<time>2021-06-26T08:55:53Z</time>
</trkpt>
<trkpt lat="47.3134751" lon="4.0691464">
<ele>607.09</ele>
<time>2021-06-26T08:56:00Z</time>
</trkpt>
<trkpt lat="47.3133194" lon="4.0689884">
<ele>608.01</ele>
<time>2021-06-26T08:56:07Z</time>
</trkpt>
<trkpt lat="47.3131664" lon="4.0688246">
<ele>608.32</ele>
<time>2021-06-26T08:56:15Z</time>
</trkpt>
<trkpt lat="47.3130145" lon="4.0686685">
<ele>604.85</ele>
<time>2021-06-26T08:56:22Z</time>
</trkpt>
<trkpt lat="47.3128548" lon="4.0684885">
<ele>602.32</ele>
<time>2021-06-26T08:56:30Z</time>
</trkpt>
<trkpt lat="47.3127131" lon="4.0682674">
<ele>605.05</ele>
<time>2021-06-26T08:56:37Z</time>
</trkpt>
<trkpt lat="47.3126063" lon="4.0680284">
<ele>606.92</ele>
<time>2021-06-26T08:56:43Z</time>
</trkpt>
<trkpt lat="47.3124674" lon="4.0678206">
<ele>608.84</ele>
<time>2021-06-26T08:56:50Z</time>
</trkpt>
<trkpt lat="47.3123160" lon="4.0676228">
<ele>607.70</ele>
<time>2021-06-26T08:56:56Z</time>
</trkpt>
<trkpt lat="47.3121977" lon="4.0674013">
<ele>609.55</ele>
<time>2021-06-26T08:57:02Z</time>
</trkpt>
<trkpt lat="47.3121041" lon="4.0671438">
<ele>610.41</ele>
<time>2021-06-26T08:57:09Z</time>
</trkpt>
<trkpt lat="47.3121046" lon="4.0668391">
<ele>611.77</ele>
<time>2021-06-26T08:57:18Z</time>
</trkpt>
<trkpt lat="47.3120547" lon="4.0665593">
<ele>610.84</ele>
<time>2021-06-26T08:57:23Z</time>
</trkpt>
<trkpt lat="47.3120367" lon="4.0662669">
<ele>609.74</ele>
<time>2021-06-26T08:57:31Z</time>
</trkpt>
<trkpt lat="47.3119699" lon="4.0660033">
<ele>610.42</ele>
<time>2021-06-26T08:57:36Z</time>
</trkpt>
<trkpt lat="47.3118463" lon="4.0658029">
<ele>613.24</ele>
<time>2021-06-26T08:57:43Z</time>
</trkpt>
<trkpt lat="47.3117091" lon="4.0656164">
<ele>612.38</ele>
<time>2021-06-26T08:57:49Z</time>
</trkpt>
<trkpt lat="47.3115214" lon="4.0654933">
<ele>612.88</ele>
<time>2021-06-26T08:57:55Z</time>
</trkpt>
<trkpt lat="47.3113418" lon="4.0654352">
<ele>614.91</ele>
<time>2021-06-26T08:58:00Z</time>
</trkpt>
<trkpt lat="47.3111823" lon="4.0653087">
<ele>614.32</ele>
<time>2021-06-26T08:58:06Z</time>
</trkpt>
<trkpt lat="47.3110118" lon="4.0651388">
<ele>614.52</ele>
<time>2021-06-26T08:58:12Z</time>
</trkpt>
<trkpt lat="47.3108665" lon="4.0649721">
<ele>616.76</ele>
<time>2021-06-26T08:58:19Z</time>
</trkpt>
<trkpt lat="47.3107091" lon="4.0648145">
<ele>616.92</ele>
<time>2021-06-26T08:58:25Z</time>
</trkpt>
<trkpt lat="47.3105361" lon="4.0646857">
<ele>619.89</ele>
<time>2021-06-26T08:58:31Z</time>
</trkpt>
<trkpt lat="47.3104219" lon="4.0644490">
<ele>620.76</ele>
<time>2021-06-26T08:58:37Z</time>
</trkpt>
<trkpt lat="47.3103510" lon="4.0641939">
<ele>625.20</ele>
<time>2021-06-26T08:58:45Z</time>
</trkpt>
<trkpt lat="47.3102549" lon="4.0639114">
<ele>621.67</ele>
<time>2021-06-26T08:58:52Z</time>
</trkpt>
<trkpt lat="47.3101391" lon="4.0636996">
<ele>622.65</ele>
<time>2021-06-26T08:58:58Z</time>
</trkpt>
<trkpt lat="47.3100235" lon="4.0634582">
<ele>625.17</ele>
<time>2021-06-26T08:59:06Z</time>
</trkpt>
<trkpt lat="47.3099173" lon="4.0632053">
<ele>623.10</ele>
<time>2021-06-26T08:59:12Z</time>
</trkpt>
<trkpt lat="47.3098401" lon="4.0629547">
<ele>621.34</ele>
<time>2021-06-26T08:59:19Z</time>
</trkpt>
<trkpt lat="47.3097529" lon="4.0627222">
<ele>620.29</ele>
<time>2021-06-26T09:01:06Z</time>
</trkpt>
<trkpt lat="47.3096270" lon="4.0625259">
<ele>620.91</ele>
<time>2021-06-26T09:01:20Z</time>
</trkpt>
<trkpt lat="47.3095774" lon="4.0622675">
<ele>623.73</ele>
<time>2021-06-26T09:01:30Z</time>
</trkpt>
<trkpt lat="47.3094832" lon="4.0620263">
<ele>623.45</ele>
<time>2021-06-26T09:01:47Z</time>
</trkpt>
<trkpt lat="47.3094062" lon="4.0617471">
<ele>629.37</ele>
<time>2021-06-26T09:02:02Z</time>
</trkpt>
<trkpt lat="47.3092892" lon="4.0614920">
<ele>632.91</ele>
<time>2021-06-26T09:02:10Z</time>
</trkpt>
<trkpt lat="47.3091582" lon="4.0612732">
<ele>635.27</ele>
<time>2021-06-26T09:02:16Z</time>
</trkpt>
<trkpt lat="47.3090011" lon="4.0611108">
<ele>635.13</ele>
<time>2021-06-26T09:02:22Z</time>
</trkpt>
<trkpt lat="47.3088425" lon="4.0609242">
<ele>632.14</ele>
<time>2021-06-26T09:02:29Z</time>
</trkpt>
<trkpt lat="47.3086779" lon="4.0607734">
<ele>633.56</ele>
<time>2021-06-26T09:02:35Z</time>
</trkpt>
<trkpt lat="47.3084938" lon="4.0606122">
<ele>637.41</ele>
<time>2021-06-26T09:02:42Z</time>
</trkpt>
<trkpt lat="47.3083024" lon="4.0605085">
<ele>635.16</ele>
<time>2021-06-26T09:02:49Z</time>
</trkpt>
<trkpt lat="47.3081593" lon="4.0603227">
<ele>633.58</ele>
<time>2021-06-26T09:02:55Z</time>
</trkpt>
<trkpt lat="47.3080007" lon="4.0601518">
<ele>636.10</ele>
<time>2021-06-26T09:03:01Z</time>
</trkpt>
<trkpt lat="47.3078275" lon="4.0600365">
<ele>634.76</ele>
<time>2021-06-26T09:03:07Z</time>
</trkpt>
<trkpt lat="47.3076658" lon="4.0597473">
<ele>631.26</ele>
<time>2021-06-26T09:03:12Z</time>
</trkpt>
<trkpt lat="47.3075566" lon="4.0595018">
<ele>630.38</ele>
<time>2021-06-26T09:03:17Z</time>
</trkpt>
<trkpt lat="47.3074622" lon="4.0592623">
<ele>632.23</ele>
<time>2021-06-26T09:03:22Z</time>
</trkpt>
<trkpt lat="47.3073187" lon="4.0590032">
<ele>631.17</ele>
<time>2021-06-26T09:03:26Z</time>
</trkpt>
<trkpt lat="47.3071823" lon="4.0587941">
<ele>629.61</ele>
<time>2021-06-26T09:03:29Z</time>
</trkpt>
<trkpt lat="47.3070663" lon="4.0585599">
<ele>629.66</ele>
<time>2021-06-26T09:03:33Z</time>
</trkpt>
<trkpt lat="47.3069221" lon="4.0582985">
<ele>629.75</ele>
<time>2021-06-26T09:03:38Z</time>
</trkpt>
<trkpt lat="47.3067834" lon="4.0580728">
<ele>630.00</ele>
<time>2021-06-26T09:03:42Z</time>
</trkpt>
<trkpt lat="47.3066464" lon="4.0578411">
<ele>629.20</ele>
<time>2021-06-26T09:03:46Z</time>
</trkpt>
<trkpt lat="47.3064635" lon="4.0576361">
<ele>629.75</ele>
<time>2021-06-26T09:03:51Z</time>
</trkpt>
<trkpt lat="47.3063385" lon="4.0574420">
<ele>630.89</ele>
<time>2021-06-26T09:03:55Z</time>
</trkpt>
<trkpt lat="47.3061926" lon="4.0572117">
<ele>633.78</ele>
<time>2021-06-26T09:04:00Z</time>
</trkpt>
<trkpt lat="47.3061019" lon="4.0569589">
<ele>632.34</ele>
<time>2021-06-26T09:04:04Z</time>
</trkpt>
<trkpt lat="47.3060194" lon="4.0567052">
<ele>633.52</ele>
<time>2021-06-26T09:04:08Z</time>
</trkpt>
<trkpt lat="47.3060228" lon="4.0564136">
<ele>632.40</ele>
<time>2021-06-26T09:04:13Z</time>
</trkpt>
<trkpt lat="47.3059751" lon="4.0561317">
<ele>633.17</ele>
<time>2021-06-26T09:04:33Z</time>
</trkpt>
<trkpt lat="47.3058724" lon="4.0558973">
<ele>630.71</ele>
<time>2021-06-26T09:04:42Z</time>
</trkpt>
<trkpt lat="47.3057667" lon="4.0556599">
<ele>631.67</ele>
<time>2021-06-26T09:04:51Z</time>
</trkpt>
<trkpt lat="47.3057205" lon="4.0553573">
<ele>629.90</ele>
<time>2021-06-26T09:04:59Z</time>
</trkpt>
<trkpt lat="47.3056452" lon="4.0550752">
<ele>629.38</ele>
<time>2021-06-26T09:05:04Z</time>
</trkpt>
<trkpt lat="47.3055685" lon="4.0548057">
<ele>632.21</ele>
<time>2021-06-26T09:05:08Z</time>
</trkpt>
<trkpt lat="47.3054257" lon="4.0546210">
<ele>631.58</ele>
<time>2021-06-26T09:05:12Z</time>
</trkpt>
<trkpt lat="47.3052294" lon="4.0544176">
<ele>632.24</ele>
<time>2021-06-26T09:05:16Z</time>
</trkpt>
<trkpt lat="47.3050727" lon="4.0542170">
<ele>633.79</ele>
<time>2021-06-26T09:05:20Z</time>
</trkpt>
<trkpt lat="47.3049863" lon="4.0539258">
<ele>633.71</ele>
<time>2021-06-26T09:05:25Z</time>
</trkpt>
<trkpt lat="47.3049279" lon="4.0536183">
<ele>630.00</ele>
<time>2021-06-26T09:05:29Z</time>
</trkpt>
<trkpt lat="47.3049416" lon="4.0533437">
<ele>625.82</ele>
<time>2021-06-26T09:05:35Z</time>
</trkpt>
<trkpt lat="47.3050157" lon="4.0530900">
<ele>621.36</ele>
<time>2021-06-26T09:05:43Z</time>
</trkpt>
<trkpt lat="47.3048494" lon="4.0528938">
<ele>620.86</ele>
<time>2021-06-26T09:05:50Z</time>
</trkpt>
<trkpt lat="47.3047251" lon="4.0526375">
<ele>623.05</ele>
<time>2021-06-26T09:05:57Z</time>
</trkpt>
<trkpt lat="47.3046260" lon="4.0523933">
<ele>621.97</ele>
<time>2021-06-26T09:06:02Z</time>
</trkpt>
<trkpt lat="47.3045112" lon="4.0521384">
<ele>622.13</ele>
<time>2021-06-26T09:06:08Z</time>
</trkpt>
<trkpt lat="47.3043728" lon="4.0519396">
<ele>622.19</ele>
<time>2021-06-26T09:06:14Z</time>
</trkpt>
<trkpt lat="47.3042458" lon="4.0517405">
<ele>622.73</ele>
<time>2021-06-26T09:06:19Z</time>
</trkpt>
<trkpt lat="47.3041722" lon="4.0514879">
<ele>621.75</ele>
<time>2021-06-26T09:06:27Z</time>
</trkpt>
<trkpt lat="47.3040114" lon="4.0512993">
<ele>622.00</ele>
<time>2021-06-26T09:06:33Z</time>
</trkpt>
<trkpt lat="47.3038254" lon="4.0511957">
<ele>623.29</ele>
<time>2021-06-26T09:06:38Z</time>
</trkpt>
<trkpt lat="47.3036418" lon="4.0511636">
<ele>624.01</ele>
<time>2021-06-26T09:06:44Z</time>
</trkpt>
<trkpt lat="47.3034407" lon="4.0510827">
<ele>622.17</ele>
<time>2021-06-26T09:06:51Z</time>
</trkpt>
<trkpt lat="47.3032681" lon="4.0509583">
<ele>622.71</ele>
<time>2021-06-26T09:06:57Z</time>
</trkpt>
<trkpt lat="47.3030834" lon="4.0507815">
<ele>624.18</ele>
<time>2021-06-26T09:07:03Z</time>
</trkpt>
<trkpt lat="47.3029095" lon="4.0506348">
<ele>625.84</ele>
<time>2021-06-26T09:07:09Z</time>
</trkpt>
<trkpt lat="47.3027366" lon="4.0505270">
<ele>624.68</ele>
<time>2021-06-26T09:07:15Z</time>
</trkpt>
<trkpt lat="47.3025474" lon="4.0504032">
<ele>627.87</ele>
<time>2021-06-26T09:07:22Z</time>
</trkpt>
<trkpt lat="47.3023374" lon="4.0504422">
<ele>625.51</ele>
<time>2021-06-26T09:07:27Z</time>
</trkpt>
<trkpt lat="47.3021119" lon="4.0504482">
<ele>621.64</ele>
<time>2021-06-26T09:07:32Z</time>
</trkpt>
<trkpt lat="47.3018923" lon="4.0503511">
<ele>620.84</ele>
<time>2021-06-26T09:07:36Z</time>
</trkpt>
<trkpt lat="47.3016790" lon="4.0502386">
<ele>621.67</ele>
<time>2021-06-26T09:07:40Z</time>
</trkpt>
<trkpt lat="47.3014876" lon="4.0501375">
<ele>620.92</ele>
<time>2021-06-26T09:07:46Z</time>
</trkpt>
<trkpt lat="47.3013141" lon="4.0500378">
<ele>621.21</ele>
<time>2021-06-26T09:07:51Z</time>
</trkpt>
<trkpt lat="47.3011689" lon="4.0498768">
<ele>619.51</ele>
<time>2021-06-26T09:07:56Z</time>
</trkpt>
<trkpt lat="47.3010168" lon="4.0497278">
<ele>616.93</ele>
<time>2021-06-26T09:08:03Z</time>
</trkpt>
<trkpt lat="47.3008399" lon="4.0496369">
<ele>619.52</ele>
<time>2021-06-26T09:08:09Z</time>
</trkpt>
<trkpt lat="47.3006287" lon="4.0496567">
<ele>623.66</ele>
<time>2021-06-26T09:08:15Z</time>
</trkpt>
<trkpt lat="47.3003920" lon="4.0496460">
<ele>621.86</ele>
<time>2021-06-26T09:08:20Z</time>
</trkpt>
<trkpt lat="47.3001682" lon="4.0497451">
<ele>615.72</ele>
<time>2021-06-26T09:08:24Z</time>
</trkpt>
<trkpt lat="47.2999853" lon="4.0498196">
<ele>613.77</ele>
<time>2021-06-26T09:08:27Z</time>
</trkpt>
<trkpt lat="47.2998047" lon="4.0498911">
<ele>612.18</ele>
<time>2021-06-26T09:08:30Z</time>
</trkpt>
<trkpt lat="47.2996157" lon="4.0499593">
<ele>612.56</ele>
<time>2021-06-26T09:08:33Z</time>
</trkpt>
<trkpt lat="47.2994463" lon="4.0500607">
<ele>610.01</ele>
<time>2021-06-26T09:08:36Z</time>
</trkpt>
<trkpt lat="47.2992570" lon="4.0501362">
<ele>607.94</ele>
<time>2021-06-26T09:08:39Z</time>
</trkpt>
<trkpt lat="47.2990376" lon="4.0502240">
<ele>606.22</ele>
<time>2021-06-26T09:08:42Z</time>
</trkpt>
<trkpt lat="47.2987927" lon="4.0503032">
<ele>603.57</ele>
<time>2021-06-26T09:08:45Z</time>
</trkpt>
<trkpt lat="47.2985181" lon="4.0503039">
<ele>600.96</ele>
<time>2021-06-26T09:08:48Z</time>
</trkpt>
<trkpt lat="47.2983277" lon="4.0503230">
<ele>599.30</ele>
<time>2021-06-26T09:08:50Z</time>
</trkpt>
<trkpt lat="47.2981167" lon="4.0503652">
<ele>598.12</ele>
<time>2021-06-26T09:08:52Z</time>
</trkpt>
<trkpt lat="47.2979113" lon="4.0504323">
<ele>595.84</ele>
<time>2021-06-26T09:08:54Z</time>
</trkpt>
<trkpt lat="47.2977016" lon="4.0504786">
<ele>593.43</ele>
<time>2021-06-26T09:08:56Z</time>
</trkpt>
<trkpt lat="47.2974787" lon="4.0504916">
<ele>592.46</ele>
<time>2021-06-26T09:08:58Z</time>
</trkpt>
<trkpt lat="47.2972658" lon="4.0504824">
<ele>592.39</ele>
<time>2021-06-26T09:09:00Z</time>
</trkpt>
<trkpt lat="47.2970495" lon="4.0504552">
<ele>593.07</ele>
<time>2021-06-26T09:09:02Z</time>
</trkpt>
<trkpt lat="47.2968283" lon="4.0504531">
<ele>591.60</ele>
<time>2021-06-26T09:09:04Z</time>
</trkpt>
<trkpt lat="47.2966158" lon="4.0504335">
<ele>590.84</ele>
<time>2021-06-26T09:09:06Z</time>
</trkpt>
<trkpt lat="47.2964107" lon="4.0504335">
<ele>589.25</ele>
<time>2021-06-26T09:09:08Z</time>
</trkpt>
<trkpt lat="47.2961701" lon="4.0504366">
<ele>587.86</ele>
<time>2021-06-26T09:09:11Z</time>
</trkpt>
<trkpt lat="47.2959890" lon="4.0505082">
<ele>589.96</ele>
<time>2021-06-26T09:09:17Z</time>
</trkpt>
<trkpt lat="47.2961555" lon="4.0503385">
<ele>590.19</ele>
<time>2021-06-26T09:09:32Z</time>
</trkpt>
<trkpt lat="47.2962369" lon="4.0500961">
<ele>590.41</ele>
<time>2021-06-26T09:09:37Z</time>
</trkpt>
<trkpt lat="47.2963297" lon="4.0498227">
<ele>587.81</ele>
<time>2021-06-26T09:09:42Z</time>
</trkpt>
<trkpt lat="47.2964030" lon="4.0495632">
<ele>587.89</ele>
<time>2021-06-26T09:09:48Z</time>
</trkpt>
<trkpt lat="47.2964760" lon="4.0492741">
<ele>584.67</ele>
<time>2021-06-26T09:09:52Z</time>
</trkpt>
<trkpt lat="47.2965099" lon="4.0489490">
<ele>583.85</ele>
<time>2021-06-26T09:09:55Z</time>
</trkpt>
<trkpt lat="47.2965220" lon="4.0486293">
<ele>581.98</ele>
<time>2021-06-26T09:09:58Z</time>
</trkpt>
<trkpt lat="47.2964519" lon="4.0483681">
<ele>585.01</ele>
<time>2021-06-26T09:10:01Z</time>
</trkpt>
<trkpt lat="47.2964207" lon="4.0480470">
<ele>584.43</ele>
<time>2021-06-26T09:10:06Z</time>
</trkpt>
<trkpt lat="47.2962591" lon="4.0478450">
<ele>585.37</ele>
<time>2021-06-26T09:10:10Z</time>
</trkpt>
<trkpt lat="47.2961067" lon="4.0477029">
<ele>582.19</ele>
<time>2021-06-26T09:10:14Z</time>
</trkpt>
<trkpt lat="47.2959071" lon="4.0475474">
<ele>577.61</ele>
<time>2021-06-26T09:10:19Z</time>
</trkpt>
<trkpt lat="47.2957124" lon="4.0473902">
<ele>578.55</ele>
<time>2021-06-26T09:10:25Z</time>
</trkpt>
<trkpt lat="47.2955735" lon="4.0471920">
<ele>574.83</ele>
<time>2021-06-26T09:10:29Z</time>
</trkpt>
<trkpt lat="47.2954012" lon="4.0471032">
<ele>576.84</ele>
<time>2021-06-26T09:10:33Z</time>
</trkpt>
<trkpt lat="47.2952228" lon="4.0469832">
<ele>577.10</ele>
<time>2021-06-26T09:10:36Z</time>
</trkpt>
<trkpt lat="47.2950090" lon="4.0468529">
<ele>576.03</ele>
<time>2021-06-26T09:10:39Z</time>
</trkpt>
<trkpt lat="47.2948543" lon="4.0466310">
<ele>576.67</ele>
<time>2021-06-26T09:10:43Z</time>
</trkpt>
<trkpt lat="47.2947390" lon="4.0464191">
<ele>575.59</ele>
<time>2021-06-26T09:10:46Z</time>
</trkpt>
<trkpt lat="47.2947151" lon="4.0461512">
<ele>573.40</ele>
<time>2021-06-26T09:10:51Z</time>
</trkpt>
<trkpt lat="47.2946121" lon="4.0459037">
<ele>571.15</ele>
<time>2021-06-26T09:10:55Z</time>
</trkpt>
<trkpt lat="47.2946206" lon="4.0455980">
<ele>567.75</ele>
<time>2021-06-26T09:11:00Z</time>
</trkpt>
<trkpt lat="47.2947446" lon="4.0453998">
<ele>566.96</ele>
<time>2021-06-26T09:11:05Z</time>
</trkpt>
<trkpt lat="47.2947000" lon="4.0451072">
<ele>564.21</ele>
<time>2021-06-26T09:11:10Z</time>
</trkpt>
<trkpt lat="47.2948286" lon="4.0448624">
<ele>562.45</ele>
<time>2021-06-26T09:11:15Z</time>
</trkpt>
<trkpt lat="47.2949148" lon="4.0446195">
<ele>556.33</ele>
<time>2021-06-26T09:11:20Z</time>
</trkpt>
<trkpt lat="47.2950205" lon="4.0443997">
<ele>553.91</ele>
<time>2021-06-26T09:11:23Z</time>
</trkpt>
<trkpt lat="47.2950640" lon="4.0441256">
<ele>551.07</ele>
<time>2021-06-26T09:11:26Z</time>
</trkpt>
<trkpt lat="47.2950401" lon="4.0438475">
<ele>552.87</ele>
<time>2021-06-26T09:11:30Z</time>
</trkpt>
<trkpt lat="47.2950831" lon="4.0435621">
<ele>550.17</ele>
<time>2021-06-26T09:11:36Z</time>
</trkpt>
<trkpt lat="47.2952108" lon="4.0433428">
<ele>551.06</ele>
<time>2021-06-26T09:11:42Z</time>
</trkpt>
<trkpt lat="47.2951919" lon="4.0430705">
<ele>548.47</ele>
<time>2021-06-26T09:11:47Z</time>
</trkpt>
<trkpt lat="47.2950963" lon="4.0428273">
<ele>548.53</ele>
<time>2021-06-26T09:11:52Z</time>
</trkpt>
<trkpt lat="47.2951354" lon="4.0425146">
<ele>543.90</ele>
<time>2021-06-26T09:11:58Z</time>
</trkpt>
<trkpt lat="47.2951100" lon="4.0421559">
<ele>542.13</ele>
<time>2021-06-26T09:12:01Z</time>
</trkpt>
<trkpt lat="47.2950425" lon="4.0418766">
<ele>540.80</ele>
<time>2021-06-26T09:12:03Z</time>
</trkpt>
<trkpt lat="47.2950871" lon="4.0415955">
<ele>539.73</ele>
<time>2021-06-26T09:12:06Z</time>
</trkpt>
<trkpt lat="47.2951527" lon="4.0412593">
<ele>535.29</ele>
<time>2021-06-26T09:12:09Z</time>
</trkpt>
<trkpt lat="47.2952627" lon="4.0409839">
<ele>535.20</ele>
<time>2021-06-26T09:12:12Z</time>
</trkpt>
<trkpt lat="47.2953195" lon="4.0407071">
<ele>533.15</ele>
<time>2021-06-26T09:12:15Z</time>
</trkpt>
<trkpt lat="47.2953618" lon="4.0404112">
<ele>527.36</ele>
<time>2021-06-26T09:12:18Z</time>
</trkpt>
<trkpt lat="47.2954196" lon="4.0400697">
<ele>520.44</ele>
<time>2021-06-26T09:12:21Z</time>
</trkpt>
<trkpt lat="47.2954812" lon="4.0397723">
<ele>512.12</ele>
<time>2021-06-26T09:12:25Z</time>
</trkpt>
<trkpt lat="47.2954486" lon="4.0394683">
<ele>507.00</ele>
<time>2021-06-26T09:12:29Z</time>
</trkpt>
<trkpt lat="47.2953875" lon="4.0392004">
<ele>504.92</ele>
<time>2021-06-26T09:12:33Z</time>
</trkpt>
<trkpt lat="47.2952473" lon="4.0389738">
<ele>506.88</ele>
<time>2021-06-26T09:12:37Z</time>
</trkpt>
<trkpt lat="47.2950857" lon="4.0387736">
<ele>508.42</ele>
<time>2021-06-26T09:12:42Z</time>
</trkpt>
<trkpt lat="47.2949215" lon="4.0386600">
<ele>510.71</ele>
<time>2021-06-26T09:12:47Z</time>
</trkpt>
<trkpt lat="47.2947581" lon="4.0385422">
<ele>512.71</ele>
<time>2021-06-26T09:12:53Z</time>
</trkpt>
<trkpt lat="47.2946692" lon="4.0382907">
<ele>515.57</ele>
<time>2021-06-26T09:12:59Z</time>
</trkpt>
<trkpt lat="47.2945900" lon="4.0380027">
<ele>517.33</ele>
<time>2021-06-26T09:13:05Z</time>
</trkpt>
<trkpt lat="47.2945581" lon="4.0377365">
<ele>518.72</ele>
<time>2021-06-26T09:13:11Z</time>
</trkpt>
<trkpt lat="47.2945898" lon="4.0374408">
<ele>518.43</ele>
<time>2021-06-26T09:13:19Z</time>
</trkpt>
<trkpt lat="47.2947193" lon="4.0372239">
<ele>516.71</ele>
<time>2021-06-26T09:13:27Z</time>
</trkpt>
<trkpt lat="47.2948882" lon="4.0370508">
<ele>518.55</ele>
<time>2021-06-26T09:14:07Z</time>
</trkpt>
<trkpt lat="47.2950294" lon="4.0368396">
<ele>515.55</ele>
<time>2021-06-26T09:14:12Z</time>
</trkpt>
<trkpt lat="47.2951811" lon="4.0366641">
<ele>512.91</ele>
<time>2021-06-26T09:14:17Z</time>
</trkpt>
<trkpt lat="47.2953015" lon="4.0364615">
<ele>509.43</ele>
<time>2021-06-26T09:14:21Z</time>
</trkpt>
<trkpt lat="47.2954844" lon="4.0362907">
<ele>507.30</ele>
<time>2021-06-26T09:14:25Z</time>
</trkpt>
<trkpt lat="47.2956471" lon="4.0361490">
<ele>505.22</ele>
<time>2021-06-26T09:14:28Z</time>
</trkpt>
<trkpt lat="47.2958278" lon="4.0359337">
<ele>502.33</ele>
<time>2021-06-26T09:14:32Z</time>
</trkpt>
<trkpt lat="47.2959890" lon="4.0358043">
<ele>500.81</ele>
<time>2021-06-26T09:14:35Z</time>
</trkpt>
<trkpt lat="47.2960699" lon="4.0355618">
<ele>499.30</ele>
<time>2021-06-26T09:14:56Z</time>
</trkpt>
<trkpt lat="47.2961304" lon="4.0352389">
<ele>496.74</ele>
<time>2021-06-26T09:15:01Z</time>
</trkpt>
<trkpt lat="47.2962137" lon="4.0349660">
<ele>494.65</ele>
<time>2021-06-26T09:15:06Z</time>
</trkpt>
<trkpt lat="47.2962389" lon="4.0346608">
<ele>490.48</ele>
<time>2021-06-26T09:15:11Z</time>
</trkpt>
<trkpt lat="47.2962019" lon="4.0343695">
<ele>490.68</ele>
<time>2021-06-26T09:15:15Z</time>
</trkpt>
<trkpt lat="47.2962187" lon="4.0340985">
<ele>489.33</ele>
<time>2021-06-26T09:15:20Z</time>
</trkpt>
<trkpt lat="47.2961534" lon="4.0338058">
<ele>484.37</ele>
<time>2021-06-26T09:15:24Z</time>
</trkpt>
<trkpt lat="47.2960421" lon="4.0335173">
<ele>481.66</ele>
<time>2021-06-26T09:15:29Z</time>
</trkpt>
<trkpt lat="47.2959529" lon="4.0332626">
<ele>480.60</ele>
<time>2021-06-26T09:15:33Z</time>
</trkpt>
<trkpt lat="47.2958246" lon="4.0330276">
<ele>478.23</ele>
<time>2021-06-26T09:15:38Z</time>
</trkpt>
<trkpt lat="47.2956854" lon="4.0328292">
<ele>474.54</ele>
<time>2021-06-26T09:15:44Z</time>
</trkpt>
<trkpt lat="47.2956332" lon="4.0325499">
<ele>471.03</ele>
<time>2021-06-26T09:16:48Z</time>
</trkpt>
<trkpt lat="47.2956025" lon="4.0322627">
<ele>466.85</ele>
<time>2021-06-26T09:16:54Z</time>
</trkpt>
<trkpt lat="47.2956206" lon="4.0319548">
<ele>464.75</ele>
<time>2021-06-26T09:17:00Z</time>
</trkpt>
<trkpt lat="47.2957652" lon="4.0317510">
<ele>463.65</ele>
<time>2021-06-26T09:17:04Z</time>
</trkpt>
<trkpt lat="47.2959169" lon="4.0315932">
<ele>460.78</ele>
<time>2021-06-26T09:17:08Z</time>
</trkpt>
<trkpt lat="47.2960809" lon="4.0314123">
<ele>458.72</ele>
<time>2021-06-26T09:17:12Z</time>
</trkpt>
<trkpt lat="47.2962699" lon="4.0312875">
<ele>457.41</ele>
<time>2021-06-26T09:17:16Z</time>
</trkpt>
<trkpt lat="47.2964628" lon="4.0311922">
<ele>455.72</ele>
<time>2021-06-26T09:17:20Z</time>
</trkpt>
<trkpt lat="47.2962843" lon="4.0310125">
<ele>447.17</ele>
<time>2021-06-26T09:17:39Z</time>
</trkpt>
<trkpt lat="47.2960703" lon="4.0309997">
<ele>445.36</ele>
<time>2021-06-26T09:17:43Z</time>
</trkpt>
<trkpt lat="47.2958391" lon="4.0310594">
<ele>444.74</ele>
<time>2021-06-26T09:17:47Z</time>
</trkpt>
<trkpt lat="47.2956390" lon="4.0311472">
<ele>441.58</ele>
<time>2021-06-26T09:17:50Z</time>
</trkpt>
<trkpt lat="47.2954433" lon="4.0312798">
<ele>440.11</ele>
<time>2021-06-26T09:17:53Z</time>
</trkpt>
<trkpt lat="47.2952904" lon="4.0315008">
<ele>437.03</ele>
<time>2021-06-26T09:17:56Z</time>
</trkpt>
<trkpt lat="47.2951510" lon="4.0317852">
<ele>435.04</ele>
<time>2021-06-26T09:17:59Z</time>
</trkpt>
<trkpt lat="47.2950312" lon="4.0321204">
<ele>433.79</ele>
<time>2021-06-26T09:18:02Z</time>
</trkpt>
<trkpt lat="47.2949288" lon="4.0324300">
<ele>432.92</ele>
<time>2021-06-26T09:18:05Z</time>
</trkpt>
<trkpt lat="47.2947841" lon="4.0326367">
<ele>432.82</ele>
<time>2021-06-26T09:18:08Z</time>
</trkpt>
<trkpt lat="47.2946020" lon="4.0326240">
<ele>429.62</ele>
<time>2021-06-26T09:18:14Z</time>
</trkpt>
<trkpt lat="47.2945061" lon="4.0323850">
<ele>430.17</ele>
<time>2021-06-26T09:18:58Z</time>
</trkpt>
<trkpt lat="47.2944397" lon="4.0321272">
<ele>430.19</ele>
<time>2021-06-26T09:19:04Z</time>
</trkpt>
<trkpt lat="47.2943655" lon="4.0318391">
<ele>430.58</ele>
<time>2021-06-26T09:19:10Z</time>
</trkpt>
<trkpt lat="47.2942674" lon="4.0315850">
<ele>431.56</ele>
<time>2021-06-26T09:19:17Z</time>
</trkpt>
<trkpt lat="47.2941921" lon="4.0313042">
<ele>434.66</ele>
<time>2021-06-26T09:19:25Z</time>
</trkpt>
<trkpt lat="47.2941115" lon="4.0310547">
<ele>436.78</ele>
<time>2021-06-26T09:19:30Z</time>
</trkpt>
<trkpt lat="47.2940482" lon="4.0307736">
<ele>439.52</ele>
<time>2021-06-26T09:19:36Z</time>
</trkpt>
<trkpt lat="47.2940435" lon="4.0304776">
<ele>438.55</ele>
<time>2021-06-26T09:19:42Z</time>
</trkpt>
<trkpt lat="47.2940178" lon="4.0301645">
<ele>435.69</ele>
<time>2021-06-26T09:19:46Z</time>
</trkpt>
<trkpt lat="47.2940246" lon="4.0298761">
<ele>435.22</ele>
<time>2021-06-26T09:19:49Z</time>
</trkpt>
<trkpt lat="47.2939811" lon="4.0296171">
<ele>434.80</ele>
<time>2021-06-26T09:19:51Z</time>
</trkpt>
<trkpt lat="47.2940419" lon="4.0293034">
<ele>435.18</ele>
<time>2021-06-26T09:19:54Z</time>
</trkpt>
<trkpt lat="47.2941362" lon="4.0290644">
<ele>434.89</ele>
<time>2021-06-26T09:19:57Z</time>
</trkpt>
<trkpt lat="47.2942656" lon="4.0287892">
<ele>434.85</ele>
<time>2021-06-26T09:20:01Z</time>
</trkpt>
<trkpt lat="47.2944456" lon="4.0286350">
<ele>436.94</ele>
<time>2021-06-26T09:20:06Z</time>
</trkpt>
<trkpt lat="47.2946012" lon="4.0284544">
<ele>434.81</ele>
<time>2021-06-26T09:20:15Z</time>
</trkpt>
<trkpt lat="47.2947218" lon="4.0282093">
<ele>435.26</ele>
<time>2021-06-26T09:20:25Z</time>
</trkpt>
<trkpt lat="47.2949006" lon="4.0280654">
<ele>437.85</ele>
<time>2021-06-26T09:20:31Z</time>
</trkpt>
<trkpt lat="47.2950116" lon="4.0278098">
<ele>439.22</ele>
<time>2021-06-26T09:20:37Z</time>
</trkpt>
<trkpt lat="47.2951008" lon="4.0275548">
<ele>439.50</ele>
<time>2021-06-26T09:20:42Z</time>
</trkpt>
<trkpt lat="47.2952107" lon="4.0273038">
<ele>441.41</ele>
<time>2021-06-26T09:20:49Z</time>
</trkpt>
<trkpt lat="47.2953003" lon="4.0270418">
<ele>444.49</ele>
<time>2021-06-26T09:20:56Z</time>
</trkpt>
<trkpt lat="47.2953500" lon="4.0267736">
<ele>444.50</ele>
<time>2021-06-26T09:21:02Z</time>
</trkpt>
<trkpt lat="47.2953550" lon="4.0264705">
<ele>442.43</ele>
<time>2021-06-26T09:21:09Z</time>
</trkpt>
<trkpt lat="47.2953119" lon="4.0261846">
<ele>443.34</ele>
<time>2021-06-26T09:21:15Z</time>
</trkpt>
<trkpt lat="47.2952413" lon="4.0259285">
<ele>447.23</ele>
<time>2021-06-26T09:21:22Z</time>
</trkpt>
<trkpt lat="47.2950929" lon="4.0257159">
<ele>447.55</ele>
<time>2021-06-26T09:21:30Z</time>
</trkpt>
<trkpt lat="47.2949520" lon="4.0255197">
<ele>452.17</ele>
<time>2021-06-26T09:21:37Z</time>
</trkpt>
<trkpt lat="47.2947984" lon="4.0253473">
<ele>452.26</ele>
<time>2021-06-26T09:21:44Z</time>
</trkpt>
<trkpt lat="47.2946876" lon="4.0251200">
<ele>452.14</ele>
<time>2021-06-26T09:21:49Z</time>
</trkpt>
<trkpt lat="47.2945685" lon="4.0249024">
<ele>448.43</ele>
<time>2021-06-26T09:21:53Z</time>
</trkpt>
<trkpt lat="47.2944408" lon="4.0246860">
<ele>446.71</ele>
<time>2021-06-26T09:21:59Z</time>
</trkpt>
<trkpt lat="47.2942798" lon="4.0245311">
<ele>447.19</ele>
<time>2021-06-26T09:22:07Z</time>
</trkpt>
<trkpt lat="47.2941423" lon="4.0243473">
<ele>448.10</ele>
<time>2021-06-26T09:22:17Z</time>
</trkpt>
<trkpt lat="47.2940086" lon="4.0241349">
<ele>447.84</ele>
<time>2021-06-26T09:22:23Z</time>
</trkpt>
<trkpt lat="47.2939470" lon="4.0238712">
<ele>446.65</ele>
<time>2021-06-26T09:22:27Z</time>
</trkpt>
<trkpt lat="47.2938513" lon="4.0236046">
<ele>445.72</ele>
<time>2021-06-26T09:22:31Z</time>
</trkpt>
<trkpt lat="47.2937769" lon="4.0233297">
<ele>444.40</ele>
<time>2021-06-26T09:22:35Z</time>
</trkpt>
<trkpt lat="47.2937273" lon="4.0230730">
<ele>444.65</ele>
<time>2021-06-26T09:22:41Z</time>
</trkpt>
<trkpt lat="47.2936384" lon="4.0228259">
<ele>443.76</ele>
<time>2021-06-26T09:22:53Z</time>
</trkpt>
<trkpt lat="47.2935154" lon="4.0225897">
<ele>443.40</ele>
<time>2021-06-26T09:23:01Z</time>
</trkpt>
<trkpt lat="47.2933785" lon="4.0224132">
<ele>445.91</ele>
<time>2021-06-26T09:23:07Z</time>
</trkpt>
<trkpt lat="47.2931818" lon="4.0223393">
<ele>448.79</ele>
<time>2021-06-26T09:23:14Z</time>
</trkpt>
<trkpt lat="47.2929985" lon="4.0222564">
<ele>448.74</ele>
<time>2021-06-26T09:23:21Z</time>
</trkpt>
<trkpt lat="47.2929098" lon="4.0220116">
<ele>448.91</ele>
<time>2021-06-26T09:23:30Z</time>
</trkpt>
<trkpt lat="47.2927826" lon="4.0217942">
<ele>451.23</ele>
<time>2021-06-26T09:23:40Z</time>
</trkpt>
<trkpt lat="47.2926318" lon="4.0220018">
<ele>455.08</ele>
<time>2021-06-26T09:23:49Z</time>
</trkpt>
<trkpt lat="47.2924950" lon="4.0221994">
<ele>455.68</ele>
<time>2021-06-26T09:23:55Z</time>
</trkpt>
<trkpt lat="47.2923516" lon="4.0223937">
<ele>456.34</ele>
<time>2021-06-26T09:24:02Z</time>
</trkpt>
<trkpt lat="47.2921900" lon="4.0225170">
<ele>459.00</ele>
<time>2021-06-26T09:24:10Z</time>
</trkpt>
<trkpt lat="47.2920034" lon="4.0225618">
<ele>460.37</ele>
<time>2021-06-26T09:24:18Z</time>
</trkpt>
<trkpt lat="47.2918004" lon="4.0226340">
<ele>461.02</ele>
<time>2021-06-26T09:24:25Z</time>
</trkpt>
<trkpt lat="47.2916026" lon="4.0225637">
<ele>461.69</ele>
<time>2021-06-26T09:24:32Z</time>
</trkpt>
<trkpt lat="47.2914263" lon="4.0224654">
<ele>463.08</ele>
<time>2021-06-26T09:24:39Z</time>
</trkpt>
<trkpt lat="47.2912600" lon="4.0223259">
<ele>465.63</ele>
<time>2021-06-26T09:24:47Z</time>
</trkpt>
<trkpt lat="47.2910847" lon="4.0222080">
<ele>468.62</ele>
<time>2021-06-26T09:24:55Z</time>
</trkpt>
<trkpt lat="47.2909065" lon="4.0220998">
<ele>471.06</ele>
<time>2021-06-26T09:25:03Z</time>
</trkpt>
<trkpt lat="47.2907294" lon="4.0220339">
<ele>473.59</ele>
<time>2021-06-26T09:25:11Z</time>
</trkpt>
<trkpt lat="47.2908085" lon="4.0217610">
<ele>474.50</ele>
<time>2021-06-26T09:25:29Z</time>
</trkpt>
<trkpt lat="47.2908803" lon="4.0214668">
<ele>473.25</ele>
<time>2021-06-26T09:25:34Z</time>
</trkpt>
<trkpt lat="47.2909345" lon="4.0211803">
<ele>471.54</ele>
<time>2021-06-26T09:25:40Z</time>
</trkpt>
<trkpt lat="47.2909941" lon="4.0209063">
<ele>469.76</ele>
<time>2021-06-26T09:25:42Z</time>
</trkpt>
<trkpt lat="47.2910523" lon="4.0205886">
<ele>468.27</ele>
<time>2021-06-26T09:25:44Z</time>
</trkpt>
<trkpt lat="47.2910524" lon="4.0202418">
<ele>467.15</ele>
<time>2021-06-26T09:25:47Z</time>
</trkpt>
<trkpt lat="47.2911107" lon="4.0199290">
<ele>465.14</ele>
<time>2021-06-26T09:25:50Z</time>
</trkpt>
<trkpt lat="47.2912910" lon="4.0196876">
<ele>463.89</ele>
<time>2021-06-26T09:25:53Z</time>
</trkpt>
<trkpt lat="47.2914660" lon="4.0194467">
<ele>463.95</ele>
<time>2021-06-26T09:25:56Z</time>
</trkpt>
<trkpt lat="47.2916694" lon="4.0192571">
<ele>464.22</ele>
<time>2021-06-26T09:25:59Z</time>
</trkpt>
<trkpt lat="47.2918617" lon="4.0191353">
<ele>463.72</ele>
<time>2021-06-26T09:26:02Z</time>
</trkpt>
<trkpt lat="47.2920463" lon="4.0190680">
<ele>463.71</ele>
<time>2021-06-26T09:26:05Z</time>
</trkpt>
<trkpt lat="47.2922840" lon="4.0190428">
<ele>463.90</ele>
<time>2021-06-26T09:26:09Z</time>
</trkpt>
<trkpt lat="47.2924709" lon="4.0191142">
<ele>464.38</ele>
<time>2021-06-26T09:26:12Z</time>
</trkpt>
<trkpt lat="47.2926868" lon="4.0191655">
<ele>465.10</ele>
<time>2021-06-26T09:26:16Z</time>
</trkpt>
<trkpt lat="47.2928812" lon="4.0191008">
<ele>464.08</ele>
<time>2021-06-26T09:26:20Z</time>
</trkpt>
<trkpt lat="47.2930929" lon="4.0190491">
<ele>463.43</ele>
<time>2021-06-26T09:26:24Z</time>
</trkpt>
<trkpt lat="47.2932900" lon="4.0189457">
<ele>466.56</ele>
<time>2021-06-26T09:26:29Z</time>
</trkpt>
<trkpt lat="47.2934607" lon="4.0187942">
<ele>466.87</ele>
<time>2021-06-26T09:26:35Z</time>
</trkpt>
<trkpt lat="47.2936373" lon="4.0186661">
<ele>468.28</ele>
<time>2021-06-26T09:26:41Z</time>
</trkpt>
<trkpt lat="47.2937961" lon="4.0185061">
<ele>467.21</ele>
<time>2021-06-26T09:26:48Z</time>
</trkpt>
<trkpt lat="47.2939715" lon="4.0183696">
<ele>466.70</ele>
<time>2021-06-26T09:26:53Z</time>
</trkpt>
<trkpt lat="47.2941436" lon="4.0182727">
<ele>467.29</ele>
<time>2021-06-26T09:26:58Z</time>
</trkpt>
<trkpt lat="47.2943508" lon="4.0181586">
<ele>465.06</ele>
<time>2021-06-26T09:27:02Z</time>
</trkpt>
<trkpt lat="47.2945306" lon="4.0179874">
<ele>466.27</ele>
<time>2021-06-26T09:27:05Z</time>
</trkpt>
<trkpt lat="47.2947820" lon="4.0179173">
<ele>464.81</ele>
<time>2021-06-26T09:27:08Z</time>
</trkpt>
<trkpt lat="47.2950275" lon="4.0178562">
<ele>465.81</ele>
<time>2021-06-26T09:27:11Z</time>
</trkpt>
<trkpt lat="47.2952128" lon="4.0178168">
<ele>463.69</ele>
<time>2021-06-26T09:27:14Z</time>
</trkpt>
<trkpt lat="47.2954142" lon="4.0177754">
<ele>461.52</ele>
<time>2021-06-26T09:27:18Z</time>
</trkpt>
<trkpt lat="47.2955676" lon="4.0176336">
<ele>464.40</ele>
<time>2021-06-26T09:27:24Z</time>
</trkpt>
<trkpt lat="47.2956823" lon="4.0174105">
<ele>464.69</ele>
<time>2021-06-26T09:27:31Z</time>
</trkpt>
<trkpt lat="47.2958547" lon="4.0173308">
<ele>467.38</ele>
<time>2021-06-26T09:27:36Z</time>
</trkpt>
<trkpt lat="47.2960294" lon="4.0172665">
<ele>467.79</ele>
<time>2021-06-26T09:27:41Z</time>
</trkpt>
<trkpt lat="47.2962089" lon="4.0171948">
<ele>470.75</ele>
<time>2021-06-26T09:27:48Z</time>
</trkpt>
<trkpt lat="47.2964086" lon="4.0171158">
<ele>473.95</ele>
<time>2021-06-26T09:27:57Z</time>
</trkpt>
<trkpt lat="47.2966052" lon="4.0170500">
<ele>474.59</ele>
<time>2021-06-26T09:28:03Z</time>
</trkpt>
<trkpt lat="47.2967960" lon="4.0169385">
<ele>474.17</ele>
<time>2021-06-26T09:28:08Z</time>
</trkpt>
<trkpt lat="47.2969932" lon="4.0168681">
<ele>473.42</ele>
<time>2021-06-26T09:28:13Z</time>
</trkpt>
<trkpt lat="47.2972169" lon="4.0168565">
<ele>476.82</ele>
<time>2021-06-26T09:28:18Z</time>
</trkpt>
<trkpt lat="47.2974066" lon="4.0168582">
<ele>478.34</ele>
<time>2021-06-26T09:28:24Z</time>
</trkpt>
<trkpt lat="47.2975916" lon="4.0168612">
<ele>479.95</ele>
<time>2021-06-26T09:28:29Z</time>
</trkpt>
<trkpt lat="47.2977832" lon="4.0168833">
<ele>480.51</ele>
<time>2021-06-26T09:28:35Z</time>
</trkpt>
<trkpt lat="47.2979849" lon="4.0168628">
<ele>482.77</ele>
<time>2021-06-26T09:28:42Z</time>
</trkpt>
<trkpt lat="47.2981814" lon="4.0168703">
<ele>484.91</ele>
<time>2021-06-26T09:28:50Z</time>
</trkpt>
<trkpt lat="47.2983661" lon="4.0168124">
<ele>485.45</ele>
<time>2021-06-26T09:29:00Z</time>
</trkpt>
<trkpt lat="47.2985547" lon="4.0168068">
<ele>484.42</ele>
<time>2021-06-26T09:29:09Z</time>
</trkpt>
<trkpt lat="47.2987392" lon="4.0168445">
<ele>487.18</ele>
<time>2021-06-26T09:29:15Z</time>
</trkpt>
<trkpt lat="47.2989408" lon="4.0168001">
<ele>490.77</ele>
<time>2021-06-26T09:29:22Z</time>
</trkpt>
<trkpt lat="47.2991168" lon="4.0167219">
<ele>490.91</ele>
<time>2021-06-26T09:29:31Z</time>
</trkpt>
<trkpt lat="47.2992896" lon="4.0165966">
<ele>490.01</ele>
<time>2021-06-26T09:29:39Z</time>
</trkpt>
<trkpt lat="47.2994278" lon="4.0164179">
<ele>485.51</ele>
<time>2021-06-26T09:29:48Z</time>
</trkpt>
<trkpt lat="47.2995643" lon="4.0162345">
<ele>486.54</ele>
<time>2021-06-26T09:29:57Z</time>
</trkpt>
<trkpt lat="47.2997182" lon="4.0160933">
<ele>496.55</ele>
<time>2021-06-26T09:30:12Z</time>
</trkpt>
<trkpt lat="47.2998671" lon="4.0159369">
<ele>496.08</ele>
<time>2021-06-26T09:30:31Z</time>
</trkpt>
<trkpt lat="47.3000078" lon="4.0157233">
<ele>486.55</ele>
<time>2021-06-26T09:32:58Z</time>
</trkpt>
<trkpt lat="47.3001632" lon="4.0155544">
<ele>484.27</ele>
<time>2021-06-26T09:33:03Z</time>
</trkpt>
<trkpt lat="47.3002986" lon="4.0153538">
<ele>483.18</ele>
<time>2021-06-26T09:33:08Z</time>
</trkpt>
<trkpt lat="47.3003268" lon="4.0150496">
<ele>483.31</ele>
<time>2021-06-26T09:33:15Z</time>
</trkpt>
<trkpt lat="47.3002305" lon="4.0148171">
<ele>483.93</ele>
<time>2021-06-26T09:33:22Z</time>
</trkpt>
<trkpt lat="47.3000341" lon="4.0147344">
<ele>484.39</ele>
<time>2021-06-26T09:33:29Z</time>
</trkpt>
<trkpt lat="47.2998242" lon="4.0146955">
<ele>483.41</ele>
<time>2021-06-26T09:33:34Z</time>
</trkpt>
<trkpt lat="47.2996283" lon="4.0146819">
<ele>483.88</ele>
<time>2021-06-26T09:33:40Z</time>
</trkpt>
<trkpt lat="47.2994430" lon="4.0146184">
<ele>486.32</ele>
<time>2021-06-26T09:33:45Z</time>
</trkpt>
<trkpt lat="47.2992714" lon="4.0145045">
<ele>487.60</ele>
<time>2021-06-26T09:33:51Z</time>
</trkpt>
<trkpt lat="47.2991029" lon="4.0143808">
<ele>490.19</ele>
<time>2021-06-26T09:34:00Z</time>
</trkpt>
<trkpt lat="47.2989309" lon="4.0142596">
<ele>491.52</ele>
<time>2021-06-26T09:34:07Z</time>
</trkpt>
<trkpt lat="47.2987664" lon="4.0140997">
<ele>489.08</ele>
<time>2021-06-26T09:34:15Z</time>
</trkpt>
<trkpt lat="47.2985931" lon="4.0139867">
<ele>490.48</ele>
<time>2021-06-26T09:34:23Z</time>
</trkpt>
<trkpt lat="47.2984140" lon="4.0138237">
<ele>490.12</ele>
<time>2021-06-26T09:34:30Z</time>
</trkpt>
<trkpt lat="47.2982455" lon="4.0137041">
<ele>490.63</ele>
<time>2021-06-26T09:34:36Z</time>
</trkpt>
<trkpt lat="47.2984100" lon="4.0138175">
<ele>491.71</ele>
<time>2021-06-26T09:34:52Z</time>
</trkpt>
<trkpt lat="47.2985657" lon="4.0139807">
<ele>490.73</ele>
<time>2021-06-26T09:34:58Z</time>
</trkpt>
<trkpt lat="47.2987423" lon="4.0141193">
<ele>492.05</ele>
<time>2021-06-26T09:35:03Z</time>
</trkpt>
<trkpt lat="47.2989287" lon="4.0142767">
<ele>489.12</ele>
<time>2021-06-26T09:35:09Z</time>
</trkpt>
<trkpt lat="47.2991202" lon="4.0143728">
<ele>489.27</ele>
<time>2021-06-26T09:35:13Z</time>
</trkpt>
<trkpt lat="47.2993079" lon="4.0144232">
<ele>489.46</ele>
<time>2021-06-26T09:35:16Z</time>
</trkpt>
<trkpt lat="47.2994625" lon="4.0146183">
<ele>488.71</ele>
<time>2021-06-26T09:35:31Z</time>
</trkpt>
<trkpt lat="47.2996453" lon="4.0146484">
<ele>489.53</ele>
<time>2021-06-26T09:35:37Z</time>
</trkpt>
<trkpt lat="47.2998500" lon="4.0146662">
<ele>488.56</ele>
<time>2021-06-26T09:35:43Z</time>
</trkpt>
<trkpt lat="47.3000673" lon="4.0147689">
<ele>486.69</ele>
<time>2021-06-26T09:35:50Z</time>
</trkpt>
<trkpt lat="47.3002870" lon="4.0147645">
<ele>487.50</ele>
<time>2021-06-26T09:35:55Z</time>
</trkpt>
<trkpt lat="47.3002893" lon="4.0144695">
<ele>486.14</ele>
<time>2021-06-26T09:36:05Z</time>
</trkpt>
<trkpt lat="47.3001562" lon="4.0142741">
<ele>485.41</ele>
<time>2021-06-26T09:36:09Z</time>
</trkpt>
<trkpt lat="47.2999678" lon="4.0140414">
<ele>485.12</ele>
<time>2021-06-26T09:36:11Z</time>
</trkpt>
<trkpt lat="47.2998108" lon="4.0138234">
<ele>485.29</ele>
<time>2021-06-26T09:36:16Z</time>
</trkpt>
<trkpt lat="47.2996697" lon="4.0135061">
<ele>482.16</ele>
<time>2021-06-26T09:36:23Z</time>
</trkpt>
<trkpt lat="47.2995196" lon="4.0132740">
<ele>476.98</ele>
<time>2021-06-26T09:36:24Z</time>
</trkpt>
<trkpt lat="47.2994312" lon="4.0130401">
<ele>480.30</ele>
<time>2021-06-26T09:36:29Z</time>
</trkpt>
<trkpt lat="47.2993474" lon="4.0127925">
<ele>469.94</ele>
<time>2021-06-26T09:36:37Z</time>
</trkpt>
<trkpt lat="47.2992272" lon="4.0125353">
<ele>466.99</ele>
<time>2021-06-26T09:37:08Z</time>
</trkpt>
<trkpt lat="47.2990893" lon="4.0122664">
<ele>465.42</ele>
<time>2021-06-26T09:37:13Z</time>
</trkpt>
<trkpt lat="47.2990295" lon="4.0119922">
<ele>463.80</ele>
<time>2021-06-26T09:37:17Z</time>
</trkpt>
<trkpt lat="47.2989674" lon="4.0116859">
<ele>464.66</ele>
<time>2021-06-26T09:37:21Z</time>
</trkpt>
<trkpt lat="47.2988985" lon="4.0113625">
<ele>463.23</ele>
<time>2021-06-26T09:37:25Z</time>
</trkpt>
<trkpt lat="47.2988187" lon="4.0111168">
<ele>463.39</ele>
<time>2021-06-26T09:37:28Z</time>
</trkpt>
<trkpt lat="47.2987528" lon="4.0108579">
<ele>462.63</ele>
<time>2021-06-26T09:37:31Z</time>
</trkpt>
<trkpt lat="47.2986928" lon="4.0105931">
<ele>462.99</ele>
<time>2021-06-26T09:37:34Z</time>
</trkpt>
<trkpt lat="47.2985974" lon="4.0103049">
<ele>462.80</ele>
<time>2021-06-26T09:37:38Z</time>
</trkpt>
<trkpt lat="47.2985120" lon="4.0100406">
<ele>465.12</ele>
<time>2021-06-26T09:37:43Z</time>
</trkpt>
<trkpt lat="47.2985008" lon="4.0097366">
<ele>464.85</ele>
<time>2021-06-26T09:37:49Z</time>
</trkpt>
<trkpt lat="47.2985220" lon="4.0094694">
<ele>464.83</ele>
<time>2021-06-26T09:37:54Z</time>
</trkpt>
<trkpt lat="47.2985997" lon="4.0092072">
<ele>463.25</ele>
<time>2021-06-26T09:37:59Z</time>
</trkpt>
<trkpt lat="47.2986836" lon="4.0089612">
<ele>464.37</ele>
<time>2021-06-26T09:38:05Z</time>
</trkpt>
<trkpt lat="47.2987384" lon="4.0086967">
<ele>460.42</ele>
<time>2021-06-26T09:38:13Z</time>
</trkpt>
<trkpt lat="47.2987929" lon="4.0083903">
<ele>462.77</ele>
<time>2021-06-26T09:38:20Z</time>
</trkpt>
<trkpt lat="47.2988103" lon="4.0081115">
<ele>460.86</ele>
<time>2021-06-26T09:38:25Z</time>
</trkpt>
<trkpt lat="47.2988695" lon="4.0078117">
<ele>465.88</ele>
<time>2021-06-26T09:38:30Z</time>
</trkpt>
<trkpt lat="47.2988846" lon="4.0075041">
<ele>466.73</ele>
<time>2021-06-26T09:38:35Z</time>
</trkpt>
<trkpt lat="47.2988915" lon="4.0072017">
<ele>465.03</ele>
<time>2021-06-26T09:38:39Z</time>
</trkpt>
<trkpt lat="47.2989073" lon="4.0068549">
<ele>463.52</ele>
<time>2021-06-26T09:38:43Z</time>
</trkpt>
<trkpt lat="47.2990528" lon="4.0066352">
<ele>461.86</ele>
<time>2021-06-26T09:38:46Z</time>
</trkpt>
<trkpt lat="47.2991469" lon="4.0063793">
<ele>461.27</ele>
<time>2021-06-26T09:38:50Z</time>
</trkpt>
<trkpt lat="47.2993445" lon="4.0063475">
<ele>462.49</ele>
<time>2021-06-26T09:39:06Z</time>
</trkpt>
<trkpt lat="47.2995600" lon="4.0063299">
<ele>460.47</ele>
<time>2021-06-26T09:39:11Z</time>
</trkpt>
<trkpt lat="47.2997530" lon="4.0062485">
<ele>460.45</ele>
<time>2021-06-26T09:39:15Z</time>
</trkpt>
<trkpt lat="47.2999095" lon="4.0061050">
<ele>457.68</ele>
<time>2021-06-26T09:39:20Z</time>
</trkpt>
<trkpt lat="47.3000572" lon="4.0058964">
<ele>456.16</ele>
<time>2021-06-26T09:39:25Z</time>
</trkpt>
<trkpt lat="47.3001877" lon="4.0056494">
<ele>455.93</ele>
<time>2021-06-26T09:39:29Z</time>
</trkpt>
<trkpt lat="47.3002981" lon="4.0053982">
<ele>456.77</ele>
<time>2021-06-26T09:39:33Z</time>
</trkpt>
<trkpt lat="47.3003775" lon="4.0051127">
<ele>454.53</ele>
<time>2021-06-26T09:39:37Z</time>
</trkpt>
<trkpt lat="47.3005232" lon="4.0048584">
<ele>452.01</ele>
<time>2021-06-26T09:39:41Z</time>
</trkpt>
<trkpt lat="47.3006571" lon="4.0046490">
<ele>449.64</ele>
<time>2021-06-26T09:39:44Z</time>
</trkpt>
<trkpt lat="47.3008029" lon="4.0044537">
<ele>448.55</ele>
<time>2021-06-26T09:39:47Z</time>
</trkpt>
<trkpt lat="47.3009525" lon="4.0042248">
<ele>446.36</ele>
<time>2021-06-26T09:39:51Z</time>
</trkpt>
<trkpt lat="47.3010751" lon="4.0040065">
<ele>443.22</ele>
<time>2021-06-26T09:39:56Z</time>
</trkpt>
<trkpt lat="47.3012490" lon="4.0038233">
<ele>441.17</ele>
<time>2021-06-26T09:40:01Z</time>
</trkpt>
<trkpt lat="47.3014113" lon="4.0036364">
<ele>439.00</ele>
<time>2021-06-26T09:40:05Z</time>
</trkpt>
<trkpt lat="47.3015299" lon="4.0034057">
<ele>437.07</ele>
<time>2021-06-26T09:40:10Z</time>
</trkpt>
<trkpt lat="47.3016333" lon="4.0031655">
<ele>437.63</ele>
<time>2021-06-26T09:40:17Z</time>
</trkpt>
<trkpt lat="47.3017169" lon="4.0029008">
<ele>438.01</ele>
<time>2021-06-26T09:40:25Z</time>
</trkpt>
<trkpt lat="47.3018445" lon="4.0026476">
<ele>433.88</ele>
<time>2021-06-26T09:40:33Z</time>
</trkpt>
<trkpt lat="47.3019783" lon="4.0024163">
<ele>439.35</ele>
<time>2021-06-26T09:40:39Z</time>
</trkpt>
<trkpt lat="47.3021084" lon="4.0022285">
<ele>442.70</ele>
<time>2021-06-26T09:40:45Z</time>
</trkpt>
<trkpt lat="47.3022625" lon="4.0020547">
<ele>443.48</ele>
<time>2021-06-26T09:40:52Z</time>
</trkpt>
<trkpt lat="47.3024212" lon="4.0018705">
<ele>440.92</ele>
<time>2021-06-26T09:40:59Z</time>
</trkpt>
<trkpt lat="47.3025611" lon="4.0016914">
<ele>441.19</ele>
<time>2021-06-26T09:41:06Z</time>
</trkpt>
<trkpt lat="47.3027427" lon="4.0015664">
<ele>446.86</ele>
<time>2021-06-26T09:41:16Z</time>
</trkpt>
<trkpt lat="47.3029155" lon="4.0014184">
<ele>450.25</ele>
<time>2021-06-26T09:41:25Z</time>
</trkpt>
<trkpt lat="47.3030786" lon="4.0013045">
<ele>452.25</ele>
<time>2021-06-26T09:41:32Z</time>
</trkpt>
<trkpt lat="47.3032269" lon="4.0011485">
<ele>455.29</ele>
<time>2021-06-26T09:41:40Z</time>
</trkpt>
<trkpt lat="47.3033813" lon="4.0009603">
<ele>457.24</ele>
<time>2021-06-26T09:41:49Z</time>
</trkpt>
<trkpt lat="47.3035463" lon="4.0007927">
<ele>455.42</ele>
<time>2021-06-26T09:41:58Z</time>
</trkpt>
<trkpt lat="47.3036909" lon="4.0006144">
<ele>457.15</ele>
<time>2021-06-26T09:42:04Z</time>
</trkpt>
<trkpt lat="47.3038665" lon="4.0004671">
<ele>455.86</ele>
<time>2021-06-26T09:42:12Z</time>
</trkpt>
<trkpt lat="47.3040546" lon="4.0003426">
<ele>453.45</ele>
<time>2021-06-26T09:42:20Z</time>
</trkpt>
<trkpt lat="47.3042284" lon="4.0001977">
<ele>454.66</ele>
<time>2021-06-26T09:42:42Z</time>
</trkpt>
<trkpt lat="47.3044490" lon="4.0001419">
<ele>453.48</ele>
<time>2021-06-26T09:42:47Z</time>
</trkpt>
<trkpt lat="47.3046385" lon="4.0001508">
<ele>452.58</ele>
<time>2021-06-26T09:42:51Z</time>
</trkpt>
<trkpt lat="47.3048453" lon="4.0001746">
<ele>452.78</ele>
<time>2021-06-26T09:42:55Z</time>
</trkpt>
<trkpt lat="47.3050343" lon="4.0001543">
<ele>453.39</ele>
<time>2021-06-26T09:42:59Z</time>
</trkpt>
<trkpt lat="47.3052523" lon="4.0000498">
<ele>451.49</ele>
<time>2021-06-26T09:43:04Z</time>
</trkpt>
<trkpt lat="47.3054663" lon="4.0000127">
<ele>451.88</ele>
<time>2021-06-26T09:43:09Z</time>
</trkpt>
<trkpt lat="47.3056597" lon="4.0000419">
<ele>456.94</ele>
<time>2021-06-26T09:43:16Z</time>
</trkpt>
<trkpt lat="47.3058533" lon="4.0001559">
<ele>457.12</ele>
<time>2021-06-26T09:43:23Z</time>
</trkpt>
<trkpt lat="47.3060500" lon="4.0001132">
<ele>458.88</ele>
<time>2021-06-26T09:43:29Z</time>
</trkpt>
<trkpt lat="47.3062421" lon="4.0000694">
<ele>462.08</ele>
<time>2021-06-26T09:43:36Z</time>
</trkpt>
<trkpt lat="47.3064139" lon="3.9999507">
<ele>462.79</ele>
<time>2021-06-26T09:43:44Z</time>
</trkpt>
<trkpt lat="47.3065798" lon="3.9998455">
<ele>464.29</ele>
<time>2021-06-26T09:43:51Z</time>
</trkpt>
<trkpt lat="47.3067608" lon="3.9997611">
<ele>467.38</ele>
<time>2021-06-26T09:43:59Z</time>
</trkpt>
<trkpt lat="47.3069414" lon="3.9996458">
<ele>471.63</ele>
<time>2021-06-26T09:44:08Z</time>
</trkpt>
<trkpt lat="47.3071039" lon="3.9995059">
<ele>474.84</ele>
<time>2021-06-26T09:44:15Z</time>
</trkpt>
<trkpt lat="47.3072777" lon="3.9993649">
<ele>475.36</ele>
<time>2021-06-26T09:44:22Z</time>
</trkpt>
<trkpt lat="47.3074776" lon="3.9992723">
<ele>477.19</ele>
<time>2021-06-26T09:44:29Z</time>
</trkpt>
<trkpt lat="47.3076508" lon="3.9991822">
<ele>476.03</ele>
<time>2021-06-26T09:44:36Z</time>
</trkpt>
<trkpt lat="47.3078026" lon="3.9990212">
<ele>475.12</ele>
<time>2021-06-26T09:44:43Z</time>
</trkpt>
<trkpt lat="47.3079211" lon="3.9987684">
<ele>474.62</ele>
<time>2021-06-26T09:44:50Z</time>
</trkpt>
<trkpt lat="47.3080314" lon="3.9984810">
<ele>473.42</ele>
<time>2021-06-26T09:44:55Z</time>
</trkpt>
<trkpt lat="47.3081324" lon="3.9982273">
<ele>472.79</ele>
<time>2021-06-26T09:44:59Z</time>
</trkpt>
<trkpt lat="47.3082270" lon="3.9979073">
<ele>470.81</ele>
<time>2021-06-26T09:45:03Z</time>
</trkpt>
<trkpt lat="47.3082772" lon="3.9976317">
<ele>469.56</ele>
<time>2021-06-26T09:45:06Z</time>
</trkpt>
<trkpt lat="47.3083418" lon="3.9973517">
<ele>468.09</ele>
<time>2021-06-26T09:45:09Z</time>
</trkpt>
<trkpt lat="47.3083812" lon="3.9970541">
<ele>466.85</ele>
<time>2021-06-26T09:45:12Z</time>
</trkpt>
<trkpt lat="47.3084302" lon="3.9967665">
<ele>465.40</ele>
<time>2021-06-26T09:45:15Z</time>
</trkpt>
<trkpt lat="47.3085079" lon="3.9964793">
<ele>463.67</ele>
<time>2021-06-26T09:45:18Z</time>
</trkpt>
<trkpt lat="47.3085639" lon="3.9961896">
<ele>461.44</ele>
<time>2021-06-26T09:45:21Z</time>
</trkpt>
<trkpt lat="47.3086169" lon="3.9959051">
<ele>460.41</ele>
<time>2021-06-26T09:45:24Z</time>
</trkpt>
<trkpt lat="47.3086754" lon="3.9956207">
<ele>460.11</ele>
<time>2021-06-26T09:45:27Z</time>
</trkpt>
<trkpt lat="47.3087465" lon="3.9953603">
<ele>459.54</ele>
<time>2021-06-26T09:45:30Z</time>
</trkpt>
<trkpt lat="47.3088306" lon="3.9950571">
<ele>459.04</ele>
<time>2021-06-26T09:45:34Z</time>
</trkpt>
<trkpt lat="47.3088950" lon="3.9948046">
<ele>459.00</ele>
<time>2021-06-26T09:45:38Z</time>
</trkpt>
<trkpt lat="47.3089449" lon="3.9945238">
<ele>459.59</ele>
<time>2021-06-26T09:45:44Z</time>
</trkpt>
<trkpt lat="47.3089922" lon="3.9942604">
<ele>459.39</ele>
<time>2021-06-26T09:45:49Z</time>
</trkpt>
<trkpt lat="47.3090355" lon="3.9939758">
<ele>459.61</ele>
<time>2021-06-26T09:45:54Z</time>
</trkpt>
<trkpt lat="47.3090682" lon="3.9937063">
<ele>460.33</ele>
<time>2021-06-26T09:45:59Z</time>
</trkpt>
<trkpt lat="47.3090917" lon="3.9933981">
<ele>461.56</ele>
<time>2021-06-26T09:46:05Z</time>
</trkpt>
<trkpt lat="47.3091160" lon="3.9931060">
<ele>462.11</ele>
<time>2021-06-26T09:46:11Z</time>
</trkpt>
<trkpt lat="47.3092151" lon="3.9928768">
<ele>462.78</ele>
<time>2021-06-26T09:46:18Z</time>
</trkpt>
<trkpt lat="47.3093575" lon="3.9926644">
<ele>463.98</ele>
<time>2021-06-26T09:46:26Z</time>
</trkpt>
<trkpt lat="47.3095230" lon="3.9925308">
<ele>465.19</ele>
<time>2021-06-26T09:46:34Z</time>
</trkpt>
<trkpt lat="47.3096981" lon="3.9924553">
<ele>465.17</ele>
<time>2021-06-26T09:46:42Z</time>
</trkpt>
<trkpt lat="47.3098732" lon="3.9923781">
<ele>467.00</ele>
<time>2021-06-26T09:46:50Z</time>
</trkpt>
<trkpt lat="47.3100014" lon="3.9921800">
<ele>467.74</ele>
<time>2021-06-26T09:46:58Z</time>
</trkpt>
<trkpt lat="47.3100532" lon="3.9919251">
<ele>469.39</ele>
<time>2021-06-26T09:47:06Z</time>
</trkpt>
<trkpt lat="47.3101040" lon="3.9916458">
<ele>469.90</ele>
<time>2021-06-26T09:47:16Z</time>
</trkpt>
<trkpt lat="47.3100919" lon="3.9913550">
<ele>473.85</ele>
<time>2021-06-26T09:47:27Z</time>
</trkpt>
<trkpt lat="47.3100340" lon="3.9910806">
<ele>473.55</ele>
<time>2021-06-26T09:47:37Z</time>
</trkpt>
<trkpt lat="47.3099955" lon="3.9908043">
<ele>475.54</ele>
<time>2021-06-26T09:47:48Z</time>
</trkpt>
<trkpt lat="47.3101390" lon="3.9906305">
<ele>476.16</ele>
<time>2021-06-26T09:48:00Z</time>
</trkpt>
<trkpt lat="47.3101751" lon="3.9903553">
<ele>476.21</ele>
<time>2021-06-26T09:48:11Z</time>
</trkpt>
<trkpt lat="47.3102307" lon="3.9900782">
<ele>477.71</ele>
<time>2021-06-26T09:48:21Z</time>
</trkpt>
<trkpt lat="47.3102764" lon="3.9898082">
<ele>476.95</ele>
<time>2021-06-26T09:48:31Z</time>
</trkpt>
<trkpt lat="47.3102972" lon="3.9895376">
<ele>478.64</ele>
<time>2021-06-26T09:48:40Z</time>
</trkpt>
<trkpt lat="47.3103190" lon="3.9892542">
<ele>481.23</ele>
<time>2021-06-26T09:48:47Z</time>
</trkpt>
<trkpt lat="47.3103080" lon="3.9889855">
<ele>482.54</ele>
<time>2021-06-26T09:48:53Z</time>
</trkpt>
<trkpt lat="47.3103779" lon="3.9886934">
<ele>481.35</ele>
<time>2021-06-26T09:48:59Z</time>
</trkpt>
<trkpt lat="47.3104854" lon="3.9884707">
<ele>482.17</ele>
<time>2021-06-26T09:49:05Z</time>
</trkpt>
<trkpt lat="47.3105846" lon="3.9882465">
<ele>481.05</ele>
<time>2021-06-26T09:49:12Z</time>
</trkpt>
<trkpt lat="47.3106725" lon="3.9880055">
<ele>482.12</ele>
<time>2021-06-26T09:49:19Z</time>
</trkpt>
<trkpt lat="47.3107365" lon="3.9877216">
<ele>484.91</ele>
<time>2021-06-26T09:49:27Z</time>
</trkpt>
<trkpt lat="47.3107782" lon="3.9874291">
<ele>487.98</ele>
<time>2021-06-26T09:49:35Z</time>
</trkpt>
<trkpt lat="47.3108055" lon="3.9871614">
<ele>490.45</ele>
<time>2021-06-26T09:49:42Z</time>
</trkpt>
<trkpt lat="47.3108332" lon="3.9868822">
<ele>491.57</ele>
<time>2021-06-26T09:49:50Z</time>
</trkpt>
<trkpt lat="47.3109693" lon="3.9866494">
<ele>491.86</ele>
<time>2021-06-26T09:49:58Z</time>
</trkpt>
<trkpt lat="47.3111077" lon="3.9864636">
<ele>493.36</ele>
<time>2021-06-26T09:50:06Z</time>
</trkpt>
<trkpt lat="47.3111773" lon="3.9861898">
<ele>492.76</ele>
<time>2021-06-26T09:50:14Z</time>
</trkpt>
<trkpt lat="47.3111092" lon="3.9858964">
<ele>492.87</ele>
<time>2021-06-26T09:50:20Z</time>
</trkpt>
<trkpt lat="47.3110557" lon="3.9856185">
<ele>492.37</ele>
<time>2021-06-26T09:50:25Z</time>
</trkpt>
<trkpt lat="47.3110328" lon="3.9853441">
<ele>491.88</ele>
<time>2021-06-26T09:50:29Z</time>
</trkpt>
<trkpt lat="47.3110309" lon="3.9850278">
<ele>490.17</ele>
<time>2021-06-26T09:50:37Z</time>
</trkpt>
<trkpt lat="47.3110395" lon="3.9847301">
<ele>488.50</ele>
<time>2021-06-26T09:50:42Z</time>
</trkpt>
<trkpt lat="47.3110582" lon="3.9844496">
<ele>487.04</ele>
<time>2021-06-26T09:50:48Z</time>
</trkpt>
<trkpt lat="47.3110411" lon="3.9841173">
<ele>484.43</ele>
<time>2021-06-26T09:50:53Z</time>
</trkpt>
<trkpt lat="47.3109987" lon="3.9838451">
<ele>483.33</ele>
<time>2021-06-26T09:50:58Z</time>
</trkpt>
<trkpt lat="47.3109336" lon="3.9835565">
<ele>480.53</ele>
<time>2021-06-26T09:51:04Z</time>
</trkpt>
<trkpt lat="47.3108722" lon="3.9832628">
<ele>477.97</ele>
<time>2021-06-26T09:51:14Z</time>
</trkpt>
<trkpt lat="47.3108390" lon="3.9829624">
<ele>475.00</ele>
<time>2021-06-26T09:51:19Z</time>
</trkpt>
<trkpt lat="47.3107861" lon="3.9826936">
<ele>472.75</ele>
<time>2021-06-26T09:51:23Z</time>
</trkpt>
<trkpt lat="47.3107063" lon="3.9824168">
<ele>469.99</ele>
<time>2021-06-26T09:51:28Z</time>
</trkpt>
<trkpt lat="47.3106065" lon="3.9821671">
<ele>471.53</ele>
<time>2021-06-26T09:51:35Z</time>
</trkpt>
<trkpt lat="47.3104885" lon="3.9819061">
<ele>468.93</ele>
<time>2021-06-26T09:51:40Z</time>
</trkpt>
<trkpt lat="47.3103923" lon="3.9816641">
<ele>464.56</ele>
<time>2021-06-26T09:51:44Z</time>
</trkpt>
<trkpt lat="47.3103038" lon="3.9814255">
<ele>462.97</ele>
<time>2021-06-26T09:51:50Z</time>
</trkpt>
<trkpt lat="47.3101772" lon="3.9812311">
<ele>460.79</ele>
<time>2021-06-26T09:51:55Z</time>
</trkpt>
<trkpt lat="47.3100674" lon="3.9809846">
<ele>455.18</ele>
<time>2021-06-26T09:51:59Z</time>
</trkpt>
<trkpt lat="47.3099425" lon="3.9807797">
<ele>455.71</ele>
<time>2021-06-26T09:52:05Z</time>
</trkpt>
<trkpt lat="47.3096858" lon="3.9805723">
<ele>455.44</ele>
<time>2021-06-26T09:52:10Z</time>
</trkpt>
<trkpt lat="47.3095126" lon="3.9804733">
<ele>452.79</ele>
<time>2021-06-26T09:52:15Z</time>
</trkpt>
<trkpt lat="47.3093396" lon="3.9803583">
<ele>448.84</ele>
<time>2021-06-26T09:52:23Z</time>
</trkpt>
<trkpt lat="47.3091303" lon="3.9803169">
<ele>444.21</ele>
<time>2021-06-26T09:52:28Z</time>
</trkpt>
<trkpt lat="47.3089428" lon="3.9802589">
<ele>442.76</ele>
<time>2021-06-26T09:52:33Z</time>
</trkpt>
<trkpt lat="47.3087401" lon="3.9802919">
<ele>435.20</ele>
<time>2021-06-26T09:52:42Z</time>
</trkpt>
<trkpt lat="47.3085274" lon="3.9803928">
<ele>429.47</ele>
<time>2021-06-26T09:52:45Z</time>
</trkpt>
<trkpt lat="47.3083239" lon="3.9804200">
<ele>427.22</ele>
<time>2021-06-26T09:52:52Z</time>
</trkpt>
<trkpt lat="47.3081177" lon="3.9803530">
<ele>425.95</ele>
<time>2021-06-26T09:52:57Z</time>
</trkpt>
<trkpt lat="47.3079370" lon="3.9803573">
<ele>424.78</ele>
<time>2021-06-26T09:53:03Z</time>
</trkpt>
<trkpt lat="47.3077473" lon="3.9803980">
<ele>420.53</ele>
<time>2021-06-26T09:53:07Z</time>
</trkpt>
<trkpt lat="47.3075904" lon="3.9805287">
<ele>452.32</ele>
<time>2021-06-26T09:53:38Z</time>
</trkpt>
<trkpt lat="47.3075740" lon="3.9808170">
<ele>442.29</ele>
<time>2021-06-26T09:54:41Z</time>
</trkpt>
<trkpt lat="47.3074983" lon="3.9810754">
<ele>455.52</ele>
<time>2021-06-26T09:54:52Z</time>
</trkpt>
<trkpt lat="47.3074576" lon="3.9813651">
<ele>459.79</ele>
<time>2021-06-26T09:55:00Z</time>
</trkpt>
<trkpt lat="47.3073854" lon="3.9816208">
<ele>467.02</ele>
<time>2021-06-26T09:55:08Z</time>
</trkpt>
<trkpt lat="47.3072773" lon="3.9818439">
<ele>461.95</ele>
<time>2021-06-26T09:55:15Z</time>
</trkpt>
<trkpt lat="47.3072190" lon="3.9820982">
<ele>457.48</ele>
<time>2021-06-26T09:55:27Z</time>
</trkpt>
<trkpt lat="47.3071616" lon="3.9823681">
<ele>452.68</ele>
<time>2021-06-26T09:55:36Z</time>
</trkpt>
<trkpt lat="47.3071727" lon="3.9826360">
<ele>448.56</ele>
<time>2021-06-26T09:55:42Z</time>
</trkpt>
<trkpt lat="47.3071696" lon="3.9829276">
<ele>447.98</ele>
<time>2021-06-26T09:55:49Z</time>
</trkpt>
<trkpt lat="47.3071450" lon="3.9832089">
<ele>457.85</ele>
<time>2021-06-26T09:55:57Z</time>
</trkpt>
<trkpt lat="47.3070467" lon="3.9834351">
<ele>459.41</ele>
<time>2021-06-26T09:56:07Z</time>
</trkpt>
<trkpt lat="47.3069739" lon="3.9836804">
<ele>455.79</ele>
<time>2021-06-26T09:56:15Z</time>
</trkpt>
<trkpt lat="47.3068263" lon="3.9838665">
<ele>454.57</ele>
<time>2021-06-26T09:56:23Z</time>
</trkpt>
<trkpt lat="47.3066574" lon="3.9840530">
<ele>457.81</ele>
<time>2021-06-26T09:56:31Z</time>
</trkpt>
<trkpt lat="47.3065211" lon="3.9842457">
<ele>460.82</ele>
<time>2021-06-26T09:56:38Z</time>
</trkpt>
<trkpt lat="47.3063758" lon="3.9844468">
<ele>458.74</ele>
<time>2021-06-26T09:56:46Z</time>
</trkpt>
<trkpt lat="47.3062325" lon="3.9846784">
<ele>454.87</ele>
<time>2021-06-26T09:56:53Z</time>
</trkpt>
<trkpt lat="47.3061200" lon="3.9848894">
<ele>456.45</ele>
<time>2021-06-26T09:56:59Z</time>
</trkpt>
<trkpt lat="47.3060447" lon="3.9851440">
<ele>459.03</ele>
<time>2021-06-26T09:57:06Z</time>
</trkpt>
<trkpt lat="47.3060032" lon="3.9854361">
<ele>468.25</ele>
<time>2021-06-26T09:57:15Z</time>
</trkpt>
<trkpt lat="47.3059709" lon="3.9856987">
<ele>464.02</ele>
<time>2021-06-26T09:57:24Z</time>
</trkpt>
<trkpt lat="47.3059985" lon="3.9859700">
<ele>459.23</ele>
<time>2021-06-26T09:57:34Z</time>
</trkpt>
<trkpt lat="47.3060990" lon="3.9861903">
<ele>462.51</ele>
<time>2021-06-26T09:57:43Z</time>
</trkpt>
<trkpt lat="47.3061782" lon="3.9864318">
<ele>467.65</ele>
<time>2021-06-26T09:57:51Z</time>
</trkpt>
<trkpt lat="47.3062764" lon="3.9866765">
<ele>466.77</ele>
<time>2021-06-26T09:58:00Z</time>
</trkpt>
<trkpt lat="47.3063876" lon="3.9869259">
<ele>469.22</ele>
<time>2021-06-26T09:58:09Z</time>
</trkpt>
<trkpt lat="47.3065180" lon="3.9871209">
<ele>465.05</ele>
<time>2021-06-26T09:58:19Z</time>
</trkpt>
<trkpt lat="47.3066061" lon="3.9873784">
<ele>466.26</ele>
<time>2021-06-26T09:58:27Z</time>
</trkpt>
<trkpt lat="47.3067087" lon="3.9875970">
<ele>467.02</ele>
<time>2021-06-26T09:58:34Z</time>
</trkpt>
<trkpt lat="47.3065185" lon="3.9876325">
<ele>467.40</ele>
<time>2021-06-26T09:58:45Z</time>
</trkpt>
<trkpt lat="47.3063271" lon="3.9875445">
<ele>468.18</ele>
<time>2021-06-26T09:58:50Z</time>
</trkpt>
<trkpt lat="47.3061302" lon="3.9875132">
<ele>468.01</ele>
<time>2021-06-26T09:58:55Z</time>
</trkpt>
<trkpt lat="47.3059424" lon="3.9874526">
<ele>471.90</ele>
<time>2021-06-26T09:59:02Z</time>
</trkpt>
<trkpt lat="47.3057230" lon="3.9875129">
<ele>460.95</ele>
<time>2021-06-26T09:59:06Z</time>
</trkpt>
<trkpt lat="47.3055189" lon="3.9876587">
<ele>468.01</ele>
<time>2021-06-26T09:59:10Z</time>
</trkpt>
<trkpt lat="47.3052639" lon="3.9878322">
<ele>468.79</ele>
<time>2021-06-26T09:59:15Z</time>
</trkpt>
<trkpt lat="47.3050983" lon="3.9879419">
<ele>452.25</ele>
<time>2021-06-26T09:59:19Z</time>
</trkpt>
<trkpt lat="47.3049377" lon="3.9881378">
<ele>473.67</ele>
<time>2021-06-26T09:59:25Z</time>
</trkpt>
<trkpt lat="47.3047761" lon="3.9883242">
<ele>470.43</ele>
<time>2021-06-26T09:59:34Z</time>
</trkpt>
<trkpt lat="47.3047017" lon="3.9885974">
<ele>471.65</ele>
<time>2021-06-26T09:59:41Z</time>
</trkpt>
<trkpt lat="47.3046143" lon="3.9888485">
<ele>468.95</ele>
<time>2021-06-26T09:59:46Z</time>
</trkpt>
<trkpt lat="47.3045265" lon="3.9891146">
<ele>470.85</ele>
<time>2021-06-26T09:59:53Z</time>
</trkpt>
<trkpt lat="47.3044646" lon="3.9894211">
<ele>472.71</ele>
<time>2021-06-26T09:59:59Z</time>
</trkpt>
<trkpt lat="47.3043932" lon="3.9896917">
<ele>474.27</ele>
<time>2021-06-26T10:00:04Z</time>
</trkpt>
<trkpt lat="47.3042326" lon="3.9899065">
<ele>452.34</ele>
<time>2021-06-26T10:00:08Z</time>
</trkpt>
<trkpt lat="47.3040556" lon="3.9900368">
<ele>473.94</ele>
<time>2021-06-26T10:00:13Z</time>
</trkpt>
<trkpt lat="47.3038444" lon="3.9902530">
<ele>472.57</ele>
<time>2021-06-26T10:00:19Z</time>
</trkpt>
<trkpt lat="47.3036753" lon="3.9903467">
<ele>473.94</ele>
<time>2021-06-26T10:00:23Z</time>
</trkpt>
<trkpt lat="47.3034329" lon="3.9904955">
<ele>454.59</ele>
<time>2021-06-26T10:00:29Z</time>
</trkpt>
<trkpt lat="47.3033474" lon="3.9907445">
<ele>472.18</ele>
<time>2021-06-26T10:00:34Z</time>
</trkpt>
<trkpt lat="47.3033616" lon="3.9910353">
<ele>454.76</ele>
<time>2021-06-26T10:00:39Z</time>
</trkpt>
<trkpt lat="47.3031869" lon="3.9911566">
<ele>430.54</ele>
<time>2021-06-26T10:00:43Z</time>
</trkpt>
<trkpt lat="47.3030145" lon="3.9910044">
<ele>430.50</ele>
<time>2021-06-26T10:00:52Z</time>
</trkpt>
<trkpt lat="47.3028594" lon="3.9908411">
<ele>428.29</ele>
<time>2021-06-26T10:00:59Z</time>
</trkpt>
<trkpt lat="47.3027727" lon="3.9905715">
<ele>438.04</ele>
<time>2021-06-26T10:01:09Z</time>
</trkpt>
<trkpt lat="47.3025947" lon="3.9904232">
<ele>437.65</ele>
<time>2021-06-26T10:01:19Z</time>
</trkpt>
<trkpt lat="47.3024351" lon="3.9905513">
<ele>464.84</ele>
<time>2021-06-26T10:02:43Z</time>
</trkpt>
<trkpt lat="47.3023560" lon="3.9908037">
<ele>471.36</ele>
<time>2021-06-26T10:02:52Z</time>
</trkpt>
<trkpt lat="47.3022381" lon="3.9910092">
<ele>473.54</ele>
<time>2021-06-26T10:03:01Z</time>
</trkpt>
<trkpt lat="47.3020523" lon="3.9910801">
<ele>473.30</ele>
<time>2021-06-26T10:03:08Z</time>
</trkpt>
<trkpt lat="47.3018591" lon="3.9910953">
<ele>468.70</ele>
<time>2021-06-26T10:03:16Z</time>
</trkpt>
<trkpt lat="47.3016876" lon="3.9909726">
<ele>468.21</ele>
<time>2021-06-26T10:03:26Z</time>
</trkpt>
<trkpt lat="47.3014953" lon="3.9908885">
<ele>467.37</ele>
<time>2021-06-26T10:03:32Z</time>
</trkpt>
<trkpt lat="47.3013207" lon="3.9907812">
<ele>469.17</ele>
<time>2021-06-26T10:03:39Z</time>
</trkpt>
<trkpt lat="47.3012573" lon="3.9905254">
<ele>478.37</ele>
<time>2021-06-26T10:03:48Z</time>
</trkpt>
<trkpt lat="47.3011017" lon="3.9903737">
<ele>479.47</ele>
<time>2021-06-26T10:04:03Z</time>
</trkpt>
<trkpt lat="47.3009737" lon="3.9901775">
<ele>480.49</ele>
<time>2021-06-26T10:04:11Z</time>
</trkpt>
<trkpt lat="47.3008283" lon="3.9900160">
<ele>479.88</ele>
<time>2021-06-26T10:04:19Z</time>
</trkpt>
<trkpt lat="47.3006763" lon="3.9898685">
<ele>473.45</ele>
<time>2021-06-26T10:04:26Z</time>
</trkpt>
<trkpt lat="47.3004879" lon="3.9898013">
<ele>476.93</ele>
<time>2021-06-26T10:04:36Z</time>
</trkpt>
<trkpt lat="47.3002940" lon="3.9898573">
<ele>476.31</ele>
<time>2021-06-26T10:04:43Z</time>
</trkpt>
<trkpt lat="47.3001240" lon="3.9899531">
<ele>474.72</ele>
<time>2021-06-26T10:04:51Z</time>
</trkpt>
<trkpt lat="47.2999589" lon="3.9900825">
<ele>479.25</ele>
<time>2021-06-26T10:04:59Z</time>
</trkpt>
<trkpt lat="47.2997868" lon="3.9902299">
<ele>480.29</ele>
<time>2021-06-26T10:05:06Z</time>
</trkpt>
<trkpt lat="47.2995897" lon="3.9903536">
<ele>480.07</ele>
<time>2021-06-26T10:05:13Z</time>
</trkpt>
<trkpt lat="47.2993891" lon="3.9903628">
<ele>479.85</ele>
<time>2021-06-26T10:05:19Z</time>
</trkpt>
<trkpt lat="47.2992015" lon="3.9903514">
<ele>480.98</ele>
<time>2021-06-26T10:05:26Z</time>
</trkpt>
<trkpt lat="47.2989960" lon="3.9903115">
<ele>480.74</ele>
<time>2021-06-26T10:05:33Z</time>
</trkpt>
<trkpt lat="47.2988002" lon="3.9902752">
<ele>479.93</ele>
<time>2021-06-26T10:05:39Z</time>
</trkpt>
<trkpt lat="47.2986485" lon="3.9904358">
<ele>477.30</ele>
<time>2021-06-26T10:05:44Z</time>
</trkpt>
<trkpt lat="47.2984324" lon="3.9904787">
<ele>475.48</ele>
<time>2021-06-26T10:05:48Z</time>
</trkpt>
<trkpt lat="47.2982120" lon="3.9904957">
<ele>471.52</ele>
<time>2021-06-26T10:05:53Z</time>
</trkpt>
<trkpt lat="47.2978383" lon="3.9905916">
<ele>468.47</ele>
<time>2021-06-26T10:05:59Z</time>
</trkpt>
<trkpt lat="47.2976163" lon="3.9905767">
<ele>468.02</ele>
<time>2021-06-26T10:06:04Z</time>
</trkpt>
<trkpt lat="47.2973988" lon="3.9905636">
<ele>462.19</ele>
<time>2021-06-26T10:06:08Z</time>
</trkpt>
<trkpt lat="47.2972192" lon="3.9906278">
<ele>459.18</ele>
<time>2021-06-26T10:06:12Z</time>
</trkpt>
<trkpt lat="47.2970424" lon="3.9906983">
<ele>455.34</ele>
<time>2021-06-26T10:06:18Z</time>
</trkpt>
<trkpt lat="47.2968567" lon="3.9907799">
<ele>450.88</ele>
<time>2021-06-26T10:06:24Z</time>
</trkpt>
<trkpt lat="47.2966705" lon="3.9908033">
<ele>446.90</ele>
<time>2021-06-26T10:06:30Z</time>
</trkpt>
<trkpt lat="47.2965537" lon="3.9910237">
<ele>446.69</ele>
<time>2021-06-26T10:06:39Z</time>
</trkpt>
<trkpt lat="47.2964572" lon="3.9912518">
<ele>440.39</ele>
<time>2021-06-26T10:06:48Z</time>
</trkpt>
<trkpt lat="47.2964216" lon="3.9915124">
<ele>435.86</ele>
<time>2021-06-26T10:08:27Z</time>
</trkpt>
<trkpt lat="47.2963131" lon="3.9917303">
<ele>437.13</ele>
<time>2021-06-26T10:08:36Z</time>
</trkpt>
<trkpt lat="47.2961699" lon="3.9919226">
<ele>439.17</ele>
<time>2021-06-26T10:08:45Z</time>
</trkpt>
<trkpt lat="47.2960052" lon="3.9920737">
<ele>440.78</ele>
<time>2021-06-26T10:08:54Z</time>
</trkpt>
<trkpt lat="47.2958346" lon="3.9921937">
<ele>441.35</ele>
<time>2021-06-26T10:09:02Z</time>
</trkpt>
<trkpt lat="47.2956596" lon="3.9923100">
<ele>445.14</ele>
<time>2021-06-26T10:09:21Z</time>
</trkpt>
<trkpt lat="47.2954769" lon="3.9924256">
<ele>445.48</ele>
<time>2021-06-26T10:09:29Z</time>
</trkpt>
<trkpt lat="47.2953012" lon="3.9925860">
<ele>444.44</ele>
<time>2021-06-26T10:09:37Z</time>
</trkpt>
<trkpt lat="47.2951361" lon="3.9927400">
<ele>443.60</ele>
<time>2021-06-26T10:09:43Z</time>
</trkpt>
<trkpt lat="47.2949543" lon="3.9927739">
<ele>444.76</ele>
<time>2021-06-26T10:09:48Z</time>
</trkpt>
<trkpt lat="47.2947664" lon="3.9927098">
<ele>445.02</ele>
<time>2021-06-26T10:09:53Z</time>
</trkpt>
<trkpt lat="47.2945611" lon="3.9926464">
<ele>445.98</ele>
<time>2021-06-26T10:10:00Z</time>
</trkpt>
<trkpt lat="47.2943744" lon="3.9926290">
<ele>447.82</ele>
<time>2021-06-26T10:10:06Z</time>
</trkpt>
<trkpt lat="47.2941682" lon="3.9927057">
<ele>450.49</ele>
<time>2021-06-26T10:10:13Z</time>
</trkpt>
<trkpt lat="47.2939970" lon="3.9927968">
<ele>452.35</ele>
<time>2021-06-26T10:10:20Z</time>
</trkpt>
<trkpt lat="47.2938069" lon="3.9928922">
<ele>454.00</ele>
<time>2021-06-26T10:10:28Z</time>
</trkpt>
<trkpt lat="47.2936296" lon="3.9929849">
<ele>453.71</ele>
<time>2021-06-26T10:10:36Z</time>
</trkpt>
<trkpt lat="47.2934587" lon="3.9930851">
<ele>455.15</ele>
<time>2021-06-26T10:10:43Z</time>
</trkpt>
<trkpt lat="47.2933059" lon="3.9932432">
<ele>454.85</ele>
<time>2021-06-26T10:10:50Z</time>
</trkpt>
<trkpt lat="47.2931355" lon="3.9933427">
<ele>454.38</ele>
<time>2021-06-26T10:10:56Z</time>
</trkpt>
<trkpt lat="47.2929510" lon="3.9934892">
<ele>452.64</ele>
<time>2021-06-26T10:11:02Z</time>
</trkpt>
<trkpt lat="47.2927960" lon="3.9936290">
<ele>452.99</ele>
<time>2021-06-26T10:11:07Z</time>
</trkpt>
<trkpt lat="47.2926079" lon="3.9937949">
<ele>452.61</ele>
<time>2021-06-26T10:11:13Z</time>
</trkpt>
<trkpt lat="47.2924653" lon="3.9939827">
<ele>452.69</ele>
<time>2021-06-26T10:11:18Z</time>
</trkpt>
<trkpt lat="47.2923345" lon="3.9942243">
<ele>453.00</ele>
<time>2021-06-26T10:11:24Z</time>
</trkpt>
<trkpt lat="47.2922677" lon="3.9945000">
<ele>455.21</ele>
<time>2021-06-26T10:11:31Z</time>
</trkpt>
<trkpt lat="47.2922003" lon="3.9947471">
<ele>456.45</ele>
<time>2021-06-26T10:11:38Z</time>
</trkpt>
<trkpt lat="47.2921388" lon="3.9950067">
<ele>456.44</ele>
<time>2021-06-26T10:11:45Z</time>
</trkpt>
<trkpt lat="47.2920962" lon="3.9952832">
<ele>455.19</ele>
<time>2021-06-26T10:11:52Z</time>
</trkpt>
<trkpt lat="47.2920128" lon="3.9955419">
<ele>453.98</ele>
<time>2021-06-26T10:12:04Z</time>
</trkpt>
<trkpt lat="47.2917692" lon="3.9955120">
<ele>451.88</ele>
<time>2021-06-26T10:12:10Z</time>
</trkpt>
<trkpt lat="47.2915802" lon="3.9953545">
<ele>451.97</ele>
<time>2021-06-26T10:12:14Z</time>
</trkpt>
<trkpt lat="47.2914122" lon="3.9951987">
<ele>450.67</ele>
<time>2021-06-26T10:12:18Z</time>
</trkpt>
<trkpt lat="47.2912324" lon="3.9951802">
<ele>451.28</ele>
<time>2021-06-26T10:12:21Z</time>
</trkpt>
<trkpt lat="47.2910459" lon="3.9951430">
<ele>449.26</ele>
<time>2021-06-26T10:12:25Z</time>
</trkpt>
<trkpt lat="47.2908619" lon="3.9950924">
<ele>449.18</ele>
<time>2021-06-26T10:12:31Z</time>
</trkpt>
<trkpt lat="47.2906586" lon="3.9950893">
<ele>450.16</ele>
<time>2021-06-26T10:12:36Z</time>
</trkpt>
<trkpt lat="47.2904499" lon="3.9951090">
<ele>450.97</ele>
<time>2021-06-26T10:12:41Z</time>
</trkpt>
<trkpt lat="47.2902588" lon="3.9951217">
<ele>451.85</ele>
<time>2021-06-26T10:12:46Z</time>
</trkpt>
<trkpt lat="47.2900679" lon="3.9951586">
<ele>451.70</ele>
<time>2021-06-26T10:12:51Z</time>
</trkpt>
<trkpt lat="47.2898850" lon="3.9951938">
<ele>451.32</ele>
<time>2021-06-26T10:12:56Z</time>
</trkpt>
<trkpt lat="47.2896833" lon="3.9952355">
<ele>452.31</ele>
<time>2021-06-26T10:13:02Z</time>
</trkpt>
<trkpt lat="47.2894919" lon="3.9952350">
<ele>452.27</ele>
<time>2021-06-26T10:13:09Z</time>
</trkpt>
<trkpt lat="47.2892874" lon="3.9951989">
<ele>453.11</ele>
<time>2021-06-26T10:13:16Z</time>
</trkpt>
<trkpt lat="47.2890915" lon="3.9951954">
<ele>453.13</ele>
<time>2021-06-26T10:13:22Z</time>
</trkpt>
<trkpt lat="47.2889104" lon="3.9952130">
<ele>454.39</ele>
<time>2021-06-26T10:13:28Z</time>
</trkpt>
<trkpt lat="47.2887109" lon="3.9952505">
<ele>456.45</ele>
<time>2021-06-26T10:13:35Z</time>
</trkpt>
<trkpt lat="47.2885467" lon="3.9953589">
<ele>457.98</ele>
<time>2021-06-26T10:13:41Z</time>
</trkpt>
<trkpt lat="47.2883642" lon="3.9954445">
<ele>460.32</ele>
<time>2021-06-26T10:13:47Z</time>
</trkpt>
<trkpt lat="47.2881495" lon="3.9954284">
<ele>460.97</ele>
<time>2021-06-26T10:13:53Z</time>
</trkpt>
<trkpt lat="47.2879615" lon="3.9953905">
<ele>462.11</ele>
<time>2021-06-26T10:13:58Z</time>
</trkpt>
<trkpt lat="47.2877783" lon="3.9954001">
<ele>460.71</ele>
<time>2021-06-26T10:14:02Z</time>
</trkpt>
<trkpt lat="47.2875732" lon="3.9954051">
<ele>462.30</ele>
<time>2021-06-26T10:14:07Z</time>
</trkpt>
<trkpt lat="47.2874031" lon="3.9952561">
<ele>464.23</ele>
<time>2021-06-26T10:14:14Z</time>
</trkpt>
<trkpt lat="47.2873099" lon="3.9950155">
<ele>464.41</ele>
<time>2021-06-26T10:14:24Z</time>
</trkpt>
<trkpt lat="47.2872700" lon="3.9947253">
<ele>467.57</ele>
<time>2021-06-26T10:14:34Z</time>
</trkpt>
<trkpt lat="47.2871773" lon="3.9944626">
<ele>468.51</ele>
<time>2021-06-26T10:14:42Z</time>
</trkpt>
<trkpt lat="47.2870690" lon="3.9942194">
<ele>470.56</ele>
<time>2021-06-26T10:14:50Z</time>
</trkpt>
<trkpt lat="47.2869648" lon="3.9939781">
<ele>473.25</ele>
<time>2021-06-26T10:14:58Z</time>
</trkpt>
<trkpt lat="47.2868790" lon="3.9937339">
<ele>473.97</ele>
<time>2021-06-26T10:15:05Z</time>
</trkpt>
<trkpt lat="47.2867640" lon="3.9935024">
<ele>477.14</ele>
<time>2021-06-26T10:15:12Z</time>
</trkpt>
<trkpt lat="47.2866128" lon="3.9933298">
<ele>477.98</ele>
<time>2021-06-26T10:15:19Z</time>
</trkpt>
<trkpt lat="47.2864619" lon="3.9931586">
<ele>478.18</ele>
<time>2021-06-26T10:15:26Z</time>
</trkpt>
<trkpt lat="47.2863208" lon="3.9929797">
<ele>477.61</ele>
<time>2021-06-26T10:15:32Z</time>
</trkpt>
<trkpt lat="47.2861266" lon="3.9928035">
<ele>477.45</ele>
<time>2021-06-26T10:15:37Z</time>
</trkpt>
<trkpt lat="47.2859829" lon="3.9926374">
<ele>477.09</ele>
<time>2021-06-26T10:15:41Z</time>
</trkpt>
<trkpt lat="47.2858327" lon="3.9924360">
<ele>476.71</ele>
<time>2021-06-26T10:15:46Z</time>
</trkpt>
<trkpt lat="47.2856529" lon="3.9922640">
<ele>476.37</ele>
<time>2021-06-26T10:15:51Z</time>
</trkpt>
<trkpt lat="47.2854775" lon="3.9921165">
<ele>475.28</ele>
<time>2021-06-26T10:15:55Z</time>
</trkpt>
<trkpt lat="47.2853093" lon="3.9919837">
<ele>475.06</ele>
<time>2021-06-26T10:15:59Z</time>
</trkpt>
<trkpt lat="47.2851270" lon="3.9917964">
<ele>474.49</ele>
<time>2021-06-26T10:16:03Z</time>
</trkpt>
<trkpt lat="47.2849645" lon="3.9916543">
<ele>473.65</ele>
<time>2021-06-26T10:16:07Z</time>
</trkpt>
<trkpt lat="47.2847717" lon="3.9914874">
<ele>473.11</ele>
<time>2021-06-26T10:16:11Z</time>
</trkpt>
<trkpt lat="47.2845987" lon="3.9913450">
<ele>472.57</ele>
<time>2021-06-26T10:16:15Z</time>
</trkpt>
<trkpt lat="47.2844706" lon="3.9911283">
<ele>470.84</ele>
<time>2021-06-26T10:16:19Z</time>
</trkpt>
<trkpt lat="47.2842850" lon="3.9909702">
<ele>469.91</ele>
<time>2021-06-26T10:16:23Z</time>
</trkpt>
<trkpt lat="47.2840837" lon="3.9908770">
<ele>469.79</ele>
<time>2021-06-26T10:16:27Z</time>
</trkpt>
<trkpt lat="47.2838917" lon="3.9908278">
<ele>469.14</ele>
<time>2021-06-26T10:16:31Z</time>
</trkpt>
<trkpt lat="47.2837015" lon="3.9908037">
<ele>468.31</ele>
<time>2021-06-26T10:16:35Z</time>
</trkpt>
<trkpt lat="47.2834872" lon="3.9907500">
<ele>468.24</ele>
<time>2021-06-26T10:16:39Z</time>
</trkpt>
<trkpt lat="47.2832380" lon="3.9908322">
<ele>469.80</ele>
<time>2021-06-26T10:16:44Z</time>
</trkpt>
<trkpt lat="47.2830628" lon="3.9909156">
<ele>467.84</ele>
<time>2021-06-26T10:16:47Z</time>
</trkpt>
<trkpt lat="47.2828721" lon="3.9909970">
<ele>467.31</ele>
<time>2021-06-26T10:16:50Z</time>
</trkpt>
<trkpt lat="47.2826973" lon="3.9911106">
<ele>465.46</ele>
<time>2021-06-26T10:16:53Z</time>
</trkpt>
<trkpt lat="47.2825056" lon="3.9910496">
<ele>463.31</ele>
<time>2021-06-26T10:16:58Z</time>
</trkpt>
<trkpt lat="47.2823050" lon="3.9909713">
<ele>464.52</ele>
<time>2021-06-26T10:17:03Z</time>
</trkpt>
<trkpt lat="47.2822008" lon="3.9912114">
<ele>467.91</ele>
<time>2021-06-26T10:17:26Z</time>
</trkpt>
<trkpt lat="47.2821837" lon="3.9914899">
<ele>468.61</ele>
<time>2021-06-26T10:17:35Z</time>
</trkpt>
<trkpt lat="47.2822422" lon="3.9912357">
<ele>468.29</ele>
<time>2021-06-26T10:17:54Z</time>
</trkpt>
<trkpt lat="47.2821674" lon="3.9909861">
<ele>466.91</ele>
<time>2021-06-26T10:18:03Z</time>
</trkpt>
<trkpt lat="47.2820013" lon="3.9910889">
<ele>466.91</ele>
<time>2021-06-26T10:18:11Z</time>
</trkpt>
<trkpt lat="47.2818996" lon="3.9913459">
<ele>466.53</ele>
<time>2021-06-26T10:18:18Z</time>
</trkpt>
<trkpt lat="47.2818406" lon="3.9916349">
<ele>465.13</ele>
<time>2021-06-26T10:18:24Z</time>
</trkpt>
<trkpt lat="47.2817902" lon="3.9919305">
<ele>464.16</ele>
<time>2021-06-26T10:18:29Z</time>
</trkpt>
<trkpt lat="47.2817368" lon="3.9921987">
<ele>464.29</ele>
<time>2021-06-26T10:18:35Z</time>
</trkpt>
<trkpt lat="47.2816832" lon="3.9924603">
<ele>467.40</ele>
<time>2021-06-26T10:18:40Z</time>
</trkpt>
<trkpt lat="47.2816294" lon="3.9927475">
<ele>474.26</ele>
<time>2021-06-26T10:18:48Z</time>
</trkpt>
<trkpt lat="47.2815243" lon="3.9929729">
<ele>477.00</ele>
<time>2021-06-26T10:18:57Z</time>
</trkpt>
<trkpt lat="47.2813497" lon="3.9929005">
<ele>476.91</ele>
<time>2021-06-26T10:19:05Z</time>
</trkpt>
<trkpt lat="47.2811633" lon="3.9927779">
<ele>478.13</ele>
<time>2021-06-26T10:19:12Z</time>
</trkpt>
<trkpt lat="47.2809922" lon="3.9926829">
<ele>477.19</ele>
<time>2021-06-26T10:19:18Z</time>
</trkpt>
<trkpt lat="47.2807863" lon="3.9926169">
<ele>478.83</ele>
<time>2021-06-26T10:19:24Z</time>
</trkpt>
<trkpt lat="47.2805960" lon="3.9927156">
<ele>481.50</ele>
<time>2021-06-26T10:19:30Z</time>
</trkpt>
<trkpt lat="47.2803938" lon="3.9927908">
<ele>480.53</ele>
<time>2021-06-26T10:19:38Z</time>
</trkpt>
<trkpt lat="47.2802138" lon="3.9928926">
<ele>478.43</ele>
<time>2021-06-26T10:19:45Z</time>
</trkpt>
<trkpt lat="47.2800292" lon="3.9929763">
<ele>479.18</ele>
<time>2021-06-26T10:19:53Z</time>
</trkpt>
<trkpt lat="47.2798455" lon="3.9930780">
<ele>481.97</ele>
<time>2021-06-26T10:20:03Z</time>
</trkpt>
<trkpt lat="47.2796690" lon="3.9931880">
<ele>484.26</ele>
<time>2021-06-26T10:20:14Z</time>
</trkpt>
<trkpt lat="47.2795042" lon="3.9933157">
<ele>486.01</ele>
<time>2021-06-26T10:20:24Z</time>
</trkpt>
<trkpt lat="47.2793444" lon="3.9934774">
<ele>489.37</ele>
<time>2021-06-26T10:20:33Z</time>
</trkpt>
<trkpt lat="47.2791956" lon="3.9936674">
<ele>489.77</ele>
<time>2021-06-26T10:20:41Z</time>
</trkpt>
<trkpt lat="47.2790946" lon="3.9938892">
<ele>491.34</ele>
<time>2021-06-26T10:20:49Z</time>
</trkpt>
<trkpt lat="47.2789666" lon="3.9940801">
<ele>492.10</ele>
<time>2021-06-26T10:20:55Z</time>
</trkpt>
<trkpt lat="47.2787823" lon="3.9940497">
<ele>491.03</ele>
<time>2021-06-26T10:21:04Z</time>
</trkpt>
<trkpt lat="47.2785973" lon="3.9939420">
<ele>494.71</ele>
<time>2021-06-26T10:21:13Z</time>
</trkpt>
<trkpt lat="47.2784224" lon="3.9938617">
<ele>496.23</ele>
<time>2021-06-26T10:21:22Z</time>
</trkpt>
<trkpt lat="47.2782548" lon="3.9937159">
<ele>498.94</ele>
<time>2021-06-26T10:21:31Z</time>
</trkpt>
<trkpt lat="47.2780963" lon="3.9935577">
<ele>499.61</ele>
<time>2021-06-26T10:21:41Z</time>
</trkpt>
<trkpt lat="47.2779309" lon="3.9934400">
<ele>500.06</ele>
<time>2021-06-26T10:21:49Z</time>
</trkpt>
<trkpt lat="47.2777505" lon="3.9933245">
<ele>514.39</ele>
<time>2021-06-26T10:21:59Z</time>
</trkpt>
<trkpt lat="47.2775520" lon="3.9932443">
<ele>518.01</ele>
<time>2021-06-26T10:22:07Z</time>
</trkpt>
<trkpt lat="47.2773754" lon="3.9931310">
<ele>519.14</ele>
<time>2021-06-26T10:22:15Z</time>
</trkpt>
<trkpt lat="47.2771929" lon="3.9930493">
<ele>519.61</ele>
<time>2021-06-26T10:22:23Z</time>
</trkpt>
<trkpt lat="47.2770054" lon="3.9930069">
<ele>520.96</ele>
<time>2021-06-26T10:22:29Z</time>
</trkpt>
<trkpt lat="47.2768302" lon="3.9929128">
<ele>526.27</ele>
<time>2021-06-26T10:22:36Z</time>
</trkpt>
<trkpt lat="47.2766467" lon="3.9928441">
<ele>526.89</ele>
<time>2021-06-26T10:22:44Z</time>
</trkpt>
<trkpt lat="47.2764562" lon="3.9927877">
<ele>523.58</ele>
<time>2021-06-26T10:22:51Z</time>
</trkpt>
<trkpt lat="47.2762804" lon="3.9927114">
<ele>525.82</ele>
<time>2021-06-26T10:23:00Z</time>
</trkpt>
<trkpt lat="47.2760973" lon="3.9926605">
<ele>525.87</ele>
<time>2021-06-26T10:23:07Z</time>
</trkpt>
<trkpt lat="47.2759019" lon="3.9926142">
<ele>524.18</ele>
<time>2021-06-26T10:23:14Z</time>
</trkpt>
<trkpt lat="47.2757199" lon="3.9925824">
<ele>525.56</ele>
<time>2021-06-26T10:23:20Z</time>
</trkpt>
<trkpt lat="47.2755138" lon="3.9925773">
<ele>522.97</ele>
<time>2021-06-26T10:23:27Z</time>
</trkpt>
<trkpt lat="47.2753201" lon="3.9925313">
<ele>518.43</ele>
<time>2021-06-26T10:23:35Z</time>
</trkpt>
<trkpt lat="47.2751355" lon="3.9925601">
<ele>517.79</ele>
<time>2021-06-26T10:23:42Z</time>
</trkpt>
<trkpt lat="47.2749352" lon="3.9926229">
<ele>518.61</ele>
<time>2021-06-26T10:23:49Z</time>
</trkpt>
<trkpt lat="47.2747375" lon="3.9926719">
<ele>519.13</ele>
<time>2021-06-26T10:23:56Z</time>
</trkpt>
<trkpt lat="47.2745486" lon="3.9925947">
<ele>519.95</ele>
<time>2021-06-26T10:24:02Z</time>
</trkpt>
<trkpt lat="47.2743921" lon="3.9924332">
<ele>524.86</ele>
<time>2021-06-26T10:24:10Z</time>
</trkpt>
<trkpt lat="47.2742080" lon="3.9923015">
<ele>525.73</ele>
<time>2021-06-26T10:24:17Z</time>
</trkpt>
<trkpt lat="47.2740383" lon="3.9921759">
<ele>527.05</ele>
<time>2021-06-26T10:24:24Z</time>
</trkpt>
<trkpt lat="47.2738537" lon="3.9922424">
<ele>526.26</ele>
<time>2021-06-26T10:24:30Z</time>
</trkpt>
<trkpt lat="47.2736700" lon="3.9922775">
<ele>526.20</ele>
<time>2021-06-26T10:24:37Z</time>
</trkpt>
<trkpt lat="47.2734781" lon="3.9922943">
<ele>525.87</ele>
<time>2021-06-26T10:24:46Z</time>
</trkpt>
<trkpt lat="47.2732772" lon="3.9922376">
<ele>527.59</ele>
<time>2021-06-26T10:24:54Z</time>
</trkpt>
<trkpt lat="47.2730885" lon="3.9921696">
<ele>528.43</ele>
<time>2021-06-26T10:25:07Z</time>
</trkpt>
<trkpt lat="47.2729062" lon="3.9921924">
<ele>528.60</ele>
<time>2021-06-26T10:25:16Z</time>
</trkpt>
<trkpt lat="47.2727205" lon="3.9922855">
<ele>531.25</ele>
<time>2021-06-26T10:25:23Z</time>
</trkpt>
<trkpt lat="47.2725165" lon="3.9923826">
<ele>529.56</ele>
<time>2021-06-26T10:25:28Z</time>
</trkpt>
<trkpt lat="47.2723375" lon="3.9925081">
<ele>529.11</ele>
<time>2021-06-26T10:25:32Z</time>
</trkpt>
<trkpt lat="47.2721571" lon="3.9926495">
<ele>529.08</ele>
<time>2021-06-26T10:25:36Z</time>
</trkpt>
<trkpt lat="47.2719725" lon="3.9927150">
<ele>525.74</ele>
<time>2021-06-26T10:25:40Z</time>
</trkpt>
<trkpt lat="47.2717903" lon="3.9928477">
<ele>524.56</ele>
<time>2021-06-26T10:25:44Z</time>
</trkpt>
<trkpt lat="47.2716094" lon="3.9929706">
<ele>524.60</ele>
<time>2021-06-26T10:25:48Z</time>
</trkpt>
<trkpt lat="47.2713788" lon="3.9931147">
<ele>525.39</ele>
<time>2021-06-26T10:25:52Z</time>
</trkpt>
<trkpt lat="47.2712209" lon="3.9932667">
<ele>526.01</ele>
<time>2021-06-26T10:25:56Z</time>
</trkpt>
<trkpt lat="47.2710050" lon="3.9933704">
<ele>525.55</ele>
<time>2021-06-26T10:26:00Z</time>
</trkpt>
<trkpt lat="47.2708033" lon="3.9933976">
<ele>525.88</ele>
<time>2021-06-26T10:26:05Z</time>
</trkpt>
<trkpt lat="47.2705687" lon="3.9934230">
<ele>526.45</ele>
<time>2021-06-26T10:26:10Z</time>
</trkpt>
<trkpt lat="47.2703705" lon="3.9934045">
<ele>529.37</ele>
<time>2021-06-26T10:26:16Z</time>
</trkpt>
<trkpt lat="47.2701681" lon="3.9933534">
<ele>526.67</ele>
<time>2021-06-26T10:26:24Z</time>
</trkpt>
<trkpt lat="47.2699484" lon="3.9933568">
<ele>526.38</ele>
<time>2021-06-26T10:26:29Z</time>
</trkpt>
<trkpt lat="47.2697210" lon="3.9933082">
<ele>525.62</ele>
<time>2021-06-26T10:26:33Z</time>
</trkpt>
<trkpt lat="47.2694939" lon="3.9932560">
<ele>527.55</ele>
<time>2021-06-26T10:26:37Z</time>
</trkpt>
<trkpt lat="47.2693187" lon="3.9931575">
<ele>528.14</ele>
<time>2021-06-26T10:26:40Z</time>
</trkpt>
<trkpt lat="47.2691012" lon="3.9930130">
<ele>527.14</ele>
<time>2021-06-26T10:26:43Z</time>
</trkpt>
<trkpt lat="47.2688755" lon="3.9928961">
<ele>525.55</ele>
<time>2021-06-26T10:26:46Z</time>
</trkpt>
<trkpt lat="47.2686734" lon="3.9927532">
<ele>523.28</ele>
<time>2021-06-26T10:26:49Z</time>
</trkpt>
<trkpt lat="47.2684727" lon="3.9926293">
<ele>523.03</ele>
<time>2021-06-26T10:26:52Z</time>
</trkpt>
<trkpt lat="47.2682973" lon="3.9924862">
<ele>521.83</ele>
<time>2021-06-26T10:26:55Z</time>
</trkpt>
<trkpt lat="47.2680903" lon="3.9924951">
<ele>518.91</ele>
<time>2021-06-26T10:26:58Z</time>
</trkpt>
<trkpt lat="47.2678505" lon="3.9925406">
<ele>517.74</ele>
<time>2021-06-26T10:27:01Z</time>
</trkpt>
<trkpt lat="47.2675987" lon="3.9926041">
<ele>516.48</ele>
<time>2021-06-26T10:27:04Z</time>
</trkpt>
<trkpt lat="47.2673438" lon="3.9927024">
<ele>514.10</ele>
<time>2021-06-26T10:27:07Z</time>
</trkpt>
<trkpt lat="47.2670955" lon="3.9927819">
<ele>512.98</ele>
<time>2021-06-26T10:27:10Z</time>
</trkpt>
<trkpt lat="47.2668231" lon="3.9928831">
<ele>515.26</ele>
<time>2021-06-26T10:27:13Z</time>
</trkpt>
<trkpt lat="47.2666295" lon="3.9929312">
<ele>514.47</ele>
<time>2021-06-26T10:27:15Z</time>
</trkpt>
<trkpt lat="47.2664273" lon="3.9929703">
<ele>513.23</ele>
<time>2021-06-26T10:27:17Z</time>
</trkpt>
<trkpt lat="47.2661658" lon="3.9930107">
<ele>510.99</ele>
<time>2021-06-26T10:27:20Z</time>
</trkpt>
<trkpt lat="47.2659765" lon="3.9929462">
<ele>512.41</ele>
<time>2021-06-26T10:27:22Z</time>
</trkpt>
<trkpt lat="47.2658071" lon="3.9928409">
<ele>512.08</ele>
<time>2021-06-26T10:27:24Z</time>
</trkpt>
<trkpt lat="47.2656356" lon="3.9927233">
<ele>509.12</ele>
<time>2021-06-26T10:27:26Z</time>
</trkpt>
<trkpt lat="47.2654720" lon="3.9926026">
<ele>506.99</ele>
<time>2021-06-26T10:27:28Z</time>
</trkpt>
<trkpt lat="47.2652752" lon="3.9924487">
<ele>505.31</ele>
<time>2021-06-26T10:27:31Z</time>
</trkpt>
<trkpt lat="47.2651038" lon="3.9923276">
<ele>506.62</ele>
<time>2021-06-26T10:27:34Z</time>
</trkpt>
<trkpt lat="47.2648963" lon="3.9922291">
<ele>514.99</ele>
<time>2021-06-26T10:27:39Z</time>
</trkpt>
<trkpt lat="47.2646911" lon="3.9922391">
<ele>510.78</ele>
<time>2021-06-26T10:27:45Z</time>
</trkpt>
<trkpt lat="47.2645055" lon="3.9922088">
<ele>506.55</ele>
<time>2021-06-26T10:27:51Z</time>
</trkpt>
<trkpt lat="47.2643266" lon="3.9921513">
<ele>508.07</ele>
<time>2021-06-26T10:27:58Z</time>
</trkpt>
<trkpt lat="47.2641545" lon="3.9920410">
<ele>510.04</ele>
<time>2021-06-26T10:28:06Z</time>
</trkpt>
<trkpt lat="47.2639801" lon="3.9919678">
<ele>510.78</ele>
<time>2021-06-26T10:28:13Z</time>
</trkpt>
<trkpt lat="47.2637983" lon="3.9919248">
<ele>512.23</ele>
<time>2021-06-26T10:28:20Z</time>
</trkpt>
<trkpt lat="47.2635923" lon="3.9919296">
<ele>514.25</ele>
<time>2021-06-26T10:28:27Z</time>
</trkpt>
<trkpt lat="47.2633950" lon="3.9919812">
<ele>516.52</ele>
<time>2021-06-26T10:28:34Z</time>
</trkpt>
<trkpt lat="47.2632124" lon="3.9920997">
<ele>518.41</ele>
<time>2021-06-26T10:28:42Z</time>
</trkpt>
<trkpt lat="47.2630504" lon="3.9922216">
<ele>520.01</ele>
<time>2021-06-26T10:28:50Z</time>
</trkpt>
<trkpt lat="47.2628877" lon="3.9923556">
<ele>522.39</ele>
<time>2021-06-26T10:28:58Z</time>
</trkpt>
<trkpt lat="47.2626955" lon="3.9923553">
<ele>523.08</ele>
<time>2021-06-26T10:29:06Z</time>
</trkpt>
<trkpt lat="47.2624976" lon="3.9923545">
<ele>524.77</ele>
<time>2021-06-26T10:29:14Z</time>
</trkpt>
<trkpt lat="47.2623342" lon="3.9922340">
<ele>524.22</ele>
<time>2021-06-26T10:29:20Z</time>
</trkpt>
<trkpt lat="47.2621693" lon="3.9920760">
<ele>525.72</ele>
<time>2021-06-26T10:29:27Z</time>
</trkpt>
<trkpt lat="47.2619919" lon="3.9920014">
<ele>527.35</ele>
<time>2021-06-26T10:29:33Z</time>
</trkpt>
<trkpt lat="47.2617928" lon="3.9919281">
<ele>526.27</ele>
<time>2021-06-26T10:29:39Z</time>
</trkpt>
<trkpt lat="47.2615857" lon="3.9918753">
<ele>525.66</ele>
<time>2021-06-26T10:29:44Z</time>
</trkpt>
<trkpt lat="47.2614005" lon="3.9918276">
<ele>526.18</ele>
<time>2021-06-26T10:29:48Z</time>
</trkpt>
<trkpt lat="47.2612171" lon="3.9918438">
<ele>525.53</ele>
<time>2021-06-26T10:29:52Z</time>
</trkpt>
<trkpt lat="47.2610181" lon="3.9919122">
<ele>526.24</ele>
<time>2021-06-26T10:29:59Z</time>
</trkpt>
<trkpt lat="47.2608556" lon="3.9920488">
<ele>524.99</ele>
<time>2021-06-26T10:30:05Z</time>
</trkpt>
<trkpt lat="47.2606958" lon="3.9922033">
<ele>523.97</ele>
<time>2021-06-26T10:30:10Z</time>
</trkpt>
<trkpt lat="47.2605367" lon="3.9923409">
<ele>525.24</ele>
<time>2021-06-26T10:30:16Z</time>
</trkpt>
<trkpt lat="47.2603511" lon="3.9924631">
<ele>525.55</ele>
<time>2021-06-26T10:30:23Z</time>
</trkpt>
<trkpt lat="47.2601589" lon="3.9925484">
<ele>526.72</ele>
<time>2021-06-26T10:30:31Z</time>
</trkpt>
<trkpt lat="47.2599927" lon="3.9926791">
<ele>528.75</ele>
<time>2021-06-26T10:30:38Z</time>
</trkpt>
<trkpt lat="47.2598271" lon="3.9928166">
<ele>529.15</ele>
<time>2021-06-26T10:30:46Z</time>
</trkpt>
<trkpt lat="47.2596595" lon="3.9929218">
<ele>529.00</ele>
<time>2021-06-26T10:30:52Z</time>
</trkpt>
<trkpt lat="47.2594690" lon="3.9930150">
<ele>527.60</ele>
<time>2021-06-26T10:31:00Z</time>
</trkpt>
<trkpt lat="47.2593042" lon="3.9931407">
<ele>528.19</ele>
<time>2021-06-26T10:31:06Z</time>
</trkpt>
<trkpt lat="47.2591212" lon="3.9931393">
<ele>531.16</ele>
<time>2021-06-26T10:31:13Z</time>
</trkpt>
<trkpt lat="47.2589446" lon="3.9930668">
<ele>532.10</ele>
<time>2021-06-26T10:31:21Z</time>
</trkpt>
<trkpt lat="47.2587690" lon="3.9929939">
<ele>533.71</ele>
<time>2021-06-26T10:31:30Z</time>
</trkpt>
<trkpt lat="47.2585751" lon="3.9929377">
<ele>534.66</ele>
<time>2021-06-26T10:31:37Z</time>
</trkpt>
<trkpt lat="47.2583907" lon="3.9929371">
<ele>535.60</ele>
<time>2021-06-26T10:31:45Z</time>
</trkpt>
<trkpt lat="47.2582068" lon="3.9929724">
<ele>538.74</ele>
<time>2021-06-26T10:31:53Z</time>
</trkpt>
<trkpt lat="47.2580283" lon="3.9930283">
<ele>539.49</ele>
<time>2021-06-26T10:32:02Z</time>
</trkpt>
<trkpt lat="47.2578350" lon="3.9929930">
<ele>537.65</ele>
<time>2021-06-26T10:32:10Z</time>
</trkpt>
<trkpt lat="47.2576525" lon="3.9928888">
<ele>540.75</ele>
<time>2021-06-26T10:32:19Z</time>
</trkpt>
<trkpt lat="47.2574668" lon="3.9928115">
<ele>544.24</ele>
<time>2021-06-26T10:32:28Z</time>
</trkpt>
<trkpt lat="47.2572960" lon="3.9926889">
<ele>549.14</ele>
<time>2021-06-26T10:32:38Z</time>
</trkpt>
<trkpt lat="47.2571917" lon="3.9924541">
<ele>559.60</ele>
<time>2021-06-26T10:32:47Z</time>
</trkpt>
<trkpt lat="47.2571125" lon="3.9922115">
<ele>563.16</ele>
<time>2021-06-26T10:32:56Z</time>
</trkpt>
<trkpt lat="47.2570333" lon="3.9919383">
<ele>562.50</ele>
<time>2021-06-26T10:33:05Z</time>
</trkpt>
<trkpt lat="47.2569576" lon="3.9916628">
<ele>561.88</ele>
<time>2021-06-26T10:33:12Z</time>
</trkpt>
<trkpt lat="47.2568549" lon="3.9914095">
<ele>564.75</ele>
<time>2021-06-26T10:33:18Z</time>
</trkpt>
<trkpt lat="47.2567470" lon="3.9911911">
<ele>567.09</ele>
<time>2021-06-26T10:33:26Z</time>
</trkpt>
<trkpt lat="47.2565690" lon="3.9910407">
<ele>561.40</ele>
<time>2021-06-26T10:33:33Z</time>
</trkpt>
<trkpt lat="47.2563975" lon="3.9909337">
<ele>560.95</ele>
<time>2021-06-26T10:33:39Z</time>
</trkpt>
<trkpt lat="47.2561970" lon="3.9908952">
<ele>564.99</ele>
<time>2021-06-26T10:33:45Z</time>
</trkpt>
<trkpt lat="47.2559869" lon="3.9909087">
<ele>566.56</ele>
<time>2021-06-26T10:33:52Z</time>
</trkpt>
<trkpt lat="47.2557893" lon="3.9909788">
<ele>568.14</ele>
<time>2021-06-26T10:33:57Z</time>
</trkpt>
<trkpt lat="47.2555836" lon="3.9910461">
<ele>542.63</ele>
<time>2021-06-26T10:34:04Z</time>
</trkpt>
<trkpt lat="47.2553851" lon="3.9911524">
<ele>547.87</ele>
<time>2021-06-26T10:34:11Z</time>
</trkpt>
<trkpt lat="47.2552025" lon="3.9912342">
<ele>545.93</ele>
<time>2021-06-26T10:34:17Z</time>
</trkpt>
<trkpt lat="47.2550071" lon="3.9913463">
<ele>547.43</ele>
<time>2021-06-26T10:34:24Z</time>
</trkpt>
<trkpt lat="47.2548572" lon="3.9914958">
<ele>545.87</ele>
<time>2021-06-26T10:34:32Z</time>
</trkpt>
<trkpt lat="47.2546936" lon="3.9916633">
<ele>540.95</ele>
<time>2021-06-26T10:34:40Z</time>
</trkpt>
<trkpt lat="47.2545282" lon="3.9917755">
<ele>548.12</ele>
<time>2021-06-26T10:34:46Z</time>
</trkpt>
<trkpt lat="47.2543876" lon="3.9919586">
<ele>558.20</ele>
<time>2021-06-26T10:34:52Z</time>
</trkpt>
<trkpt lat="47.2542517" lon="3.9921556">
<ele>558.33</ele>
<time>2021-06-26T10:34:58Z</time>
</trkpt>
<trkpt lat="47.2541362" lon="3.9923591">
<ele>558.62</ele>
<time>2021-06-26T10:35:04Z</time>
</trkpt>
<trkpt lat="47.2540072" lon="3.9925974">
<ele>559.75</ele>
<time>2021-06-26T10:35:10Z</time>
</trkpt>
<trkpt lat="47.2538713" lon="3.9928131">
<ele>558.91</ele>
<time>2021-06-26T10:35:17Z</time>
</trkpt>
<trkpt lat="47.2537538" lon="3.9930198">
<ele>559.82</ele>
<time>2021-06-26T10:35:24Z</time>
</trkpt>
<trkpt lat="47.2536256" lon="3.9932418">
<ele>556.17</ele>
<time>2021-06-26T10:35:32Z</time>
</trkpt>
<trkpt lat="47.2534788" lon="3.9934043">
<ele>557.64</ele>
<time>2021-06-26T10:35:39Z</time>
</trkpt>
<trkpt lat="47.2535538" lon="3.9937007">
<ele>556.26</ele>
<time>2021-06-26T10:35:47Z</time>
</trkpt>
<trkpt lat="47.2536123" lon="3.9939912">
<ele>573.15</ele>
<time>2021-06-26T10:37:45Z</time>
</trkpt>
<trkpt lat="47.2536875" lon="3.9943173">
<ele>570.88</ele>
<time>2021-06-26T10:37:50Z</time>
</trkpt>
<trkpt lat="47.2537082" lon="3.9946008">
<ele>569.04</ele>
<time>2021-06-26T10:37:53Z</time>
</trkpt>
<trkpt lat="47.2537072" lon="3.9949261">
<ele>567.15</ele>
<time>2021-06-26T10:37:56Z</time>
</trkpt>
<trkpt lat="47.2537416" lon="3.9952223">
<ele>567.69</ele>
<time>2021-06-26T10:37:59Z</time>
</trkpt>
<trkpt lat="47.2538232" lon="3.9954822">
<ele>567.17</ele>
<time>2021-06-26T10:38:02Z</time>
</trkpt>
<trkpt lat="47.2539352" lon="3.9957131">
<ele>565.78</ele>
<time>2021-06-26T10:38:05Z</time>
</trkpt>
<trkpt lat="47.2540594" lon="3.9959529">
<ele>564.77</ele>
<time>2021-06-26T10:38:08Z</time>
</trkpt>
<trkpt lat="47.2541920" lon="3.9961635">
<ele>564.26</ele>
<time>2021-06-26T10:38:11Z</time>
</trkpt>
<trkpt lat="47.2543282" lon="3.9963623">
<ele>563.56</ele>
<time>2021-06-26T10:38:14Z</time>
</trkpt>
<trkpt lat="47.2544801" lon="3.9965898">
<ele>563.27</ele>
<time>2021-06-26T10:38:18Z</time>
</trkpt>
<trkpt lat="47.2546377" lon="3.9967942">
<ele>561.75</ele>
<time>2021-06-26T10:38:22Z</time>
</trkpt>
<trkpt lat="47.2547945" lon="3.9970029">
<ele>562.38</ele>
<time>2021-06-26T10:38:26Z</time>
</trkpt>
<trkpt lat="47.2549257" lon="3.9972102">
<ele>562.52</ele>
<time>2021-06-26T10:38:31Z</time>
</trkpt>
<trkpt lat="47.2550512" lon="3.9974483">
<ele>562.12</ele>
<time>2021-06-26T10:38:41Z</time>
</trkpt>
<trkpt lat="47.2551881" lon="3.9976478">
<ele>561.99</ele>
<time>2021-06-26T10:38:47Z</time>
</trkpt>
<trkpt lat="47.2553204" lon="3.9978828">
<ele>562.45</ele>
<time>2021-06-26T10:38:53Z</time>
</trkpt>
<trkpt lat="47.2554307" lon="3.9981218">
<ele>560.20</ele>
<time>2021-06-26T10:38:59Z</time>
</trkpt>
<trkpt lat="47.2555468" lon="3.9983792">
<ele>562.01</ele>
<time>2021-06-26T10:39:05Z</time>
</trkpt>
<trkpt lat="47.2556561" lon="3.9985939">
<ele>561.18</ele>
<time>2021-06-26T10:39:10Z</time>
</trkpt>
<trkpt lat="47.2557551" lon="3.9988313">
<ele>562.20</ele>
<time>2021-06-26T10:39:16Z</time>
</trkpt>
<trkpt lat="47.2558913" lon="3.9990409">
<ele>563.02</ele>
<time>2021-06-26T10:39:20Z</time>
</trkpt>
<trkpt lat="47.2560076" lon="3.9993229">
<ele>566.37</ele>
<time>2021-06-26T10:39:25Z</time>
</trkpt>
<trkpt lat="47.2560920" lon="3.9996114">
<ele>567.29</ele>
<time>2021-06-26T10:39:30Z</time>
</trkpt>
<trkpt lat="47.2561561" lon="3.9998931">
<ele>565.59</ele>
<time>2021-06-26T10:39:34Z</time>
</trkpt>
<trkpt lat="47.2562268" lon="4.0001838">
<ele>563.38</ele>
<time>2021-06-26T10:39:38Z</time>
</trkpt>
<trkpt lat="47.2562947" lon="4.0004773">
<ele>561.95</ele>
<time>2021-06-26T10:39:42Z</time>
</trkpt>
<trkpt lat="47.2563717" lon="4.0007926">
<ele>560.62</ele>
<time>2021-06-26T10:39:46Z</time>
</trkpt>
<trkpt lat="47.2564350" lon="4.0010844">
<ele>561.53</ele>
<time>2021-06-26T10:39:50Z</time>
</trkpt>
<trkpt lat="47.2564557" lon="4.0013713">
<ele>566.78</ele>
<time>2021-06-26T10:39:54Z</time>
</trkpt>
<trkpt lat="47.2564024" lon="4.0016287">
<ele>566.00</ele>
<time>2021-06-26T10:39:58Z</time>
</trkpt>
<trkpt lat="47.2563456" lon="4.0019584">
<ele>564.17</ele>
<time>2021-06-26T10:40:02Z</time>
</trkpt>
<trkpt lat="47.2562822" lon="4.0022131">
<ele>561.43</ele>
<time>2021-06-26T10:40:07Z</time>
</trkpt>
<trkpt lat="47.2563540" lon="4.0024853">
<ele>556.97</ele>
<time>2021-06-26T10:40:18Z</time>
</trkpt>
<trkpt lat="47.2564481" lon="4.0027218">
<ele>556.81</ele>
<time>2021-06-26T10:40:25Z</time>
</trkpt>
<trkpt lat="47.2565777" lon="4.0029589">
<ele>560.40</ele>
<time>2021-06-26T10:40:32Z</time>
</trkpt>
<trkpt lat="47.2567580" lon="4.0030432">
<ele>559.76</ele>
<time>2021-06-26T10:40:38Z</time>
</trkpt>
<trkpt lat="47.2569511" lon="4.0031370">
<ele>562.28</ele>
<time>2021-06-26T10:40:45Z</time>
</trkpt>
<trkpt lat="47.2571396" lon="4.0031997">
<ele>564.18</ele>
<time>2021-06-26T10:40:52Z</time>
</trkpt>
<trkpt lat="47.2573353" lon="4.0032871">
<ele>567.49</ele>
<time>2021-06-26T10:41:00Z</time>
</trkpt>
<trkpt lat="47.2574925" lon="4.0034219">
<ele>568.35</ele>
<time>2021-06-26T10:41:07Z</time>
</trkpt>
<trkpt lat="47.2576432" lon="4.0036131">
<ele>568.70</ele>
<time>2021-06-26T10:41:15Z</time>
</trkpt>
<trkpt lat="47.2577920" lon="4.0038008">
<ele>567.89</ele>
<time>2021-06-26T10:41:23Z</time>
</trkpt>
<trkpt lat="47.2579387" lon="4.0039618">
<ele>567.57</ele>
<time>2021-06-26T10:41:30Z</time>
</trkpt>
<trkpt lat="47.2580865" lon="4.0041614">
<ele>567.44</ele>
<time>2021-06-26T10:41:36Z</time>
</trkpt>
<trkpt lat="47.2582080" lon="4.0043761">
<ele>567.83</ele>
<time>2021-06-26T10:41:41Z</time>
</trkpt>
<trkpt lat="47.2583089" lon="4.0046089">
<ele>567.80</ele>
<time>2021-06-26T10:41:46Z</time>
</trkpt>
<trkpt lat="47.2583841" lon="4.0048760">
<ele>567.13</ele>
<time>2021-06-26T10:41:51Z</time>
</trkpt>
<trkpt lat="47.2584466" lon="4.0051435">
<ele>567.04</ele>
<time>2021-06-26T10:41:55Z</time>
</trkpt>
<trkpt lat="47.2585287" lon="4.0054165">
<ele>566.53</ele>
<time>2021-06-26T10:41:59Z</time>
</trkpt>
<trkpt lat="47.2585966" lon="4.0057049">
<ele>565.92</ele>
<time>2021-06-26T10:42:03Z</time>
</trkpt>
<trkpt lat="47.2586317" lon="4.0059832">
<ele>565.48</ele>
<time>2021-06-26T10:42:07Z</time>
</trkpt>
<trkpt lat="47.2586678" lon="4.0062689">
<ele>566.00</ele>
<time>2021-06-26T10:42:12Z</time>
</trkpt>
<trkpt lat="47.2587830" lon="4.0064749">
<ele>566.62</ele>
<time>2021-06-26T10:42:19Z</time>
</trkpt>
<trkpt lat="47.2589653" lon="4.0065551">
<ele>566.31</ele>
<time>2021-06-26T10:42:24Z</time>
</trkpt>
<trkpt lat="47.2591603" lon="4.0066881">
<ele>566.37</ele>
<time>2021-06-26T10:42:29Z</time>
</trkpt>
<trkpt lat="47.2593244" lon="4.0068192">
<ele>567.09</ele>
<time>2021-06-26T10:42:34Z</time>
</trkpt>
<trkpt lat="47.2594843" lon="4.0070105">
<ele>567.63</ele>
<time>2021-06-26T10:42:40Z</time>
</trkpt>
<trkpt lat="47.2596014" lon="4.0072622">
<ele>567.71</ele>
<time>2021-06-26T10:42:46Z</time>
</trkpt>
<trkpt lat="47.2597310" lon="4.0074695">
<ele>568.04</ele>
<time>2021-06-26T10:42:52Z</time>
</trkpt>
<trkpt lat="47.2598498" lon="4.0077137">
<ele>568.89</ele>
<time>2021-06-26T10:42:59Z</time>
</trkpt>
<trkpt lat="47.2599549" lon="4.0079373">
<ele>569.86</ele>
<time>2021-06-26T10:43:05Z</time>
</trkpt>
<trkpt lat="47.2600736" lon="4.0081834">
<ele>570.94</ele>
<time>2021-06-26T10:43:12Z</time>
</trkpt>
<trkpt lat="47.2601826" lon="4.0083951">
<ele>571.58</ele>
<time>2021-06-26T10:43:18Z</time>
</trkpt>
<trkpt lat="47.2602917" lon="4.0086240">
<ele>572.68</ele>
<time>2021-06-26T10:43:25Z</time>
</trkpt>
<trkpt lat="47.2603789" lon="4.0088827">
<ele>572.70</ele>
<time>2021-06-26T10:43:33Z</time>
</trkpt>
<trkpt lat="47.2604527" lon="4.0091358">
<ele>574.79</ele>
<time>2021-06-26T10:43:40Z</time>
</trkpt>
<trkpt lat="47.2605627" lon="4.0093485">
<ele>572.91</ele>
<time>2021-06-26T10:43:48Z</time>
</trkpt>
<trkpt lat="47.2606751" lon="4.0096000">
<ele>576.35</ele>
<time>2021-06-26T10:43:55Z</time>
</trkpt>
<trkpt lat="47.2607638" lon="4.0098525">
<ele>578.42</ele>
<time>2021-06-26T10:44:03Z</time>
</trkpt>
<trkpt lat="47.2608592" lon="4.0101220">
<ele>579.09</ele>
<time>2021-06-26T10:44:10Z</time>
</trkpt>
<trkpt lat="47.2609654" lon="4.0103617">
<ele>580.79</ele>
<time>2021-06-26T10:44:17Z</time>
</trkpt>
<trkpt lat="47.2610744" lon="4.0106059">
<ele>583.30</ele>
<time>2021-06-26T10:44:24Z</time>
</trkpt>
<trkpt lat="47.2611920" lon="4.0108130">
<ele>588.81</ele>
<time>2021-06-26T10:44:31Z</time>
</trkpt>
<trkpt lat="47.2613033" lon="4.0110319">
<ele>588.18</ele>
<time>2021-06-26T10:44:38Z</time>
</trkpt>
<trkpt lat="47.2614013" lon="4.0112596">
<ele>589.93</ele>
<time>2021-06-26T10:44:46Z</time>
</trkpt>
<trkpt lat="47.2615331" lon="4.0114853">
<ele>593.51</ele>
<time>2021-06-26T10:44:54Z</time>
</trkpt>
<trkpt lat="47.2615943" lon="4.0117402">
<ele>592.90</ele>
<time>2021-06-26T10:45:02Z</time>
</trkpt>
<trkpt lat="47.2616901" lon="4.0119803">
<ele>593.95</ele>
<time>2021-06-26T10:45:10Z</time>
</trkpt>
<trkpt lat="47.2617792" lon="4.0122454">
<ele>594.88</ele>
<time>2021-06-26T10:45:17Z</time>
</trkpt>
<trkpt lat="47.2618458" lon="4.0125069">
<ele>593.26</ele>
<time>2021-06-26T10:45:25Z</time>
</trkpt>
<trkpt lat="47.2619065" lon="4.0128086">
<ele>595.77</ele>
<time>2021-06-26T10:45:33Z</time>
</trkpt>
<trkpt lat="47.2620203" lon="4.0130433">
<ele>597.02</ele>
<time>2021-06-26T10:45:38Z</time>
</trkpt>
<trkpt lat="47.2621544" lon="4.0132464">
<ele>595.75</ele>
<time>2021-06-26T10:45:43Z</time>
</trkpt>
<trkpt lat="47.2623001" lon="4.0134222">
<ele>597.64</ele>
<time>2021-06-26T10:45:47Z</time>
</trkpt>
<trkpt lat="47.2624594" lon="4.0136348">
<ele>599.08</ele>
<time>2021-06-26T10:45:51Z</time>
</trkpt>
<trkpt lat="47.2626147" lon="4.0138921">
<ele>598.56</ele>
<time>2021-06-26T10:45:55Z</time>
</trkpt>
<trkpt lat="47.2627437" lon="4.0141437">
<ele>597.80</ele>
<time>2021-06-26T10:45:59Z</time>
</trkpt>
<trkpt lat="47.2628500" lon="4.0143996">
<ele>595.08</ele>
<time>2021-06-26T10:46:04Z</time>
</trkpt>
<trkpt lat="47.2629760" lon="4.0146424">
<ele>594.41</ele>
<time>2021-06-26T10:46:08Z</time>
</trkpt>
<trkpt lat="47.2630888" lon="4.0148972">
<ele>594.69</ele>
<time>2021-06-26T10:46:12Z</time>
</trkpt>
<trkpt lat="47.2632342" lon="4.0151496">
<ele>594.81</ele>
<time>2021-06-26T10:46:16Z</time>
</trkpt>
<trkpt lat="47.2633677" lon="4.0153658">
<ele>596.20</ele>
<time>2021-06-26T10:46:20Z</time>
</trkpt>
<trkpt lat="47.2635308" lon="4.0155647">
<ele>597.19</ele>
<time>2021-06-26T10:46:24Z</time>
</trkpt>
<trkpt lat="47.2637030" lon="4.0157421">
<ele>597.17</ele>
<time>2021-06-26T10:46:28Z</time>
</trkpt>
<trkpt lat="47.2638583" lon="4.0159155">
<ele>596.06</ele>
<time>2021-06-26T10:46:32Z</time>
</trkpt>
<trkpt lat="47.2640171" lon="4.0160528">
<ele>595.52</ele>
<time>2021-06-26T10:46:36Z</time>
</trkpt>
<trkpt lat="47.2641807" lon="4.0162563">
<ele>593.17</ele>
<time>2021-06-26T10:46:40Z</time>
</trkpt>
<trkpt lat="47.2643192" lon="4.0164460">
<ele>590.81</ele>
<time>2021-06-26T10:46:45Z</time>
</trkpt>
<trkpt lat="47.2644543" lon="4.0166469">
<ele>588.92</ele>
<time>2021-06-26T10:46:55Z</time>
</trkpt>
<trkpt lat="47.2645619" lon="4.0168865">
<ele>587.97</ele>
<time>2021-06-26T10:46:59Z</time>
</trkpt>
<trkpt lat="47.2647011" lon="4.0170892">
<ele>586.61</ele>
<time>2021-06-26T10:47:02Z</time>
</trkpt>
<trkpt lat="47.2649136" lon="4.0172098">
<ele>586.78</ele>
<time>2021-06-26T10:47:05Z</time>
</trkpt>
<trkpt lat="47.2651041" lon="4.0173645">
<ele>584.43</ele>
<time>2021-06-26T10:47:08Z</time>
</trkpt>
<trkpt lat="47.2652703" lon="4.0175391">
<ele>583.40</ele>
<time>2021-06-26T10:47:11Z</time>
</trkpt>
<trkpt lat="47.2654192" lon="4.0177244">
<ele>581.88</ele>
<time>2021-06-26T10:47:14Z</time>
</trkpt>
<trkpt lat="47.2654899" lon="4.0180286">
<ele>578.88</ele>
<time>2021-06-26T10:47:17Z</time>
</trkpt>
<trkpt lat="47.2655159" lon="4.0183953">
<ele>577.46</ele>
<time>2021-06-26T10:47:20Z</time>
</trkpt>
<trkpt lat="47.2655017" lon="4.0187576">
<ele>575.49</ele>
<time>2021-06-26T10:47:23Z</time>
</trkpt>
<trkpt lat="47.2654907" lon="4.0190923">
<ele>574.93</ele>
<time>2021-06-26T10:47:26Z</time>
</trkpt>
<trkpt lat="47.2654863" lon="4.0194138">
<ele>573.28</ele>
<time>2021-06-26T10:47:29Z</time>
</trkpt>
<trkpt lat="47.2655554" lon="4.0197023">
<ele>573.65</ele>
<time>2021-06-26T10:47:32Z</time>
</trkpt>
<trkpt lat="47.2656470" lon="4.0199784">
<ele>573.28</ele>
<time>2021-06-26T10:47:35Z</time>
</trkpt>
<trkpt lat="47.2657047" lon="4.0202773">
<ele>574.39</ele>
<time>2021-06-26T10:47:38Z</time>
</trkpt>
<trkpt lat="47.2658495" lon="4.0205055">
<ele>573.25</ele>
<time>2021-06-26T10:47:41Z</time>
</trkpt>
<trkpt lat="47.2659982" lon="4.0206872">
<ele>572.42</ele>
<time>2021-06-26T10:47:44Z</time>
</trkpt>
<trkpt lat="47.2661316" lon="4.0209553">
<ele>573.14</ele>
<time>2021-06-26T10:47:47Z</time>
</trkpt>
<trkpt lat="47.2662712" lon="4.0212570">
<ele>571.73</ele>
<time>2021-06-26T10:47:50Z</time>
</trkpt>
<trkpt lat="47.2663394" lon="4.0215242">
<ele>566.80</ele>
<time>2021-06-26T10:47:53Z</time>
</trkpt>
<trkpt lat="47.2664527" lon="4.0218680">
<ele>560.51</ele>
<time>2021-06-26T10:47:56Z</time>
</trkpt>
<trkpt lat="47.2665270" lon="4.0221235">
<ele>558.22</ele>
<time>2021-06-26T10:47:58Z</time>
</trkpt>
<trkpt lat="47.2666154" lon="4.0224212">
<ele>557.44</ele>
<time>2021-06-26T10:48:01Z</time>
</trkpt>
<trkpt lat="47.2666981" lon="4.0226826">
<ele>557.46</ele>
<time>2021-06-26T10:48:08Z</time>
</trkpt>
<trkpt lat="47.2667981" lon="4.0229521">
<ele>556.91</ele>
<time>2021-06-26T10:48:17Z</time>
</trkpt>
<trkpt lat="47.2669244" lon="4.0231839">
<ele>556.08</ele>
<time>2021-06-26T10:48:23Z</time>
</trkpt>
<trkpt lat="47.2670190" lon="4.0234256">
<ele>556.71</ele>
<time>2021-06-26T10:48:28Z</time>
</trkpt>
<trkpt lat="47.2670884" lon="4.0237008">
<ele>557.24</ele>
<time>2021-06-26T10:48:33Z</time>
</trkpt>
<trkpt lat="47.2671600" lon="4.0239951">
<ele>556.91</ele>
<time>2021-06-26T10:48:38Z</time>
</trkpt>
<trkpt lat="47.2672794" lon="4.0242367">
<ele>556.88</ele>
<time>2021-06-26T10:48:42Z</time>
</trkpt>
<trkpt lat="47.2674135" lon="4.0244951">
<ele>555.64</ele>
<time>2021-06-26T10:48:46Z</time>
</trkpt>
<trkpt lat="47.2674801" lon="4.0247795">
<ele>553.25</ele>
<time>2021-06-26T10:48:49Z</time>
</trkpt>
<trkpt lat="47.2674567" lon="4.0251351">
<ele>552.06</ele>
<time>2021-06-26T10:48:52Z</time>
</trkpt>
<trkpt lat="47.2674303" lon="4.0255046">
<ele>550.85</ele>
<time>2021-06-26T10:48:55Z</time>
</trkpt>
<trkpt lat="47.2674474" lon="4.0258331">
<ele>549.96</ele>
<time>2021-06-26T10:48:58Z</time>
</trkpt>
<trkpt lat="47.2674942" lon="4.0261049">
<ele>549.11</ele>
<time>2021-06-26T10:49:01Z</time>
</trkpt>
<trkpt lat="47.2675945" lon="4.0264004">
<ele>549.75</ele>
<time>2021-06-26T10:49:05Z</time>
</trkpt>
<trkpt lat="47.2677718" lon="4.0266105">
<ele>550.13</ele>
<time>2021-06-26T10:49:10Z</time>
</trkpt>
<trkpt lat="47.2679656" lon="4.0266697">
<ele>551.09</ele>
<time>2021-06-26T10:49:15Z</time>
</trkpt>
<trkpt lat="47.2681817" lon="4.0266978">
<ele>551.90</ele>
<time>2021-06-26T10:49:20Z</time>
</trkpt>
<trkpt lat="47.2683846" lon="4.0267555">
<ele>552.69</ele>
<time>2021-06-26T10:49:25Z</time>
</trkpt>
<trkpt lat="47.2685782" lon="4.0268792">
<ele>553.43</ele>
<time>2021-06-26T10:49:30Z</time>
</trkpt>
<trkpt lat="47.2687077" lon="4.0270664">
<ele>553.25</ele>
<time>2021-06-26T10:49:35Z</time>
</trkpt>
<trkpt lat="47.2687299" lon="4.0273523">
<ele>554.05</ele>
<time>2021-06-26T10:49:41Z</time>
</trkpt>
<trkpt lat="47.2686281" lon="4.0276041">
<ele>552.32</ele>
<time>2021-06-26T10:49:49Z</time>
</trkpt>
<trkpt lat="47.2685025" lon="4.0278252">
<ele>552.92</ele>
<time>2021-06-26T10:49:56Z</time>
</trkpt>
<trkpt lat="47.2684217" lon="4.0280657">
<ele>553.80</ele>
<time>2021-06-26T10:50:03Z</time>
</trkpt>
<trkpt lat="47.2684093" lon="4.0283312">
<ele>556.04</ele>
<time>2021-06-26T10:50:10Z</time>
</trkpt>
<trkpt lat="47.2684967" lon="4.0285707">
<ele>559.45</ele>
<time>2021-06-26T10:50:18Z</time>
</trkpt>
<trkpt lat="47.2686309" lon="4.0287806">
<ele>561.70</ele>
<time>2021-06-26T10:50:28Z</time>
</trkpt>
<trkpt lat="47.2688150" lon="4.0287885">
<ele>563.30</ele>
<time>2021-06-26T10:50:36Z</time>
</trkpt>
<trkpt lat="47.2689964" lon="4.0288198">
<ele>561.87</ele>
<time>2021-06-26T10:50:44Z</time>
</trkpt>
<trkpt lat="47.2692015" lon="4.0288287">
<ele>562.68</ele>
<time>2021-06-26T10:50:51Z</time>
</trkpt>
<trkpt lat="47.2694060" lon="4.0288721">
<ele>562.26</ele>
<time>2021-06-26T10:50:57Z</time>
</trkpt>
<trkpt lat="47.2695930" lon="4.0289307">
<ele>562.38</ele>
<time>2021-06-26T10:51:03Z</time>
</trkpt>
<trkpt lat="47.2697652" lon="4.0290181">
<ele>562.33</ele>
<time>2021-06-26T10:51:08Z</time>
</trkpt>
<trkpt lat="47.2699426" lon="4.0291502">
<ele>563.11</ele>
<time>2021-06-26T10:51:14Z</time>
</trkpt>
<trkpt lat="47.2701176" lon="4.0292544">
<ele>562.78</ele>
<time>2021-06-26T10:51:20Z</time>
</trkpt>
<trkpt lat="47.2702981" lon="4.0293179">
<ele>564.60</ele>
<time>2021-06-26T10:51:26Z</time>
</trkpt>
<trkpt lat="47.2704605" lon="4.0294666">
<ele>567.70</ele>
<time>2021-06-26T10:51:35Z</time>
</trkpt>
<trkpt lat="47.2705815" lon="4.0296886">
<ele>567.61</ele>
<time>2021-06-26T10:51:43Z</time>
</trkpt>
<trkpt lat="47.2706790" lon="4.0299166">
<ele>568.76</ele>
<time>2021-06-26T10:51:50Z</time>
</trkpt>
<trkpt lat="47.2708248" lon="4.0300990">
<ele>569.45</ele>
<time>2021-06-26T10:51:57Z</time>
</trkpt>
<trkpt lat="47.2709747" lon="4.0302644">
<ele>569.96</ele>
<time>2021-06-26T10:52:03Z</time>
</trkpt>
<trkpt lat="47.2711407" lon="4.0304313">
<ele>570.06</ele>
<time>2021-06-26T10:52:09Z</time>
</trkpt>
<trkpt lat="47.2712814" lon="4.0306130">
<ele>569.20</ele>
<time>2021-06-26T10:52:15Z</time>
</trkpt>
<trkpt lat="47.2714297" lon="4.0307907">
<ele>569.21</ele>
<time>2021-06-26T10:52:21Z</time>
</trkpt>
<trkpt lat="47.2716107" lon="4.0309070">
<ele>568.83</ele>
<time>2021-06-26T10:52:26Z</time>
</trkpt>
<trkpt lat="47.2717881" lon="4.0310188">
<ele>568.39</ele>
<time>2021-06-26T10:52:31Z</time>
</trkpt>
<trkpt lat="47.2719805" lon="4.0311465">
<ele>568.13</ele>
<time>2021-06-26T10:52:36Z</time>
</trkpt>
<trkpt lat="47.2721600" lon="4.0312328">
<ele>567.74</ele>
<time>2021-06-26T10:52:40Z</time>
</trkpt>
<trkpt lat="47.2723575" lon="4.0313334">
<ele>566.85</ele>
<time>2021-06-26T10:52:44Z</time>
</trkpt>
<trkpt lat="47.2725785" lon="4.0313988">
<ele>567.07</ele>
<time>2021-06-26T10:52:48Z</time>
</trkpt>
<trkpt lat="47.2727632" lon="4.0314613">
<ele>564.89</ele>
<time>2021-06-26T10:52:51Z</time>
</trkpt>
<trkpt lat="47.2729732" lon="4.0315239">
<ele>563.19</ele>
<time>2021-06-26T10:52:54Z</time>
</trkpt>
<trkpt lat="47.2731515" lon="4.0316316">
<ele>562.06</ele>
<time>2021-06-26T10:52:57Z</time>
</trkpt>
<trkpt lat="47.2732779" lon="4.0318834">
<ele>559.99</ele>
<time>2021-06-26T10:53:00Z</time>
</trkpt>
<trkpt lat="47.2733510" lon="4.0321627">
<ele>558.43</ele>
<time>2021-06-26T10:53:03Z</time>
</trkpt>
<trkpt lat="47.2734008" lon="4.0324639">
<ele>556.91</ele>
<time>2021-06-26T10:53:06Z</time>
</trkpt>
<trkpt lat="47.2734481" lon="4.0327750">
<ele>556.29</ele>
<time>2021-06-26T10:53:09Z</time>
</trkpt>
<trkpt lat="47.2734722" lon="4.0330823">
<ele>555.17</ele>
<time>2021-06-26T10:53:12Z</time>
</trkpt>
<trkpt lat="47.2734859" lon="4.0334265">
<ele>553.59</ele>
<time>2021-06-26T10:53:15Z</time>
</trkpt>
<trkpt lat="47.2734744" lon="4.0338025">
<ele>552.30</ele>
<time>2021-06-26T10:53:18Z</time>
</trkpt>
<trkpt lat="47.2734749" lon="4.0341576">
<ele>550.19</ele>
<time>2021-06-26T10:53:21Z</time>
</trkpt>
<trkpt lat="47.2735623" lon="4.0344109">
<ele>548.73</ele>
<time>2021-06-26T10:53:24Z</time>
</trkpt>
<trkpt lat="47.2737721" lon="4.0344757">
<ele>545.34</ele>
<time>2021-06-26T10:53:27Z</time>
</trkpt>
<trkpt lat="47.2739659" lon="4.0344566">
<ele>544.08</ele>
<time>2021-06-26T10:53:32Z</time>
</trkpt>
<trkpt lat="47.2741476" lon="4.0344703">
<ele>542.30</ele>
<time>2021-06-26T10:54:44Z</time>
</trkpt>
<trkpt lat="47.2742906" lon="4.0346315">
<ele>541.54</ele>
<time>2021-06-26T10:54:51Z</time>
</trkpt>
<trkpt lat="47.2744579" lon="4.0347940">
<ele>541.29</ele>
<time>2021-06-26T10:54:59Z</time>
</trkpt>
<trkpt lat="47.2746048" lon="4.0349669">
<ele>541.90</ele>
<time>2021-06-26T10:55:05Z</time>
</trkpt>
<trkpt lat="47.2747172" lon="4.0351930">
<ele>541.56</ele>
<time>2021-06-26T10:55:11Z</time>
</trkpt>
<trkpt lat="47.2748300" lon="4.0354320">
<ele>541.58</ele>
<time>2021-06-26T10:55:20Z</time>
</trkpt>
<trkpt lat="47.2748917" lon="4.0357288">
<ele>540.27</ele>
<time>2021-06-26T10:55:27Z</time>
</trkpt>
<trkpt lat="47.2749564" lon="4.0360283">
<ele>542.16</ele>
<time>2021-06-26T10:55:32Z</time>
</trkpt>
<trkpt lat="47.2749956" lon="4.0363176">
<ele>540.50</ele>
<time>2021-06-26T10:55:36Z</time>
</trkpt>
<trkpt lat="47.2749750" lon="4.0366113">
<ele>540.27</ele>
<time>2021-06-26T10:55:40Z</time>
</trkpt>
<trkpt lat="47.2748810" lon="4.0368536">
<ele>541.21</ele>
<time>2021-06-26T10:55:44Z</time>
</trkpt>
<trkpt lat="47.2747262" lon="4.0370969">
<ele>541.68</ele>
<time>2021-06-26T10:55:49Z</time>
</trkpt>
<trkpt lat="47.2745602" lon="4.0372829">
<ele>539.91</ele>
<time>2021-06-26T10:55:53Z</time>
</trkpt>
<trkpt lat="47.2743784" lon="4.0374942">
<ele>539.09</ele>
<time>2021-06-26T10:55:57Z</time>
</trkpt>
<trkpt lat="47.2742391" lon="4.0376757">
<ele>539.40</ele>
<time>2021-06-26T10:56:00Z</time>
</trkpt>
<trkpt lat="47.2740939" lon="4.0378349">
<ele>537.89</ele>
<time>2021-06-26T10:56:03Z</time>
</trkpt>
<trkpt lat="47.2738953" lon="4.0379975">
<ele>534.17</ele>
<time>2021-06-26T10:56:07Z</time>
</trkpt>
<trkpt lat="47.2737142" lon="4.0382215">
<ele>529.95</ele>
<time>2021-06-26T10:56:11Z</time>
</trkpt>
<trkpt lat="47.2736666" lon="4.0384943">
<ele>529.27</ele>
<time>2021-06-26T10:56:14Z</time>
</trkpt>
<trkpt lat="47.2736330" lon="4.0388050">
<ele>530.68</ele>
<time>2021-06-26T10:56:17Z</time>
</trkpt>
<trkpt lat="47.2736218" lon="4.0391375">
<ele>532.04</ele>
<time>2021-06-26T10:56:20Z</time>
</trkpt>
<trkpt lat="47.2735897" lon="4.0394259">
<ele>528.78</ele>
<time>2021-06-26T10:56:23Z</time>
</trkpt>
<trkpt lat="47.2734473" lon="4.0396420">
<ele>512.05</ele>
<time>2021-06-26T10:56:27Z</time>
</trkpt>
<trkpt lat="47.2732642" lon="4.0396601">
<ele>510.66</ele>
<time>2021-06-26T10:56:30Z</time>
</trkpt>
<trkpt lat="47.2730712" lon="4.0396561">
<ele>506.67</ele>
<time>2021-06-26T10:56:41Z</time>
</trkpt>
<trkpt lat="47.2728604" lon="4.0395952">
<ele>507.49</ele>
<time>2021-06-26T10:56:46Z</time>
</trkpt>
<trkpt lat="47.2727128" lon="4.0394120">
<ele>506.05</ele>
<time>2021-06-26T10:56:50Z</time>
</trkpt>
<trkpt lat="47.2726700" lon="4.0391223">
<ele>505.52</ele>
<time>2021-06-26T10:56:54Z</time>
</trkpt>
<trkpt lat="47.2726456" lon="4.0388325">
<ele>507.07</ele>
<time>2021-06-26T10:56:59Z</time>
</trkpt>
<trkpt lat="47.2725411" lon="4.0385752">
<ele>502.84</ele>
<time>2021-06-26T10:57:04Z</time>
</trkpt>
<trkpt lat="47.2723474" lon="4.0386549">
<ele>500.74</ele>
<time>2021-06-26T10:57:08Z</time>
</trkpt>
<trkpt lat="47.2721917" lon="4.0388399">
<ele>499.41</ele>
<time>2021-06-26T10:57:12Z</time>
</trkpt>
<trkpt lat="47.2720572" lon="4.0390552">
<ele>496.64</ele>
<time>2021-06-26T10:57:16Z</time>
</trkpt>
<trkpt lat="47.2719049" lon="4.0392738">
<ele>493.42</ele>
<time>2021-06-26T10:57:20Z</time>
</trkpt>
<trkpt lat="47.2718253" lon="4.0395232">
<ele>495.00</ele>
<time>2021-06-26T10:57:24Z</time>
</trkpt>
<trkpt lat="47.2717245" lon="4.0398063">
<ele>495.59</ele>
<time>2021-06-26T10:57:29Z</time>
</trkpt>
<trkpt lat="47.2716193" lon="4.0400412">
<ele>487.67</ele>
<time>2021-06-26T10:57:33Z</time>
</trkpt>
<trkpt lat="47.2714494" lon="4.0401666">
<ele>484.92</ele>
<time>2021-06-26T10:57:36Z</time>
</trkpt>
<trkpt lat="47.2712659" lon="4.0400950">
<ele>481.85</ele>
<time>2021-06-26T10:57:40Z</time>
</trkpt>
<trkpt lat="47.2712067" lon="4.0403815">
<ele>476.63</ele>
<time>2021-06-26T10:57:46Z</time>
</trkpt>
<trkpt lat="47.2712502" lon="4.0406672">
<ele>473.83</ele>
<time>2021-06-26T10:57:49Z</time>
</trkpt>
<trkpt lat="47.2712283" lon="4.0409514">
<ele>472.87</ele>
<time>2021-06-26T10:57:52Z</time>
</trkpt>
<trkpt lat="47.2712787" lon="4.0412221">
<ele>467.51</ele>
<time>2021-06-26T10:57:55Z</time>
</trkpt>
<trkpt lat="47.2712885" lon="4.0415119">
<ele>466.01</ele>
<time>2021-06-26T10:58:00Z</time>
</trkpt>
<trkpt lat="47.2714378" lon="4.0416970">
<ele>469.55</ele>
<time>2021-06-26T10:58:41Z</time>
</trkpt>
<trkpt lat="47.2716249" lon="4.0416786">
<ele>475.32</ele>
<time>2021-06-26T10:58:48Z</time>
</trkpt>
<trkpt lat="47.2718109" lon="4.0416256">
<ele>475.27</ele>
<time>2021-06-26T10:58:54Z</time>
</trkpt>
<trkpt lat="47.2720019" lon="4.0416488">
<ele>475.74</ele>
<time>2021-06-26T10:58:59Z</time>
</trkpt>
<trkpt lat="47.2722145" lon="4.0416346">
<ele>472.72</ele>
<time>2021-06-26T10:59:07Z</time>
</trkpt>
<trkpt lat="47.2724266" lon="4.0416092">
<ele>474.22</ele>
<time>2021-06-26T10:59:13Z</time>
</trkpt>
<trkpt lat="47.2726233" lon="4.0416202">
<ele>474.57</ele>
<time>2021-06-26T10:59:21Z</time>
</trkpt>
<trkpt lat="47.2728582" lon="4.0416320">
<ele>477.46</ele>
<time>2021-06-26T10:59:26Z</time>
</trkpt>
<trkpt lat="47.2730601" lon="4.0416113">
<ele>477.69</ele>
<time>2021-06-26T10:59:29Z</time>
</trkpt>
<trkpt lat="47.2732720" lon="4.0415481">
<ele>480.30</ele>
<time>2021-06-26T10:59:33Z</time>
</trkpt>
<trkpt lat="47.2734509" lon="4.0414949">
<ele>480.52</ele>
<time>2021-06-26T10:59:37Z</time>
</trkpt>
<trkpt lat="47.2736541" lon="4.0415610">
<ele>480.78</ele>
<time>2021-06-26T10:59:43Z</time>
</trkpt>
<trkpt lat="47.2738531" lon="4.0415662">
<ele>482.08</ele>
<time>2021-06-26T10:59:48Z</time>
</trkpt>
<trkpt lat="47.2740404" lon="4.0415670">
<ele>481.68</ele>
<time>2021-06-26T10:59:51Z</time>
</trkpt>
<trkpt lat="47.2742397" lon="4.0416235">
<ele>479.98</ele>
<time>2021-06-26T10:59:58Z</time>
</trkpt>
<trkpt lat="47.2744331" lon="4.0416344">
<ele>479.96</ele>
<time>2021-06-26T11:00:04Z</time>
</trkpt>
<trkpt lat="47.2746892" lon="4.0415915">
<ele>477.01</ele>
<time>2021-06-26T11:00:09Z</time>
</trkpt>
<trkpt lat="47.2748912" lon="4.0415469">
<ele>480.24</ele>
<time>2021-06-26T11:00:14Z</time>
</trkpt>
<trkpt lat="47.2751376" lon="4.0415145">
<ele>481.86</ele>
<time>2021-06-26T11:00:19Z</time>
</trkpt>
<trkpt lat="47.2753583" lon="4.0415351">
<ele>480.54</ele>
<time>2021-06-26T11:00:24Z</time>
</trkpt>
<trkpt lat="47.2755804" lon="4.0414791">
<ele>470.16</ele>
<time>2021-06-26T11:00:32Z</time>
</trkpt>
<trkpt lat="47.2757616" lon="4.0414827">
<ele>470.09</ele>
<time>2021-06-26T11:00:35Z</time>
</trkpt>
<trkpt lat="47.2759705" lon="4.0415158">
<ele>468.13</ele>
<time>2021-06-26T11:00:38Z</time>
</trkpt>
<trkpt lat="47.2761740" lon="4.0415374">
<ele>467.47</ele>
<time>2021-06-26T11:00:43Z</time>
</trkpt>
<trkpt lat="47.2763923" lon="4.0416187">
<ele>470.13</ele>
<time>2021-06-26T11:00:49Z</time>
</trkpt>
<trkpt lat="47.2765730" lon="4.0416038">
<ele>470.96</ele>
<time>2021-06-26T11:00:53Z</time>
</trkpt>
<trkpt lat="47.2767649" lon="4.0415626">
<ele>469.93</ele>
<time>2021-06-26T11:00:57Z</time>
</trkpt>
<trkpt lat="47.2769660" lon="4.0415410">
<ele>469.72</ele>
<time>2021-06-26T11:01:00Z</time>
</trkpt>
<trkpt lat="47.2771689" lon="4.0414566">
<ele>471.64</ele>
<time>2021-06-26T11:01:04Z</time>
</trkpt>
<trkpt lat="47.2773529" lon="4.0413653">
<ele>471.77</ele>
<time>2021-06-26T11:01:09Z</time>
</trkpt>
<trkpt lat="47.2776054" lon="4.0412585">
<ele>472.84</ele>
<time>2021-06-26T11:01:12Z</time>
</trkpt>
<trkpt lat="47.2777900" lon="4.0411520">
<ele>474.17</ele>
<time>2021-06-26T11:01:17Z</time>
</trkpt>
<trkpt lat="47.2779760" lon="4.0410926">
<ele>471.81</ele>
<time>2021-06-26T11:01:23Z</time>
</trkpt>
<trkpt lat="47.2781456" lon="4.0409958">
<ele>467.72</ele>
<time>2021-06-26T11:01:34Z</time>
</trkpt>
<trkpt lat="47.2783069" lon="4.0408126">
<ele>467.89</ele>
<time>2021-06-26T11:02:06Z</time>
</trkpt>
<trkpt lat="47.2784903" lon="4.0407033">
<ele>467.15</ele>
<time>2021-06-26T11:02:12Z</time>
</trkpt>
<trkpt lat="47.2786303" lon="4.0405365">
<ele>464.56</ele>
<time>2021-06-26T11:02:19Z</time>
</trkpt>
<trkpt lat="47.2787670" lon="4.0403527">
<ele>469.92</ele>
<time>2021-06-26T11:02:31Z</time>
</trkpt>
<trkpt lat="47.2789500" lon="4.0402787">
<ele>470.26</ele>
<time>2021-06-26T11:02:37Z</time>
</trkpt>
<trkpt lat="47.2790634" lon="4.0400293">
<ele>469.29</ele>
<time>2021-06-26T11:02:44Z</time>
</trkpt>
<trkpt lat="47.2791783" lon="4.0398146">
<ele>467.04</ele>
<time>2021-06-26T11:02:51Z</time>
</trkpt>
<trkpt lat="47.2793539" lon="4.0397181">
<ele>468.67</ele>
<time>2021-06-26T11:02:58Z</time>
</trkpt>
<trkpt lat="47.2795342" lon="4.0398113">
<ele>467.33</ele>
<time>2021-06-26T11:03:14Z</time>
</trkpt>
<trkpt lat="47.2797014" lon="4.0396970">
<ele>464.01</ele>
<time>2021-06-26T11:03:30Z</time>
</trkpt>
<trkpt lat="47.2798827" lon="4.0396832">
<ele>472.27</ele>
<time>2021-06-26T11:04:04Z</time>
</trkpt>
<trkpt lat="47.2800617" lon="4.0395629">
<ele>468.82</ele>
<time>2021-06-26T11:04:15Z</time>
</trkpt>
<trkpt lat="47.2802336" lon="4.0394386">
<ele>470.09</ele>
<time>2021-06-26T11:04:23Z</time>
</trkpt>
<trkpt lat="47.2804026" lon="4.0393435">
<ele>467.06</ele>
<time>2021-06-26T11:04:30Z</time>
</trkpt>
<trkpt lat="47.2805950" lon="4.0393205">
<ele>466.10</ele>
<time>2021-06-26T11:04:38Z</time>
</trkpt>
<trkpt lat="47.2807654" lon="4.0391859">
<ele>462.83</ele>
<time>2021-06-26T11:05:00Z</time>
</trkpt>
<trkpt lat="47.2809584" lon="4.0392103">
<ele>468.88</ele>
<time>2021-06-26T11:05:10Z</time>
</trkpt>
<trkpt lat="47.2811446" lon="4.0391813">
<ele>471.00</ele>
<time>2021-06-26T11:05:19Z</time>
</trkpt>
<trkpt lat="47.2813580" lon="4.0391496">
<ele>469.84</ele>
<time>2021-06-26T11:05:24Z</time>
</trkpt>
<trkpt lat="47.2815502" lon="4.0391244">
<ele>466.70</ele>
<time>2021-06-26T11:05:28Z</time>
</trkpt>
<trkpt lat="47.2817422" lon="4.0391848">
<ele>461.89</ele>
<time>2021-06-26T11:05:33Z</time>
</trkpt>
<trkpt lat="47.2819279" lon="4.0392017">
<ele>460.99</ele>
<time>2021-06-26T11:05:36Z</time>
</trkpt>
<trkpt lat="47.2821216" lon="4.0393056">
<ele>463.13</ele>
<time>2021-06-26T11:05:41Z</time>
</trkpt>
<trkpt lat="47.2823269" lon="4.0393086">
<ele>459.56</ele>
<time>2021-06-26T11:05:45Z</time>
</trkpt>
<trkpt lat="47.2825326" lon="4.0393468">
<ele>479.38</ele>
<time>2021-06-26T11:05:50Z</time>
</trkpt>
<trkpt lat="47.2827388" lon="4.0394487">
<ele>475.64</ele>
<time>2021-06-26T11:05:56Z</time>
</trkpt>
<trkpt lat="47.2829266" lon="4.0395027">
<ele>469.89</ele>
<time>2021-06-26T11:06:01Z</time>
</trkpt>
<trkpt lat="47.2831410" lon="4.0395167">
<ele>466.37</ele>
<time>2021-06-26T11:06:07Z</time>
</trkpt>
<trkpt lat="47.2833239" lon="4.0395686">
<ele>467.29</ele>
<time>2021-06-26T11:06:13Z</time>
</trkpt>
<trkpt lat="47.2834923" lon="4.0396642">
<ele>465.19</ele>
<time>2021-06-26T11:06:18Z</time>
</trkpt>
<trkpt lat="47.2836668" lon="4.0397541">
<ele>468.18</ele>
<time>2021-06-26T11:06:25Z</time>
</trkpt>
<trkpt lat="47.2838514" lon="4.0398594">
<ele>462.65</ele>
<time>2021-06-26T11:06:29Z</time>
</trkpt>
<trkpt lat="47.2840360" lon="4.0398590">
<ele>466.83</ele>
<time>2021-06-26T11:06:35Z</time>
</trkpt>
<trkpt lat="47.2842030" lon="4.0396980">
<ele>466.33</ele>
<time>2021-06-26T11:06:42Z</time>
</trkpt>
<trkpt lat="47.2843845" lon="4.0396845">
<ele>471.39</ele>
<time>2021-06-26T11:06:48Z</time>
</trkpt>
<trkpt lat="47.2845551" lon="4.0397994">
<ele>471.87</ele>
<time>2021-06-26T11:06:58Z</time>
</trkpt>
<trkpt lat="47.2847073" lon="4.0399478">
<ele>478.17</ele>
<time>2021-06-26T11:07:18Z</time>
</trkpt>
<trkpt lat="47.2848928" lon="4.0400029">
<ele>477.30</ele>
<time>2021-06-26T11:07:47Z</time>
</trkpt>
<trkpt lat="47.2850988" lon="4.0400703">
<ele>480.86</ele>
<time>2021-06-26T11:07:54Z</time>
</trkpt>
<trkpt lat="47.2853217" lon="4.0399935">
<ele>482.10</ele>
<time>2021-06-26T11:08:00Z</time>
</trkpt>
<trkpt lat="47.2855114" lon="4.0399590">
<ele>475.31</ele>
<time>2021-06-26T11:08:03Z</time>
</trkpt>
<trkpt lat="47.2856923" lon="4.0399037">
<ele>483.13</ele>
<time>2021-06-26T11:08:07Z</time>
</trkpt>
<trkpt lat="47.2858862" lon="4.0398577">
<ele>481.65</ele>
<time>2021-06-26T11:08:12Z</time>
</trkpt>
<trkpt lat="47.2861079" lon="4.0398297">
<ele>475.37</ele>
<time>2021-06-26T11:08:15Z</time>
</trkpt>
<trkpt lat="47.2863045" lon="4.0398232">
<ele>483.02</ele>
<time>2021-06-26T11:08:20Z</time>
</trkpt>
<trkpt lat="47.2864889" lon="4.0397619">
<ele>471.57</ele>
<time>2021-06-26T11:08:23Z</time>
</trkpt>
<trkpt lat="47.2866983" lon="4.0397224">
<ele>451.37</ele>
<time>2021-06-26T11:08:27Z</time>
</trkpt>
<trkpt lat="47.2868815" lon="4.0397749">
<ele>458.46</ele>
<time>2021-06-26T11:08:34Z</time>
</trkpt>
<trkpt lat="47.2870902" lon="4.0398152">
<ele>458.03</ele>
<time>2021-06-26T11:08:42Z</time>
</trkpt>
<trkpt lat="47.2873123" lon="4.0397808">
<ele>456.07</ele>
<time>2021-06-26T11:08:46Z</time>
</trkpt>
<trkpt lat="47.2875296" lon="4.0396800">
<ele>451.98</ele>
<time>2021-06-26T11:08:51Z</time>
</trkpt>
<trkpt lat="47.2877268" lon="4.0395693">
<ele>450.96</ele>
<time>2021-06-26T11:08:55Z</time>
</trkpt>
<trkpt lat="47.2879566" lon="4.0394987">
<ele>449.48</ele>
<time>2021-06-26T11:08:59Z</time>
</trkpt>
<trkpt lat="47.2881563" lon="4.0393362">
<ele>449.13</ele>
<time>2021-06-26T11:09:03Z</time>
</trkpt>
<trkpt lat="47.2883527" lon="4.0392141">
<ele>448.59</ele>
<time>2021-06-26T11:09:07Z</time>
</trkpt>
<trkpt lat="47.2885392" lon="4.0390670">
<ele>447.38</ele>
<time>2021-06-26T11:09:11Z</time>
</trkpt>
<trkpt lat="47.2887209" lon="4.0389254">
<ele>447.73</ele>
<time>2021-06-26T11:09:15Z</time>
</trkpt>
<trkpt lat="47.2888767" lon="4.0387506">
<ele>445.95</ele>
<time>2021-06-26T11:09:19Z</time>
</trkpt>
<trkpt lat="47.2890555" lon="4.0385859">
<ele>445.68</ele>
<time>2021-06-26T11:09:23Z</time>
</trkpt>
<trkpt lat="47.2892363" lon="4.0383955">
<ele>444.49</ele>
<time>2021-06-26T11:09:27Z</time>
</trkpt>
<trkpt lat="47.2894209" lon="4.0381666">
<ele>443.34</ele>
<time>2021-06-26T11:09:31Z</time>
</trkpt>
<trkpt lat="47.2895596" lon="4.0379947">
<ele>443.31</ele>
<time>2021-06-26T11:09:34Z</time>
</trkpt>
<trkpt lat="47.2896859" lon="4.0378044">
<ele>442.60</ele>
<time>2021-06-26T11:09:37Z</time>
</trkpt>
<trkpt lat="47.2898122" lon="4.0376123">
<ele>442.17</ele>
<time>2021-06-26T11:09:40Z</time>
</trkpt>
<trkpt lat="47.2899994" lon="4.0373809">
<ele>441.58</ele>
<time>2021-06-26T11:09:44Z</time>
</trkpt>
<trkpt lat="47.2901546" lon="4.0372102">
<ele>441.10</ele>
<time>2021-06-26T11:09:47Z</time>
</trkpt>
<trkpt lat="47.2902850" lon="4.0370175">
<ele>440.80</ele>
<time>2021-06-26T11:09:50Z</time>
</trkpt>
<trkpt lat="47.2904335" lon="4.0368230">
<ele>439.84</ele>
<time>2021-06-26T11:09:53Z</time>
</trkpt>
<trkpt lat="47.2905842" lon="4.0366218">
<ele>439.22</ele>
<time>2021-06-26T11:09:56Z</time>
</trkpt>
<trkpt lat="47.2907730" lon="4.0364603">
<ele>440.02</ele>
<time>2021-06-26T11:09:59Z</time>
</trkpt>
<trkpt lat="47.2909670" lon="4.0363190">
<ele>439.27</ele>
<time>2021-06-26T11:10:02Z</time>
</trkpt>
<trkpt lat="47.2911856" lon="4.0362344">
<ele>439.86</ele>
<time>2021-06-26T11:10:05Z</time>
</trkpt>
<trkpt lat="47.2913933" lon="4.0361561">
<ele>438.84</ele>
<time>2021-06-26T11:10:08Z</time>
</trkpt>
<trkpt lat="47.2915992" lon="4.0360889">
<ele>436.92</ele>
<time>2021-06-26T11:10:11Z</time>
</trkpt>
<trkpt lat="47.2917983" lon="4.0360093">
<ele>435.61</ele>
<time>2021-06-26T11:10:14Z</time>
</trkpt>
<trkpt lat="47.2919822" lon="4.0359202">
<ele>435.83</ele>
<time>2021-06-26T11:10:17Z</time>
</trkpt>
<trkpt lat="47.2921567" lon="4.0358194">
<ele>436.25</ele>
<time>2021-06-26T11:10:20Z</time>
</trkpt>
<trkpt lat="47.2923256" lon="4.0356547">
<ele>439.02</ele>
<time>2021-06-26T11:10:23Z</time>
</trkpt>
<trkpt lat="47.2924920" lon="4.0355011">
<ele>439.62</ele>
<time>2021-06-26T11:10:26Z</time>
</trkpt>
<trkpt lat="47.2926437" lon="4.0353198">
<ele>437.69</ele>
<time>2021-06-26T11:10:29Z</time>
</trkpt>
<trkpt lat="47.2927989" lon="4.0351303">
<ele>436.25</ele>
<time>2021-06-26T11:10:32Z</time>
</trkpt>
<trkpt lat="47.2929540" lon="4.0349333">
<ele>447.56</ele>
<time>2021-06-26T11:10:35Z</time>
</trkpt>
<trkpt lat="47.2931206" lon="4.0347405">
<ele>446.01</ele>
<time>2021-06-26T11:10:38Z</time>
</trkpt>
<trkpt lat="47.2932856" lon="4.0345472">
<ele>444.91</ele>
<time>2021-06-26T11:10:41Z</time>
</trkpt>
<trkpt lat="47.2934570" lon="4.0343464">
<ele>443.23</ele>
<time>2021-06-26T11:10:44Z</time>
</trkpt>
<trkpt lat="47.2936235" lon="4.0341400">
<ele>443.34</ele>
<time>2021-06-26T11:10:47Z</time>
</trkpt>
<trkpt lat="47.2937956" lon="4.0339664">
<ele>443.18</ele>
<time>2021-06-26T11:10:50Z</time>
</trkpt>
<trkpt lat="47.2939607" lon="4.0337776">
<ele>442.73</ele>
<time>2021-06-26T11:10:53Z</time>
</trkpt>
<trkpt lat="47.2941215" lon="4.0335953">
<ele>442.82</ele>
<time>2021-06-26T11:10:56Z</time>
</trkpt>
<trkpt lat="47.2942698" lon="4.0334152">
<ele>442.06</ele>
<time>2021-06-26T11:10:59Z</time>
</trkpt>
<trkpt lat="47.2944092" lon="4.0332436">
<ele>441.54</ele>
<time>2021-06-26T11:11:02Z</time>
</trkpt>
<trkpt lat="47.2945777" lon="4.0330423">
<ele>441.10</ele>
<time>2021-06-26T11:11:06Z</time>
</trkpt>
<trkpt lat="47.2946624" lon="4.0327697">
<ele>441.19</ele>
<time>2021-06-26T11:11:11Z</time>
</trkpt>
<trkpt lat="47.2946886" lon="4.0324826">
<ele>441.01</ele>
<time>2021-06-26T11:11:16Z</time>
</trkpt>
<trkpt lat="47.2946125" lon="4.0322415">
<ele>426.04</ele>
<time>2021-06-26T11:18:47Z</time>
</trkpt>
<trkpt lat="47.2947029" lon="4.0324931">
<ele>433.39</ele>
<time>2021-06-26T12:10:07Z</time>
</trkpt>
<trkpt lat="47.2946209" lon="4.0327480">
<ele>431.47</ele>
<time>2021-06-26T12:10:15Z</time>
</trkpt>
<trkpt lat="47.2945152" lon="4.0330116">
<ele>431.11</ele>
<time>2021-06-26T12:10:22Z</time>
</trkpt>
<trkpt lat="47.2943948" lon="4.0332567">
<ele>430.51</ele>
<time>2021-06-26T12:10:28Z</time>
</trkpt>
<trkpt lat="47.2942558" lon="4.0334489">
<ele>431.45</ele>
<time>2021-06-26T12:10:34Z</time>
</trkpt>
<trkpt lat="47.2941045" lon="4.0336259">
<ele>432.50</ele>
<time>2021-06-26T12:10:40Z</time>
</trkpt>
<trkpt lat="47.2939343" lon="4.0337975">
<ele>431.37</ele>
<time>2021-06-26T12:10:46Z</time>
</trkpt>
<trkpt lat="47.2937840" lon="4.0339634">
<ele>429.95</ele>
<time>2021-06-26T12:10:52Z</time>
</trkpt>
<trkpt lat="47.2936385" lon="4.0341520">
<ele>431.16</ele>
<time>2021-06-26T12:10:59Z</time>
</trkpt>
<trkpt lat="47.2934781" lon="4.0343102">
<ele>434.17</ele>
<time>2021-06-26T12:11:05Z</time>
</trkpt>
<trkpt lat="47.2933280" lon="4.0345078">
<ele>435.95</ele>
<time>2021-06-26T12:11:12Z</time>
</trkpt>
<trkpt lat="47.2931595" lon="4.0346871">
<ele>434.72</ele>
<time>2021-06-26T12:11:20Z</time>
</trkpt>
<trkpt lat="47.2930028" lon="4.0348658">
<ele>434.68</ele>
<time>2021-06-26T12:11:28Z</time>
</trkpt>
<trkpt lat="47.2928524" lon="4.0350511">
<ele>438.84</ele>
<time>2021-06-26T12:11:35Z</time>
</trkpt>
<trkpt lat="47.2927141" lon="4.0352342">
<ele>441.89</ele>
<time>2021-06-26T12:11:41Z</time>
</trkpt>
<trkpt lat="47.2925477" lon="4.0353772">
<ele>445.98</ele>
<time>2021-06-26T12:11:51Z</time>
</trkpt>
<trkpt lat="47.2924430" lon="4.0356206">
<ele>448.22</ele>
<time>2021-06-26T12:12:02Z</time>
</trkpt>
<trkpt lat="47.2924654" lon="4.0359040">
<ele>443.28</ele>
<time>2021-06-26T12:12:14Z</time>
</trkpt>
<trkpt lat="47.2925225" lon="4.0361705">
<ele>443.87</ele>
<time>2021-06-26T12:12:29Z</time>
</trkpt>
<trkpt lat="47.2925794" lon="4.0364466">
<ele>445.75</ele>
<time>2021-06-26T12:12:42Z</time>
</trkpt>
<trkpt lat="47.2926112" lon="4.0367077">
<ele>448.98</ele>
<time>2021-06-26T12:12:55Z</time>
</trkpt>
<trkpt lat="47.2927082" lon="4.0369439">
<ele>457.05</ele>
<time>2021-06-26T12:13:07Z</time>
</trkpt>
<trkpt lat="47.2928201" lon="4.0371561">
<ele>455.16</ele>
<time>2021-06-26T12:13:21Z</time>
</trkpt>
<trkpt lat="47.2929313" lon="4.0373748">
<ele>456.94</ele>
<time>2021-06-26T12:13:32Z</time>
</trkpt>
<trkpt lat="47.2930182" lon="4.0376118">
<ele>474.36</ele>
<time>2021-06-26T12:13:47Z</time>
</trkpt>
<trkpt lat="47.2931037" lon="4.0378488">
<ele>477.01</ele>
<time>2021-06-26T12:14:03Z</time>
</trkpt>
<trkpt lat="47.2932051" lon="4.0380689">
<ele>480.31</ele>
<time>2021-06-26T12:14:18Z</time>
</trkpt>
<trkpt lat="47.2932979" lon="4.0383087">
<ele>478.76</ele>
<time>2021-06-26T12:15:44Z</time>
</trkpt>
<trkpt lat="47.2933855" lon="4.0385410">
<ele>476.58</ele>
<time>2021-06-26T12:15:58Z</time>
</trkpt>
<trkpt lat="47.2935044" lon="4.0387440">
<ele>475.01</ele>
<time>2021-06-26T12:16:10Z</time>
</trkpt>
<trkpt lat="47.2936070" lon="4.0389754">
<ele>477.32</ele>
<time>2021-06-26T12:16:23Z</time>
</trkpt>
<trkpt lat="47.2937089" lon="4.0392056">
<ele>480.85</ele>
<time>2021-06-26T12:16:34Z</time>
</trkpt>
<trkpt lat="47.2938149" lon="4.0394437">
<ele>480.80</ele>
<time>2021-06-26T12:16:42Z</time>
</trkpt>
<trkpt lat="47.2938254" lon="4.0397246">
<ele>480.85</ele>
<time>2021-06-26T12:16:51Z</time>
</trkpt>
<trkpt lat="47.2937775" lon="4.0399997">
<ele>487.84</ele>
<time>2021-06-26T12:17:28Z</time>
</trkpt>
<trkpt lat="47.2936686" lon="4.0402375">
<ele>488.46</ele>
<time>2021-06-26T12:17:37Z</time>
</trkpt>
<trkpt lat="47.2935577" lon="4.0404864">
<ele>489.27</ele>
<time>2021-06-26T12:17:46Z</time>
</trkpt>
<trkpt lat="47.2933921" lon="4.0406363">
<ele>490.54</ele>
<time>2021-06-26T12:17:55Z</time>
</trkpt>
<trkpt lat="47.2932663" lon="4.0408388">
<ele>491.37</ele>
<time>2021-06-26T12:18:04Z</time>
</trkpt>
<trkpt lat="47.2931254" lon="4.0410106">
<ele>492.21</ele>
<time>2021-06-26T12:18:14Z</time>
</trkpt>
<trkpt lat="47.2930013" lon="4.0412164">
<ele>491.51</ele>
<time>2021-06-26T12:18:22Z</time>
</trkpt>
<trkpt lat="47.2929369" lon="4.0414659">
<ele>492.63</ele>
<time>2021-06-26T12:18:29Z</time>
</trkpt>
<trkpt lat="47.2928376" lon="4.0416962">
<ele>495.43</ele>
<time>2021-06-26T12:18:37Z</time>
</trkpt>
<trkpt lat="47.2927551" lon="4.0419717">
<ele>496.19</ele>
<time>2021-06-26T12:18:46Z</time>
</trkpt>
<trkpt lat="47.2926975" lon="4.0422550">
<ele>498.08</ele>
<time>2021-06-26T12:18:54Z</time>
</trkpt>
<trkpt lat="47.2927480" lon="4.0425240">
<ele>496.87</ele>
<time>2021-06-26T12:19:02Z</time>
</trkpt>
<trkpt lat="47.2928309" lon="4.0427713">
<ele>495.59</ele>
<time>2021-06-26T12:19:11Z</time>
</trkpt>
<trkpt lat="47.2928555" lon="4.0430432">
<ele>499.33</ele>
<time>2021-06-26T12:19:21Z</time>
</trkpt>
<trkpt lat="47.2927751" lon="4.0433052">
<ele>500.06</ele>
<time>2021-06-26T12:19:31Z</time>
</trkpt>
<trkpt lat="47.2926732" lon="4.0435541">
<ele>502.07</ele>
<time>2021-06-26T12:19:40Z</time>
</trkpt>
<trkpt lat="47.2925565" lon="4.0437661">
<ele>502.29</ele>
<time>2021-06-26T12:19:49Z</time>
</trkpt>
<trkpt lat="47.2923861" lon="4.0438934">
<ele>503.37</ele>
<time>2021-06-26T12:19:57Z</time>
</trkpt>
<trkpt lat="47.2922146" lon="4.0440077">
<ele>507.44</ele>
<time>2021-06-26T12:20:04Z</time>
</trkpt>
<trkpt lat="47.2920504" lon="4.0441602">
<ele>512.13</ele>
<time>2021-06-26T12:20:12Z</time>
</trkpt>
<trkpt lat="47.2919323" lon="4.0443734">
<ele>508.52</ele>
<time>2021-06-26T12:20:20Z</time>
</trkpt>
<trkpt lat="47.2919108" lon="4.0446512">
<ele>510.73</ele>
<time>2021-06-26T12:20:27Z</time>
</trkpt>
<trkpt lat="47.2920258" lon="4.0448746">
<ele>517.23</ele>
<time>2021-06-26T12:20:35Z</time>
</trkpt>
<trkpt lat="47.2921403" lon="4.0451131">
<ele>504.24</ele>
<time>2021-06-26T12:20:44Z</time>
</trkpt>
<trkpt lat="47.2922831" lon="4.0452992">
<ele>505.07</ele>
<time>2021-06-26T12:20:52Z</time>
</trkpt>
<trkpt lat="47.2923896" lon="4.0455216">
<ele>507.91</ele>
<time>2021-06-26T12:21:00Z</time>
</trkpt>
<trkpt lat="47.2925123" lon="4.0457491">
<ele>512.82</ele>
<time>2021-06-26T12:21:09Z</time>
</trkpt>
<trkpt lat="47.2926111" lon="4.0459912">
<ele>516.86</ele>
<time>2021-06-26T12:21:17Z</time>
</trkpt>
<trkpt lat="47.2927239" lon="4.0462104">
<ele>522.67</ele>
<time>2021-06-26T12:21:24Z</time>
</trkpt>
<trkpt lat="47.2927931" lon="4.0464650">
<ele>521.63</ele>
<time>2021-06-26T12:21:32Z</time>
</trkpt>
<trkpt lat="47.2928383" lon="4.0467255">
<ele>523.85</ele>
<time>2021-06-26T12:21:39Z</time>
</trkpt>
<trkpt lat="47.2928781" lon="4.0470212">
<ele>525.98</ele>
<time>2021-06-26T12:21:47Z</time>
</trkpt>
<trkpt lat="47.2928052" lon="4.0472831">
<ele>526.82</ele>
<time>2021-06-26T12:21:55Z</time>
</trkpt>
<trkpt lat="47.2926601" lon="4.0474549">
<ele>528.29</ele>
<time>2021-06-26T12:22:02Z</time>
</trkpt>
<trkpt lat="47.2925732" lon="4.0477156">
<ele>528.85</ele>
<time>2021-06-26T12:22:09Z</time>
</trkpt>
<trkpt lat="47.2925942" lon="4.0479879">
<ele>530.38</ele>
<time>2021-06-26T12:22:16Z</time>
</trkpt>
<trkpt lat="47.2926936" lon="4.0482273">
<ele>531.60</ele>
<time>2021-06-26T12:22:24Z</time>
</trkpt>
<trkpt lat="47.2928092" lon="4.0484498">
<ele>532.77</ele>
<time>2021-06-26T12:22:32Z</time>
</trkpt>
<trkpt lat="47.2929307" lon="4.0486678">
<ele>534.18</ele>
<time>2021-06-26T12:22:40Z</time>
</trkpt>
<trkpt lat="47.2930516" lon="4.0488972">
<ele>535.55</ele>
<time>2021-06-26T12:22:48Z</time>
</trkpt>
<trkpt lat="47.2931439" lon="4.0491620">
<ele>536.10</ele>
<time>2021-06-26T12:22:56Z</time>
</trkpt>
<trkpt lat="47.2932279" lon="4.0494233">
<ele>537.47</ele>
<time>2021-06-26T12:23:04Z</time>
</trkpt>
<trkpt lat="47.2932790" lon="4.0496983">
<ele>538.36</ele>
<time>2021-06-26T12:23:12Z</time>
</trkpt>
<trkpt lat="47.2932915" lon="4.0499779">
<ele>538.91</ele>
<time>2021-06-26T12:23:20Z</time>
</trkpt>
<trkpt lat="47.2933026" lon="4.0502666">
<ele>540.07</ele>
<time>2021-06-26T12:23:28Z</time>
</trkpt>
<trkpt lat="47.2932628" lon="4.0505442">
<ele>541.17</ele>
<time>2021-06-26T12:23:36Z</time>
</trkpt>
<trkpt lat="47.2931775" lon="4.0508176">
<ele>542.39</ele>
<time>2021-06-26T12:23:44Z</time>
</trkpt>
<trkpt lat="47.2930499" lon="4.0510113">
<ele>544.66</ele>
<time>2021-06-26T12:23:51Z</time>
</trkpt>
<trkpt lat="47.2929055" lon="4.0512082">
<ele>544.78</ele>
<time>2021-06-26T12:23:58Z</time>
</trkpt>
<trkpt lat="47.2927991" lon="4.0514331">
<ele>547.23</ele>
<time>2021-06-26T12:24:06Z</time>
</trkpt>
<trkpt lat="47.2926847" lon="4.0516651">
<ele>542.08</ele>
<time>2021-06-26T12:24:15Z</time>
</trkpt>
<trkpt lat="47.2925637" lon="4.0518770">
<ele>530.34</ele>
<time>2021-06-26T12:24:24Z</time>
</trkpt>
<trkpt lat="47.2924381" lon="4.0520717">
<ele>538.76</ele>
<time>2021-06-26T12:24:31Z</time>
</trkpt>
<trkpt lat="47.2922785" lon="4.0522126">
<ele>534.77</ele>
<time>2021-06-26T12:24:39Z</time>
</trkpt>
<trkpt lat="47.2921088" lon="4.0523101">
<ele>520.61</ele>
<time>2021-06-26T12:24:46Z</time>
</trkpt>
<trkpt lat="47.2919529" lon="4.0524729">
<ele>518.05</ele>
<time>2021-06-26T12:24:53Z</time>
</trkpt>
<trkpt lat="47.2918221" lon="4.0526628">
<ele>532.68</ele>
<time>2021-06-26T12:25:00Z</time>
</trkpt>
<trkpt lat="47.2917634" lon="4.0529215">
<ele>576.24</ele>
<time>2021-06-26T12:25:06Z</time>
</trkpt>
<trkpt lat="47.2916903" lon="4.0531901">
<ele>538.15</ele>
<time>2021-06-26T12:25:13Z</time>
</trkpt>
<trkpt lat="47.2916469" lon="4.0534598">
<ele>534.61</ele>
<time>2021-06-26T12:25:21Z</time>
</trkpt>
<trkpt lat="47.2916937" lon="4.0537160">
<ele>527.47</ele>
<time>2021-06-26T12:25:27Z</time>
</trkpt>
<trkpt lat="47.2917763" lon="4.0539743">
<ele>533.55</ele>
<time>2021-06-26T12:25:35Z</time>
</trkpt>
<trkpt lat="47.2918310" lon="4.0542467">
<ele>543.88</ele>
<time>2021-06-26T12:25:42Z</time>
</trkpt>
<trkpt lat="47.2919049" lon="4.0545044">
<ele>559.20</ele>
<time>2021-06-26T12:25:48Z</time>
</trkpt>
<trkpt lat="47.2919320" lon="4.0547942">
<ele>559.90</ele>
<time>2021-06-26T12:25:55Z</time>
</trkpt>
<trkpt lat="47.2919166" lon="4.0550668">
<ele>557.72</ele>
<time>2021-06-26T12:26:01Z</time>
</trkpt>
<trkpt lat="47.2918624" lon="4.0553306">
<ele>561.39</ele>
<time>2021-06-26T12:26:06Z</time>
</trkpt>
<trkpt lat="47.2917723" lon="4.0555761">
<ele>563.17</ele>
<time>2021-06-26T12:26:11Z</time>
</trkpt>
<trkpt lat="47.2916404" lon="4.0558065">
<ele>562.30</ele>
<time>2021-06-26T12:26:16Z</time>
</trkpt>
<trkpt lat="47.2914805" lon="4.0559735">
<ele>557.81</ele>
<time>2021-06-26T12:26:21Z</time>
</trkpt>
<trkpt lat="47.2913128" lon="4.0560979">
<ele>562.24</ele>
<time>2021-06-26T12:26:27Z</time>
</trkpt>
<trkpt lat="47.2913464" lon="4.0563679">
<ele>561.60</ele>
<time>2021-06-26T12:26:38Z</time>
</trkpt>
<trkpt lat="47.2914658" lon="4.0566224">
<ele>558.08</ele>
<time>2021-06-26T12:26:46Z</time>
</trkpt>
<trkpt lat="47.2916049" lon="4.0568647">
<ele>552.25</ele>
<time>2021-06-26T12:26:52Z</time>
</trkpt>
<trkpt lat="47.2917258" lon="4.0570641">
<ele>558.48</ele>
<time>2021-06-26T12:26:56Z</time>
</trkpt>
<trkpt lat="47.2918430" lon="4.0572932">
<ele>588.74</ele>
<time>2021-06-26T12:27:00Z</time>
</trkpt>
<trkpt lat="47.2919419" lon="4.0575857">
<ele>594.82</ele>
<time>2021-06-26T12:27:04Z</time>
</trkpt>
<trkpt lat="47.2919631" lon="4.0578629">
<ele>594.07</ele>
<time>2021-06-26T12:27:07Z</time>
</trkpt>
<trkpt lat="47.2919259" lon="4.0581761">
<ele>593.25</ele>
<time>2021-06-26T12:27:10Z</time>
</trkpt>
<trkpt lat="47.2918801" lon="4.0585082">
<ele>591.79</ele>
<time>2021-06-26T12:27:13Z</time>
</trkpt>
<trkpt lat="47.2918454" lon="4.0588891">
<ele>589.72</ele>
<time>2021-06-26T12:27:16Z</time>
</trkpt>
<trkpt lat="47.2918133" lon="4.0592816">
<ele>589.53</ele>
<time>2021-06-26T12:27:19Z</time>
</trkpt>
<trkpt lat="47.2917739" lon="4.0595459">
<ele>588.44</ele>
<time>2021-06-26T12:27:21Z</time>
</trkpt>
<trkpt lat="47.2917418" lon="4.0598115">
<ele>588.28</ele>
<time>2021-06-26T12:27:23Z</time>
</trkpt>
<trkpt lat="47.2917516" lon="4.0601471">
<ele>585.24</ele>
<time>2021-06-26T12:27:26Z</time>
</trkpt>
<trkpt lat="47.2919353" lon="4.0603379">
<ele>583.77</ele>
<time>2021-06-26T12:27:29Z</time>
</trkpt>
<trkpt lat="47.2921468" lon="4.0603820">
<ele>582.92</ele>
<time>2021-06-26T12:27:32Z</time>
</trkpt>
<trkpt lat="47.2923586" lon="4.0603019">
<ele>581.86</ele>
<time>2021-06-26T12:27:35Z</time>
</trkpt>
<trkpt lat="47.2925539" lon="4.0601808">
<ele>581.09</ele>
<time>2021-06-26T12:27:39Z</time>
</trkpt>
<trkpt lat="47.2927425" lon="4.0600689">
<ele>581.13</ele>
<time>2021-06-26T12:27:43Z</time>
</trkpt>
<trkpt lat="47.2929427" lon="4.0599594">
<ele>582.03</ele>
<time>2021-06-26T12:27:47Z</time>
</trkpt>
<trkpt lat="47.2931785" lon="4.0599123">
<ele>584.88</ele>
<time>2021-06-26T12:27:51Z</time>
</trkpt>
<trkpt lat="47.2933636" lon="4.0599047">
<ele>584.29</ele>
<time>2021-06-26T12:27:54Z</time>
</trkpt>
<trkpt lat="47.2935602" lon="4.0599063">
<ele>582.72</ele>
<time>2021-06-26T12:27:57Z</time>
</trkpt>
<trkpt lat="47.2937489" lon="4.0598572">
<ele>581.35</ele>
<time>2021-06-26T12:28:00Z</time>
</trkpt>
<trkpt lat="47.2939228" lon="4.0597695">
<ele>580.59</ele>
<time>2021-06-26T12:28:03Z</time>
</trkpt>
<trkpt lat="47.2941048" lon="4.0596889">
<ele>579.62</ele>
<time>2021-06-26T12:28:06Z</time>
</trkpt>
<trkpt lat="47.2942747" lon="4.0595970">
<ele>578.50</ele>
<time>2021-06-26T12:28:09Z</time>
</trkpt>
<trkpt lat="47.2944806" lon="4.0595765">
<ele>576.70</ele>
<time>2021-06-26T12:28:12Z</time>
</trkpt>
<trkpt lat="47.2946639" lon="4.0596405">
<ele>578.67</ele>
<time>2021-06-26T12:28:15Z</time>
</trkpt>
<trkpt lat="47.2948816" lon="4.0597178">
<ele>577.54</ele>
<time>2021-06-26T12:28:19Z</time>
</trkpt>
<trkpt lat="47.2950918" lon="4.0597205">
<ele>577.88</ele>
<time>2021-06-26T12:28:24Z</time>
</trkpt>
<trkpt lat="47.2953052" lon="4.0597669">
<ele>580.26</ele>
<time>2021-06-26T12:28:31Z</time>
</trkpt>
<trkpt lat="47.2954973" lon="4.0598474">
<ele>579.65</ele>
<time>2021-06-26T12:28:37Z</time>
</trkpt>
<trkpt lat="47.2956820" lon="4.0599567">
<ele>580.89</ele>
<time>2021-06-26T12:28:43Z</time>
</trkpt>
<trkpt lat="47.2958612" lon="4.0600940">
<ele>581.99</ele>
<time>2021-06-26T12:28:49Z</time>
</trkpt>
<trkpt lat="47.2959807" lon="4.0602991">
<ele>582.78</ele>
<time>2021-06-26T12:28:55Z</time>
</trkpt>
<trkpt lat="47.2960844" lon="4.0605247">
<ele>583.10</ele>
<time>2021-06-26T12:29:01Z</time>
</trkpt>
<trkpt lat="47.2961763" lon="4.0607831">
<ele>582.32</ele>
<time>2021-06-26T12:29:07Z</time>
</trkpt>
<trkpt lat="47.2962305" lon="4.0610378">
<ele>582.68</ele>
<time>2021-06-26T12:29:12Z</time>
</trkpt>
<trkpt lat="47.2963177" lon="4.0613496">
<ele>583.46</ele>
<time>2021-06-26T12:29:18Z</time>
</trkpt>
<trkpt lat="47.2964328" lon="4.0615957">
<ele>585.25</ele>
<time>2021-06-26T12:29:23Z</time>
</trkpt>
<trkpt lat="47.2965154" lon="4.0618324">
<ele>588.26</ele>
<time>2021-06-26T12:29:28Z</time>
</trkpt>
<trkpt lat="47.2965843" lon="4.0620802">
<ele>589.74</ele>
<time>2021-06-26T12:29:33Z</time>
</trkpt>
<trkpt lat="47.2966789" lon="4.0623391">
<ele>589.72</ele>
<time>2021-06-26T12:29:38Z</time>
</trkpt>
<trkpt lat="47.2967887" lon="4.0625828">
<ele>588.74</ele>
<time>2021-06-26T12:29:43Z</time>
</trkpt>
<trkpt lat="47.2969339" lon="4.0628192">
<ele>590.86</ele>
<time>2021-06-26T12:29:49Z</time>
</trkpt>
<trkpt lat="47.2971280" lon="4.0629454">
<ele>591.70</ele>
<time>2021-06-26T12:29:55Z</time>
</trkpt>
<trkpt lat="47.2973191" lon="4.0629998">
<ele>591.54</ele>
<time>2021-06-26T12:30:00Z</time>
</trkpt>
<trkpt lat="47.2975157" lon="4.0630023">
<ele>591.26</ele>
<time>2021-06-26T12:30:06Z</time>
</trkpt>
<trkpt lat="47.2977030" lon="4.0629733">
<ele>593.38</ele>
<time>2021-06-26T12:30:11Z</time>
</trkpt>
<trkpt lat="47.2978920" lon="4.0629698">
<ele>593.06</ele>
<time>2021-06-26T12:30:16Z</time>
</trkpt>
<trkpt lat="47.2980847" lon="4.0630218">
<ele>593.09</ele>
<time>2021-06-26T12:30:21Z</time>
</trkpt>
<trkpt lat="47.2982563" lon="4.0631126">
<ele>595.26</ele>
<time>2021-06-26T12:30:26Z</time>
</trkpt>
<trkpt lat="47.2984086" lon="4.0632997">
<ele>594.24</ele>
<time>2021-06-26T12:30:32Z</time>
</trkpt>
<trkpt lat="47.2985861" lon="4.0634022">
<ele>597.97</ele>
<time>2021-06-26T12:30:40Z</time>
</trkpt>
<trkpt lat="47.2987761" lon="4.0634339">
<ele>599.13</ele>
<time>2021-06-26T12:30:45Z</time>
</trkpt>
<trkpt lat="47.2989846" lon="4.0635258">
<ele>597.15</ele>
<time>2021-06-26T12:30:50Z</time>
</trkpt>
<trkpt lat="47.2991565" lon="4.0637133">
<ele>594.80</ele>
<time>2021-06-26T12:30:55Z</time>
</trkpt>
<trkpt lat="47.2993151" lon="4.0638755">
<ele>595.48</ele>
<time>2021-06-26T12:31:00Z</time>
</trkpt>
<trkpt lat="47.2994975" lon="4.0640330">
<ele>596.39</ele>
<time>2021-06-26T12:31:04Z</time>
</trkpt>
<trkpt lat="47.2996393" lon="4.0642749">
<ele>597.76</ele>
<time>2021-06-26T12:31:09Z</time>
</trkpt>
<trkpt lat="47.2997287" lon="4.0645600">
<ele>598.99</ele>
<time>2021-06-26T12:31:15Z</time>
</trkpt>
<trkpt lat="47.2997991" lon="4.0648163">
<ele>600.23</ele>
<time>2021-06-26T12:31:20Z</time>
</trkpt>
<trkpt lat="47.2999129" lon="4.0650997">
<ele>598.75</ele>
<time>2021-06-26T12:31:26Z</time>
</trkpt>
<trkpt lat="47.3000202" lon="4.0653247">
<ele>599.48</ele>
<time>2021-06-26T12:31:32Z</time>
</trkpt>
<trkpt lat="47.3001073" lon="4.0655841">
<ele>602.25</ele>
<time>2021-06-26T12:31:40Z</time>
</trkpt>
<trkpt lat="47.3001915" lon="4.0658189">
<ele>604.12</ele>
<time>2021-06-26T12:31:47Z</time>
</trkpt>
<trkpt lat="47.3002432" lon="4.0661080">
<ele>609.06</ele>
<time>2021-06-26T12:31:54Z</time>
</trkpt>
<trkpt lat="47.3002576" lon="4.0664106">
<ele>614.69</ele>
<time>2021-06-26T12:32:01Z</time>
</trkpt>
<trkpt lat="47.3002091" lon="4.0666694">
<ele>618.91</ele>
<time>2021-06-26T12:32:07Z</time>
</trkpt>
<trkpt lat="47.3001453" lon="4.0669586">
<ele>619.34</ele>
<time>2021-06-26T12:32:14Z</time>
</trkpt>
<trkpt lat="47.3001458" lon="4.0672321">
<ele>619.10</ele>
<time>2021-06-26T12:32:20Z</time>
</trkpt>
<trkpt lat="47.3001936" lon="4.0675185">
<ele>620.19</ele>
<time>2021-06-26T12:32:27Z</time>
</trkpt>
<trkpt lat="47.3002142" lon="4.0678156">
<ele>619.08</ele>
<time>2021-06-26T12:32:34Z</time>
</trkpt>
<trkpt lat="47.3002298" lon="4.0680956">
<ele>617.93</ele>
<time>2021-06-26T12:32:41Z</time>
</trkpt>
<trkpt lat="47.3002572" lon="4.0683949">
<ele>622.11</ele>
<time>2021-06-26T12:32:48Z</time>
</trkpt>
<trkpt lat="47.3002723" lon="4.0686976">
<ele>621.02</ele>
<time>2021-06-26T12:32:56Z</time>
</trkpt>
<trkpt lat="47.3002936" lon="4.0689619">
<ele>622.40</ele>
<time>2021-06-26T12:33:03Z</time>
</trkpt>
<trkpt lat="47.3002931" lon="4.0692293">
<ele>624.49</ele>
<time>2021-06-26T12:33:09Z</time>
</trkpt>
<trkpt lat="47.3003496" lon="4.0695144">
<ele>625.51</ele>
<time>2021-06-26T12:33:15Z</time>
</trkpt>
<trkpt lat="47.3004629" lon="4.0697831">
<ele>626.24</ele>
<time>2021-06-26T12:33:21Z</time>
</trkpt>
<trkpt lat="47.3005554" lon="4.0700456">
<ele>627.21</ele>
<time>2021-06-26T12:33:27Z</time>
</trkpt>
<trkpt lat="47.3006550" lon="4.0704109">
<ele>629.56</ele>
<time>2021-06-26T12:33:35Z</time>
</trkpt>
<trkpt lat="47.3006864" lon="4.0707205">
<ele>629.61</ele>
<time>2021-06-26T12:33:41Z</time>
</trkpt>
<trkpt lat="47.3006940" lon="4.0709890">
<ele>627.55</ele>
<time>2021-06-26T12:33:48Z</time>
</trkpt>
<trkpt lat="47.3006652" lon="4.0712834">
<ele>626.49</ele>
<time>2021-06-26T12:33:53Z</time>
</trkpt>
<trkpt lat="47.3006600" lon="4.0715531">
<ele>628.45</ele>
<time>2021-06-26T12:34:00Z</time>
</trkpt>
<trkpt lat="47.3006222" lon="4.0718851">
<ele>626.36</ele>
<time>2021-06-26T12:34:06Z</time>
</trkpt>
<trkpt lat="47.3005753" lon="4.0721783">
<ele>628.88</ele>
<time>2021-06-26T12:34:12Z</time>
</trkpt>
<trkpt lat="47.3006290" lon="4.0724924">
<ele>630.00</ele>
<time>2021-06-26T12:34:17Z</time>
</trkpt>
<trkpt lat="47.3007034" lon="4.0728305">
<ele>629.77</ele>
<time>2021-06-26T12:34:21Z</time>
</trkpt>
<trkpt lat="47.3006861" lon="4.0731229">
<ele>628.79</ele>
<time>2021-06-26T12:34:26Z</time>
</trkpt>
<trkpt lat="47.3006685" lon="4.0734244">
<ele>629.89</ele>
<time>2021-06-26T12:34:31Z</time>
</trkpt>
<trkpt lat="47.3006094" lon="4.0736962">
<ele>631.63</ele>
<time>2021-06-26T12:34:35Z</time>
</trkpt>
<trkpt lat="47.3005424" lon="4.0739725">
<ele>632.31</ele>
<time>2021-06-26T12:34:39Z</time>
</trkpt>
<trkpt lat="47.3004486" lon="4.0742248">
<ele>633.11</ele>
<time>2021-06-26T12:34:43Z</time>
</trkpt>
<trkpt lat="47.3003809" lon="4.0745220">
<ele>635.70</ele>
<time>2021-06-26T12:34:48Z</time>
</trkpt>
<trkpt lat="47.3003660" lon="4.0748215">
<ele>638.33</ele>
<time>2021-06-26T12:34:53Z</time>
</trkpt>
<trkpt lat="47.3003039" lon="4.0751199">
<ele>641.49</ele>
<time>2021-06-26T12:34:58Z</time>
</trkpt>
<trkpt lat="47.3003648" lon="4.0754515">
<ele>639.83</ele>
<time>2021-06-26T12:35:04Z</time>
</trkpt>
<trkpt lat="47.3004616" lon="4.0756812">
<ele>638.57</ele>
<time>2021-06-26T12:35:10Z</time>
</trkpt>
<trkpt lat="47.3005458" lon="4.0759254">
<ele>636.54</ele>
<time>2021-06-26T12:35:16Z</time>
</trkpt>
<trkpt lat="47.3006405" lon="4.0762075">
<ele>638.98</ele>
<time>2021-06-26T12:35:23Z</time>
</trkpt>
<trkpt lat="47.3007468" lon="4.0764441">
<ele>639.69</ele>
<time>2021-06-26T12:35:29Z</time>
</trkpt>
<trkpt lat="47.3008328" lon="4.0766973">
<ele>640.80</ele>
<time>2021-06-26T12:35:36Z</time>
</trkpt>
<trkpt lat="47.3009143" lon="4.0769736">
<ele>641.88</ele>
<time>2021-06-26T12:35:43Z</time>
</trkpt>
<trkpt lat="47.3009365" lon="4.0772555">
<ele>641.95</ele>
<time>2021-06-26T12:35:49Z</time>
</trkpt>
<trkpt lat="47.3010288" lon="4.0775029">
<ele>639.20</ele>
<time>2021-06-26T12:35:54Z</time>
</trkpt>
<trkpt lat="47.3011649" lon="4.0777288">
<ele>642.74</ele>
<time>2021-06-26T12:35:58Z</time>
</trkpt>
<trkpt lat="47.3013122" lon="4.0779322">
<ele>643.64</ele>
<time>2021-06-26T12:36:02Z</time>
</trkpt>
<trkpt lat="47.3013740" lon="4.0781837">
<ele>644.96</ele>
<time>2021-06-26T12:36:06Z</time>
</trkpt>
<trkpt lat="47.3014515" lon="4.0784590">
<ele>646.92</ele>
<time>2021-06-26T12:36:11Z</time>
</trkpt>
<trkpt lat="47.3015457" lon="4.0787521">
<ele>645.89</ele>
<time>2021-06-26T12:36:15Z</time>
</trkpt>
<trkpt lat="47.3016611" lon="4.0789579">
<ele>645.63</ele>
<time>2021-06-26T12:36:19Z</time>
</trkpt>
<trkpt lat="47.3018715" lon="4.0789097">
<ele>641.23</ele>
<time>2021-06-26T12:36:26Z</time>
</trkpt>
<trkpt lat="47.3020826" lon="4.0788135">
<ele>642.78</ele>
<time>2021-06-26T12:36:34Z</time>
</trkpt>
<trkpt lat="47.3022718" lon="4.0787349">
<ele>645.63</ele>
<time>2021-06-26T12:36:38Z</time>
</trkpt>
<trkpt lat="47.3024348" lon="4.0786209">
<ele>645.33</ele>
<time>2021-06-26T12:36:43Z</time>
</trkpt>
<trkpt lat="47.3026655" lon="4.0785761">
<ele>646.21</ele>
<time>2021-06-26T12:36:47Z</time>
</trkpt>
<trkpt lat="47.3028769" lon="4.0785358">
<ele>643.88</ele>
<time>2021-06-26T12:36:52Z</time>
</trkpt>
<trkpt lat="47.3030775" lon="4.0784825">
<ele>642.96</ele>
<time>2021-06-26T12:36:56Z</time>
</trkpt>
<trkpt lat="47.3033059" lon="4.0784456">
<ele>639.82</ele>
<time>2021-06-26T12:37:00Z</time>
</trkpt>
<trkpt lat="47.3035128" lon="4.0784949">
<ele>637.25</ele>
<time>2021-06-26T12:37:04Z</time>
</trkpt>
<trkpt lat="47.3037016" lon="4.0784800">
<ele>633.29</ele>
<time>2021-06-26T12:37:10Z</time>
</trkpt>
<trkpt lat="47.3038992" lon="4.0784499">
<ele>631.59</ele>
<time>2021-06-26T12:37:14Z</time>
</trkpt>
<trkpt lat="47.3040811" lon="4.0784178">
<ele>629.16</ele>
<time>2021-06-26T12:37:19Z</time>
</trkpt>
<trkpt lat="47.3042889" lon="4.0783624">
<ele>628.80</ele>
<time>2021-06-26T12:37:24Z</time>
</trkpt>
<trkpt lat="47.3044709" lon="4.0782930">
<ele>629.61</ele>
<time>2021-06-26T12:37:28Z</time>
</trkpt>
<trkpt lat="47.3046485" lon="4.0782349">
<ele>628.82</ele>
<time>2021-06-26T12:37:32Z</time>
</trkpt>
<trkpt lat="47.3048640" lon="4.0781593">
<ele>631.09</ele>
<time>2021-06-26T12:37:38Z</time>
</trkpt>
<trkpt lat="47.3050446" lon="4.0780685">
<ele>636.02</ele>
<time>2021-06-26T12:37:43Z</time>
</trkpt>
<trkpt lat="47.3052398" lon="4.0779852">
<ele>637.86</ele>
<time>2021-06-26T12:37:47Z</time>
</trkpt>
<trkpt lat="47.3054663" lon="4.0779103">
<ele>635.23</ele>
<time>2021-06-26T12:37:51Z</time>
</trkpt>
<trkpt lat="47.3056529" lon="4.0777589">
<ele>633.68</ele>
<time>2021-06-26T12:37:56Z</time>
</trkpt>
<trkpt lat="47.3058368" lon="4.0777312">
<ele>633.27</ele>
<time>2021-06-26T12:38:00Z</time>
</trkpt>
<trkpt lat="47.3060514" lon="4.0777683">
<ele>634.93</ele>
<time>2021-06-26T12:38:05Z</time>
</trkpt>
<trkpt lat="47.3062534" lon="4.0777976">
<ele>633.39</ele>
<time>2021-06-26T12:38:08Z</time>
</trkpt>
<trkpt lat="47.3064630" lon="4.0777942">
<ele>632.56</ele>
<time>2021-06-26T12:38:12Z</time>
</trkpt>
<trkpt lat="47.3066900" lon="4.0777173">
<ele>631.91</ele>
<time>2021-06-26T12:38:16Z</time>
</trkpt>
<trkpt lat="47.3068775" lon="4.0776854">
<ele>632.06</ele>
<time>2021-06-26T12:38:19Z</time>
</trkpt>
<trkpt lat="47.3070968" lon="4.0776491">
<ele>634.12</ele>
<time>2021-06-26T12:38:23Z</time>
</trkpt>
<trkpt lat="47.3072725" lon="4.0775717">
<ele>637.39</ele>
<time>2021-06-26T12:38:28Z</time>
</trkpt>
<trkpt lat="47.3075123" lon="4.0775829">
<ele>634.96</ele>
<time>2021-06-26T12:38:32Z</time>
</trkpt>
<trkpt lat="47.3077165" lon="4.0776095">
<ele>633.13</ele>
<time>2021-06-26T12:38:35Z</time>
</trkpt>
<trkpt lat="47.3079156" lon="4.0775909">
<ele>631.53</ele>
<time>2021-06-26T12:38:39Z</time>
</trkpt>
<trkpt lat="47.3081227" lon="4.0776059">
<ele>630.24</ele>
<time>2021-06-26T12:38:43Z</time>
</trkpt>
<trkpt lat="47.3083161" lon="4.0776685">
<ele>627.15</ele>
<time>2021-06-26T12:38:47Z</time>
</trkpt>
<trkpt lat="47.3085251" lon="4.0777362">
<ele>626.95</ele>
<time>2021-06-26T12:38:52Z</time>
</trkpt>
<trkpt lat="47.3087055" lon="4.0778103">
<ele>624.31</ele>
<time>2021-06-26T12:38:56Z</time>
</trkpt>
<trkpt lat="47.3088785" lon="4.0778956">
<ele>623.51</ele>
<time>2021-06-26T12:39:00Z</time>
</trkpt>
<trkpt lat="47.3090742" lon="4.0779733">
<ele>622.20</ele>
<time>2021-06-26T12:39:04Z</time>
</trkpt>
<trkpt lat="47.3092969" lon="4.0780467">
<ele>622.53</ele>
<time>2021-06-26T12:39:08Z</time>
</trkpt>
<trkpt lat="47.3094899" lon="4.0780602">
<ele>623.09</ele>
<time>2021-06-26T12:39:11Z</time>
</trkpt>
<trkpt lat="47.3096750" lon="4.0780334">
<ele>625.42</ele>
<time>2021-06-26T12:39:14Z</time>
</trkpt>
<trkpt lat="47.3098686" lon="4.0779692">
<ele>624.16</ele>
<time>2021-06-26T12:39:17Z</time>
</trkpt>
<trkpt lat="47.3100651" lon="4.0779613">
<ele>623.69</ele>
<time>2021-06-26T12:39:20Z</time>
</trkpt>
<trkpt lat="47.3102517" lon="4.0780118">
<ele>623.03</ele>
<time>2021-06-26T12:39:23Z</time>
</trkpt>
<trkpt lat="47.3104318" lon="4.0780973">
<ele>623.54</ele>
<time>2021-06-26T12:39:26Z</time>
</trkpt>
<trkpt lat="47.3106101" lon="4.0781942">
<ele>622.84</ele>
<time>2021-06-26T12:39:29Z</time>
</trkpt>
<trkpt lat="47.3107828" lon="4.0782702">
<ele>621.94</ele>
<time>2021-06-26T12:39:32Z</time>
</trkpt>
<trkpt lat="47.3110016" lon="4.0783905">
<ele>621.21</ele>
<time>2021-06-26T12:39:36Z</time>
</trkpt>
<trkpt lat="47.3111731" lon="4.0784806">
<ele>620.82</ele>
<time>2021-06-26T12:39:39Z</time>
</trkpt>
<trkpt lat="47.3113504" lon="4.0785689">
<ele>620.16</ele>
<time>2021-06-26T12:39:42Z</time>
</trkpt>
<trkpt lat="47.3115678" lon="4.0786549">
<ele>620.79</ele>
<time>2021-06-26T12:39:46Z</time>
</trkpt>
<trkpt lat="47.3118074" lon="4.0787328">
<ele>620.72</ele>
<time>2021-06-26T12:39:50Z</time>
</trkpt>
<trkpt lat="47.3119860" lon="4.0788833">
<ele>618.35</ele>
<time>2021-06-26T12:39:54Z</time>
</trkpt>
<trkpt lat="47.3121700" lon="4.0790587">
<ele>618.35</ele>
<time>2021-06-26T12:39:58Z</time>
</trkpt>
<trkpt lat="47.3123275" lon="4.0792324">
<ele>619.20</ele>
<time>2021-06-26T12:40:02Z</time>
</trkpt>
<trkpt lat="47.3124563" lon="4.0794372">
<ele>619.43</ele>
<time>2021-06-26T12:40:06Z</time>
</trkpt>
<trkpt lat="47.3126295" lon="4.0796075">
<ele>619.88</ele>
<time>2021-06-26T12:40:10Z</time>
</trkpt>
<trkpt lat="47.3127881" lon="4.0797923">
<ele>618.78</ele>
<time>2021-06-26T12:40:14Z</time>
</trkpt>
<trkpt lat="47.3129683" lon="4.0799877">
<ele>618.12</ele>
<time>2021-06-26T12:40:18Z</time>
</trkpt>
<trkpt lat="47.3131339" lon="4.0801702">
<ele>619.01</ele>
<time>2021-06-26T12:40:22Z</time>
</trkpt>
<trkpt lat="47.3132741" lon="4.0803823">
<ele>618.03</ele>
<time>2021-06-26T12:40:26Z</time>
</trkpt>
<trkpt lat="47.3133449" lon="4.0806513">
<ele>618.06</ele>
<time>2021-06-26T12:40:30Z</time>
</trkpt>
<trkpt lat="47.3133642" lon="4.0809322">
<ele>615.79</ele>
<time>2021-06-26T12:40:34Z</time>
</trkpt>
<trkpt lat="47.3133623" lon="4.0812145">
<ele>614.90</ele>
<time>2021-06-26T12:40:38Z</time>
</trkpt>
<trkpt lat="47.3133681" lon="4.0814882">
<ele>613.45</ele>
<time>2021-06-26T12:40:42Z</time>
</trkpt>
<trkpt lat="47.3134130" lon="4.0818140">
<ele>611.76</ele>
<time>2021-06-26T12:40:47Z</time>
</trkpt>
<trkpt lat="47.3134561" lon="4.0821184">
<ele>611.41</ele>
<time>2021-06-26T12:40:52Z</time>
</trkpt>
<trkpt lat="47.3134608" lon="4.0823992">
<ele>610.47</ele>
<time>2021-06-26T12:40:56Z</time>
</trkpt>
<trkpt lat="47.3134322" lon="4.0827229">
<ele>607.87</ele>
<time>2021-06-26T12:41:00Z</time>
</trkpt>
<trkpt lat="47.3134849" lon="4.0830571">
<ele>607.45</ele>
<time>2021-06-26T12:41:04Z</time>
</trkpt>
<trkpt lat="47.3135188" lon="4.0833194">
<ele>606.26</ele>
<time>2021-06-26T12:41:07Z</time>
</trkpt>
<trkpt lat="47.3134840" lon="4.0836006">
<ele>604.27</ele>
<time>2021-06-26T12:41:10Z</time>
</trkpt>
<trkpt lat="47.3133726" lon="4.0838253">
<ele>603.23</ele>
<time>2021-06-26T12:41:16Z</time>
</trkpt>
<trkpt lat="47.3133081" lon="4.0840923">
<ele>604.80</ele>
<time>2021-06-26T12:41:24Z</time>
</trkpt>
<trkpt lat="47.3132280" lon="4.0843504">
<ele>603.56</ele>
<time>2021-06-26T12:41:29Z</time>
</trkpt>
<trkpt lat="47.3131359" lon="4.0846099">
<ele>601.60</ele>
<time>2021-06-26T12:41:33Z</time>
</trkpt>
<trkpt lat="47.3130454" lon="4.0848972">
<ele>599.35</ele>
<time>2021-06-26T12:41:37Z</time>
</trkpt>
<trkpt lat="47.3130436" lon="4.0852263">
<ele>597.42</ele>
<time>2021-06-26T12:41:41Z</time>
</trkpt>
<trkpt lat="47.3130320" lon="4.0855044">
<ele>593.98</ele>
<time>2021-06-26T12:41:44Z</time>
</trkpt>
<trkpt lat="47.3129894" lon="4.0857703">
<ele>594.34</ele>
<time>2021-06-26T12:41:47Z</time>
</trkpt>
<trkpt lat="47.3129639" lon="4.0860635">
<ele>592.46</ele>
<time>2021-06-26T12:41:50Z</time>
</trkpt>
<trkpt lat="47.3129507" lon="4.0863328">
<ele>589.52</ele>
<time>2021-06-26T12:41:53Z</time>
</trkpt>
<trkpt lat="47.3129293" lon="4.0866786">
<ele>582.58</ele>
<time>2021-06-26T12:41:57Z</time>
</trkpt>
<trkpt lat="47.3130193" lon="4.0869733">
<ele>580.86</ele>
<time>2021-06-26T12:42:01Z</time>
</trkpt>
<trkpt lat="47.3131129" lon="4.0872409">
<ele>582.25</ele>
<time>2021-06-26T12:42:05Z</time>
</trkpt>
<trkpt lat="47.3131511" lon="4.0875593">
<ele>581.83</ele>
<time>2021-06-26T12:42:09Z</time>
</trkpt>
<trkpt lat="47.3130801" lon="4.0878479">
<ele>578.52</ele>
<time>2021-06-26T12:42:16Z</time>
</trkpt>
<trkpt lat="47.3129803" lon="4.0881078">
<ele>578.26</ele>
<time>2021-06-26T12:42:21Z</time>
</trkpt>
<trkpt lat="47.3129056" lon="4.0883602">
<ele>576.90</ele>
<time>2021-06-26T12:42:26Z</time>
</trkpt>
<trkpt lat="47.3127663" lon="4.0885931">
<ele>577.49</ele>
<time>2021-06-26T12:42:32Z</time>
</trkpt>
<trkpt lat="47.3126020" lon="4.0887644">
<ele>571.97</ele>
<time>2021-06-26T12:42:40Z</time>
</trkpt>
<trkpt lat="47.3125915" lon="4.0890368">
<ele>569.43</ele>
<time>2021-06-26T12:42:46Z</time>
</trkpt>
<trkpt lat="47.3125740" lon="4.0893339">
<ele>567.62</ele>
<time>2021-06-26T12:42:52Z</time>
</trkpt>
<trkpt lat="47.3126451" lon="4.0896135">
<ele>564.37</ele>
<time>2021-06-26T12:43:00Z</time>
</trkpt>
<trkpt lat="47.3127509" lon="4.0898310">
<ele>563.35</ele>
<time>2021-06-26T12:43:06Z</time>
</trkpt>
<trkpt lat="47.3127161" lon="4.0901145">
<ele>565.68</ele>
<time>2021-06-26T12:43:17Z</time>
</trkpt>
<trkpt lat="47.3125788" lon="4.0903403">
<ele>566.72</ele>
<time>2021-06-26T12:43:26Z</time>
</trkpt>
<trkpt lat="47.3125917" lon="4.0906204">
<ele>569.59</ele>
<time>2021-06-26T12:43:35Z</time>
</trkpt>
<trkpt lat="47.3126645" lon="4.0908793">
<ele>569.62</ele>
<time>2021-06-26T12:43:43Z</time>
</trkpt>
<trkpt lat="47.3127559" lon="4.0911216">
<ele>568.05</ele>
<time>2021-06-26T12:43:52Z</time>
</trkpt>
<trkpt lat="47.3128122" lon="4.0914028">
<ele>566.00</ele>
<time>2021-06-26T12:43:57Z</time>
</trkpt>
<trkpt lat="47.3128110" lon="4.0916938">
<ele>563.72</ele>
<time>2021-06-26T12:44:37Z</time>
</trkpt>
<trkpt lat="47.3128170" lon="4.0919651">
<ele>562.85</ele>
<time>2021-06-26T12:44:46Z</time>
</trkpt>
<trkpt lat="47.3129428" lon="4.0921891">
<ele>564.63</ele>
<time>2021-06-26T12:44:53Z</time>
</trkpt>
<trkpt lat="47.3130651" lon="4.0924233">
<ele>567.15</ele>
<time>2021-06-26T12:44:58Z</time>
</trkpt>
<trkpt lat="47.3132396" lon="4.0926431">
<ele>568.49</ele>
<time>2021-06-26T12:45:02Z</time>
</trkpt>
<trkpt lat="47.3133808" lon="4.0928245">
<ele>568.24</ele>
<time>2021-06-26T12:45:06Z</time>
</trkpt>
<trkpt lat="47.3135642" lon="4.0930442">
<ele>567.66</ele>
<time>2021-06-26T12:45:11Z</time>
</trkpt>
<trkpt lat="47.3136813" lon="4.0932653">
<ele>566.96</ele>
<time>2021-06-26T12:45:16Z</time>
</trkpt>
<trkpt lat="47.3138009" lon="4.0934779">
<ele>568.02</ele>
<time>2021-06-26T12:45:20Z</time>
</trkpt>
<trkpt lat="47.3138999" lon="4.0937031">
<ele>568.06</ele>
<time>2021-06-26T12:45:23Z</time>
</trkpt>
<trkpt lat="47.3140640" lon="4.0939571">
<ele>564.62</ele>
<time>2021-06-26T12:45:27Z</time>
</trkpt>
<trkpt lat="47.3142014" lon="4.0941286">
<ele>564.75</ele>
<time>2021-06-26T12:45:30Z</time>
</trkpt>
<trkpt lat="47.3143721" lon="4.0943050">
<ele>564.32</ele>
<time>2021-06-26T12:45:34Z</time>
</trkpt>
<trkpt lat="47.3145666" lon="4.0944585">
<ele>564.49</ele>
<time>2021-06-26T12:45:39Z</time>
</trkpt>
<trkpt lat="47.3147365" lon="4.0946243">
<ele>562.58</ele>
<time>2021-06-26T12:45:45Z</time>
</trkpt>
<trkpt lat="47.3149454" lon="4.0946555">
<ele>561.63</ele>
<time>2021-06-26T12:45:50Z</time>
</trkpt>
<trkpt lat="47.3151435" lon="4.0946487">
<ele>560.94</ele>
<time>2021-06-26T12:45:54Z</time>
</trkpt>
<trkpt lat="47.3153495" lon="4.0946298">
<ele>558.75</ele>
<time>2021-06-26T12:45:58Z</time>
</trkpt>
<trkpt lat="47.3155613" lon="4.0945918">
<ele>556.98</ele>
<time>2021-06-26T12:46:02Z</time>
</trkpt>
<trkpt lat="47.3157840" lon="4.0945401">
<ele>554.76</ele>
<time>2021-06-26T12:46:06Z</time>
</trkpt>
<trkpt lat="47.3159826" lon="4.0944944">
<ele>553.29</ele>
<time>2021-06-26T12:46:09Z</time>
</trkpt>
<trkpt lat="47.3161920" lon="4.0944338">
<ele>551.80</ele>
<time>2021-06-26T12:46:13Z</time>
</trkpt>
<trkpt lat="47.3164037" lon="4.0943782">
<ele>550.54</ele>
<time>2021-06-26T12:46:17Z</time>
</trkpt>
<trkpt lat="47.3165921" lon="4.0943166">
<ele>548.16</ele>
<time>2021-06-26T12:46:21Z</time>
</trkpt>
<trkpt lat="47.3167790" lon="4.0942427">
<ele>546.88</ele>
<time>2021-06-26T12:46:29Z</time>
</trkpt>
<trkpt lat="47.3169683" lon="4.0943491">
<ele>547.13</ele>
<time>2021-06-26T12:47:09Z</time>
</trkpt>
<trkpt lat="47.3170860" lon="4.0945521">
<ele>546.33</ele>
<time>2021-06-26T12:47:25Z</time>
</trkpt>
<trkpt lat="47.3171458" lon="4.0948454">
<ele>545.39</ele>
<time>2021-06-26T12:47:38Z</time>
</trkpt>
<trkpt lat="47.3171851" lon="4.0951243">
<ele>545.42</ele>
<time>2021-06-26T12:47:46Z</time>
</trkpt>
<trkpt lat="47.3171251" lon="4.0948620">
<ele>545.45</ele>
<time>2021-06-26T12:48:18Z</time>
</trkpt>
<trkpt lat="47.3170650" lon="4.0945902">
<ele>545.38</ele>
<time>2021-06-26T12:48:26Z</time>
</trkpt>
<trkpt lat="47.3169502" lon="4.0943641">
<ele>543.38</ele>
<time>2021-06-26T12:48:32Z</time>
</trkpt>
<trkpt lat="47.3167940" lon="4.0941994">
<ele>541.10</ele>
<time>2021-06-26T12:48:38Z</time>
</trkpt>
<trkpt lat="47.3169756" lon="4.0941891">
<ele>540.49</ele>
<time>2021-06-26T12:48:48Z</time>
</trkpt>
<trkpt lat="47.3171935" lon="4.0942809">
<ele>539.77</ele>
<time>2021-06-26T12:48:54Z</time>
</trkpt>
<trkpt lat="47.3173917" lon="4.0943982">
<ele>537.84</ele>
<time>2021-06-26T12:48:58Z</time>
</trkpt>
<trkpt lat="47.3175716" lon="4.0945339">
<ele>536.13</ele>
<time>2021-06-26T12:49:01Z</time>
</trkpt>
<trkpt lat="47.3177490" lon="4.0946567">
<ele>534.58</ele>
<time>2021-06-26T12:49:04Z</time>
</trkpt>
<trkpt lat="47.3179143" lon="4.0947974">
<ele>533.18</ele>
<time>2021-06-26T12:49:07Z</time>
</trkpt>
<trkpt lat="47.3180315" lon="4.0950689">
<ele>531.45</ele>
<time>2021-06-26T12:49:11Z</time>
</trkpt>
<trkpt lat="47.3179581" lon="4.0953474">
<ele>530.15</ele>
<time>2021-06-26T12:49:17Z</time>
</trkpt>
<trkpt lat="47.3178766" lon="4.0955899">
<ele>529.45</ele>
<time>2021-06-26T12:49:22Z</time>
</trkpt>
<trkpt lat="47.3177820" lon="4.0958260">
<ele>529.44</ele>
<time>2021-06-26T12:49:27Z</time>
</trkpt>
<trkpt lat="47.3176747" lon="4.0960470">
<ele>529.34</ele>
<time>2021-06-26T12:49:32Z</time>
</trkpt>
<trkpt lat="47.3176119" lon="4.0962975">
<ele>528.72</ele>
<time>2021-06-26T12:49:36Z</time>
</trkpt>
<trkpt lat="47.3175924" lon="4.0966168">
<ele>526.37</ele>
<time>2021-06-26T12:49:41Z</time>
</trkpt>
<trkpt lat="47.3176355" lon="4.0968996">
<ele>524.00</ele>
<time>2021-06-26T12:49:45Z</time>
</trkpt>
<trkpt lat="47.3176966" lon="4.0971639">
<ele>522.58</ele>
<time>2021-06-26T12:49:48Z</time>
</trkpt>
<trkpt lat="47.3177820" lon="4.0974305">
<ele>522.18</ele>
<time>2021-06-26T12:49:51Z</time>
</trkpt>
<trkpt lat="47.3179003" lon="4.0976871">
<ele>522.31</ele>
<time>2021-06-26T12:49:54Z</time>
</trkpt>
<trkpt lat="47.3180592" lon="4.0979461">
<ele>522.56</ele>
<time>2021-06-26T12:49:57Z</time>
</trkpt>
<trkpt lat="47.3182026" lon="4.0981846">
<ele>521.24</ele>
<time>2021-06-26T12:50:00Z</time>
</trkpt>
<trkpt lat="47.3182987" lon="4.0984461">
<ele>521.24</ele>
<time>2021-06-26T12:50:03Z</time>
</trkpt>
<trkpt lat="47.3183770" lon="4.0987683">
<ele>521.28</ele>
<time>2021-06-26T12:50:07Z</time>
</trkpt>
<trkpt lat="47.3184092" lon="4.0990916">
<ele>521.47</ele>
<time>2021-06-26T12:50:11Z</time>
</trkpt>
<trkpt lat="47.3184007" lon="4.0993670">
<ele>520.84</ele>
<time>2021-06-26T12:50:15Z</time>
</trkpt>
<trkpt lat="47.3183613" lon="4.0996313">
<ele>520.54</ele>
<time>2021-06-26T12:50:19Z</time>
</trkpt>
<trkpt lat="47.3183056" lon="4.0999297">
<ele>520.94</ele>
<time>2021-06-26T12:50:24Z</time>
</trkpt>
<trkpt lat="47.3182409" lon="4.1001803">
<ele>521.61</ele>
<time>2021-06-26T12:50:29Z</time>
</trkpt>
<trkpt lat="47.3181911" lon="4.1004657">
<ele>521.87</ele>
<time>2021-06-26T12:50:34Z</time>
</trkpt>
<trkpt lat="47.3181292" lon="4.1007204">
<ele>523.66</ele>
<time>2021-06-26T12:50:39Z</time>
</trkpt>
<trkpt lat="47.3180595" lon="4.1010031">
<ele>525.57</ele>
<time>2021-06-26T12:50:46Z</time>
</trkpt>
<trkpt lat="47.3181314" lon="4.1012784">
<ele>526.96</ele>
<time>2021-06-26T12:50:54Z</time>
</trkpt>
<trkpt lat="47.3182888" lon="4.1014476">
<ele>527.92</ele>
<time>2021-06-26T12:51:01Z</time>
</trkpt>
<trkpt lat="47.3184518" lon="4.1016124">
<ele>529.16</ele>
<time>2021-06-26T12:51:08Z</time>
</trkpt>
<trkpt lat="47.3186154" lon="4.1017902">
<ele>529.50</ele>
<time>2021-06-26T12:51:14Z</time>
</trkpt>
<trkpt lat="47.3187918" lon="4.1019679">
<ele>530.70</ele>
<time>2021-06-26T12:51:20Z</time>
</trkpt>
<trkpt lat="47.3189369" lon="4.1021285">
<ele>531.56</ele>
<time>2021-06-26T12:51:25Z</time>
</trkpt>
<trkpt lat="47.3190939" lon="4.1022931">
<ele>532.41</ele>
<time>2021-06-26T12:51:30Z</time>
</trkpt>
<trkpt lat="47.3192582" lon="4.1024576">
<ele>533.27</ele>
<time>2021-06-26T12:51:35Z</time>
</trkpt>
<trkpt lat="47.3194344" lon="4.1026392">
<ele>533.82</ele>
<time>2021-06-26T12:51:40Z</time>
</trkpt>
<trkpt lat="47.3195818" lon="4.1027982">
<ele>533.61</ele>
<time>2021-06-26T12:51:44Z</time>
</trkpt>
<trkpt lat="47.3197382" lon="4.1029606">
<ele>533.72</ele>
<time>2021-06-26T12:51:48Z</time>
</trkpt>
<trkpt lat="47.3199012" lon="4.1031280">
<ele>534.36</ele>
<time>2021-06-26T12:51:52Z</time>
</trkpt>
<trkpt lat="47.3200617" lon="4.1032907">
<ele>534.82</ele>
<time>2021-06-26T12:51:56Z</time>
</trkpt>
<trkpt lat="47.3202305" lon="4.1034636">
<ele>535.20</ele>
<time>2021-06-26T12:52:00Z</time>
</trkpt>
<trkpt lat="47.3204059" lon="4.1036367">
<ele>535.55</ele>
<time>2021-06-26T12:52:04Z</time>
</trkpt>
<trkpt lat="47.3205796" lon="4.1038114">
<ele>535.84</ele>
<time>2021-06-26T12:52:08Z</time>
</trkpt>
<trkpt lat="47.3207482" lon="4.1039877">
<ele>536.88</ele>
<time>2021-06-26T12:52:12Z</time>
</trkpt>
<trkpt lat="47.3209178" lon="4.1041712">
<ele>536.99</ele>
<time>2021-06-26T12:52:16Z</time>
</trkpt>
<trkpt lat="47.3210827" lon="4.1043435">
<ele>537.51</ele>
<time>2021-06-26T12:52:20Z</time>
</trkpt>
<trkpt lat="47.3212600" lon="4.1045230">
<ele>537.88</ele>
<time>2021-06-26T12:52:24Z</time>
</trkpt>
<trkpt lat="47.3214438" lon="4.1047086">
<ele>537.91</ele>
<time>2021-06-26T12:52:28Z</time>
</trkpt>
<trkpt lat="47.3216324" lon="4.1049132">
<ele>537.10</ele>
<time>2021-06-26T12:52:32Z</time>
</trkpt>
<trkpt lat="47.3218196" lon="4.1051067">
<ele>536.73</ele>
<time>2021-06-26T12:52:36Z</time>
</trkpt>
<trkpt lat="47.3219951" lon="4.1053186">
<ele>536.20</ele>
<time>2021-06-26T12:52:40Z</time>
</trkpt>
<trkpt lat="47.3221526" lon="4.1054602">
<ele>535.70</ele>
<time>2021-06-26T12:52:43Z</time>
</trkpt>
<trkpt lat="47.3223218" lon="4.1056379">
<ele>534.92</ele>
<time>2021-06-26T12:52:46Z</time>
</trkpt>
<trkpt lat="47.3224801" lon="4.1058822">
<ele>533.52</ele>
<time>2021-06-26T12:52:49Z</time>
</trkpt>
<trkpt lat="47.3226023" lon="4.1061849">
<ele>532.07</ele>
<time>2021-06-26T12:52:52Z</time>
</trkpt>
<trkpt lat="47.3226847" lon="4.1065331">
<ele>530.36</ele>
<time>2021-06-26T12:52:55Z</time>
</trkpt>
<trkpt lat="47.3227154" lon="4.1069156">
<ele>528.18</ele>
<time>2021-06-26T12:52:58Z</time>
</trkpt>
<trkpt lat="47.3228153" lon="4.1072686">
<ele>527.27</ele>
<time>2021-06-26T12:53:01Z</time>
</trkpt>
<trkpt lat="47.3230479" lon="4.1074360">
<ele>526.87</ele>
<time>2021-06-26T12:53:04Z</time>
</trkpt>
<trkpt lat="47.3232711" lon="4.1075491">
<ele>525.80</ele>
<time>2021-06-26T12:53:07Z</time>
</trkpt>
<trkpt lat="47.3234948" lon="4.1076648">
<ele>524.91</ele>
<time>2021-06-26T12:53:10Z</time>
</trkpt>
<trkpt lat="47.3237067" lon="4.1077814">
<ele>524.60</ele>
<time>2021-06-26T12:53:13Z</time>
</trkpt>
<trkpt lat="47.3239151" lon="4.1078780">
<ele>524.44</ele>
<time>2021-06-26T12:53:16Z</time>
</trkpt>
<trkpt lat="47.3241145" lon="4.1078749">
<ele>524.35</ele>
<time>2021-06-26T12:53:19Z</time>
</trkpt>
<trkpt lat="47.3243309" lon="4.1077590">
<ele>524.77</ele>
<time>2021-06-26T12:53:23Z</time>
</trkpt>
<trkpt lat="47.3244339" lon="4.1074988">
<ele>524.98</ele>
<time>2021-06-26T12:53:27Z</time>
</trkpt>
<trkpt lat="47.3244752" lon="4.1071902">
<ele>523.77</ele>
<time>2021-06-26T12:53:31Z</time>
</trkpt>
<trkpt lat="47.3245006" lon="4.1068989">
<ele>523.75</ele>
<time>2021-06-26T12:53:35Z</time>
</trkpt>
<trkpt lat="47.3245196" lon="4.1066110">
<ele>523.72</ele>
<time>2021-06-26T12:53:39Z</time>
</trkpt>
<trkpt lat="47.3245579" lon="4.1063409">
<ele>523.62</ele>
<time>2021-06-26T12:53:43Z</time>
</trkpt>
<trkpt lat="47.3246389" lon="4.1060356">
<ele>525.39</ele>
<time>2021-06-26T12:53:48Z</time>
</trkpt>
<trkpt lat="47.3247245" lon="4.1057593">
<ele>527.62</ele>
<time>2021-06-26T12:53:53Z</time>
</trkpt>
<trkpt lat="47.3247960" lon="4.1054723">
<ele>528.27</ele>
<time>2021-06-26T12:53:58Z</time>
</trkpt>
<trkpt lat="47.3248533" lon="4.1052013">
<ele>528.14</ele>
<time>2021-06-26T12:54:02Z</time>
</trkpt>
<trkpt lat="47.3249306" lon="4.1048844">
<ele>527.82</ele>
<time>2021-06-26T12:54:06Z</time>
</trkpt>
<trkpt lat="47.3249936" lon="4.1046200">
<ele>527.26</ele>
<time>2021-06-26T12:54:09Z</time>
</trkpt>
<trkpt lat="47.3251038" lon="4.1043643">
<ele>525.97</ele>
<time>2021-06-26T12:54:12Z</time>
</trkpt>
<trkpt lat="47.3252298" lon="4.1041380">
<ele>525.99</ele>
<time>2021-06-26T12:54:15Z</time>
</trkpt>
<trkpt lat="47.3253669" lon="4.1039104">
<ele>525.46</ele>
<time>2021-06-26T12:54:18Z</time>
</trkpt>
<trkpt lat="47.3254879" lon="4.1036969">
<ele>525.62</ele>
<time>2021-06-26T12:54:21Z</time>
</trkpt>
<trkpt lat="47.3256053" lon="4.1033983">
<ele>526.60</ele>
<time>2021-06-26T12:54:25Z</time>
</trkpt>
<trkpt lat="47.3256873" lon="4.1031065">
<ele>527.29</ele>
<time>2021-06-26T12:54:29Z</time>
</trkpt>
<trkpt lat="47.3257823" lon="4.1028217">
<ele>527.41</ele>
<time>2021-06-26T12:54:33Z</time>
</trkpt>
<trkpt lat="47.3259102" lon="4.1025272">
<ele>526.70</ele>
<time>2021-06-26T12:54:37Z</time>
</trkpt>
<trkpt lat="47.3260130" lon="4.1022998">
<ele>526.47</ele>
<time>2021-06-26T12:54:40Z</time>
</trkpt>
<trkpt lat="47.3261199" lon="4.1020787">
<ele>526.21</ele>
<time>2021-06-26T12:54:43Z</time>
</trkpt>
<trkpt lat="47.3262199" lon="4.1018511">
<ele>526.38</ele>
<time>2021-06-26T12:54:46Z</time>
</trkpt>
<trkpt lat="47.3263506" lon="4.1015625">
<ele>526.50</ele>
<time>2021-06-26T12:54:50Z</time>
</trkpt>
<trkpt lat="47.3264624" lon="4.1012688">
<ele>526.83</ele>
<time>2021-06-26T12:54:54Z</time>
</trkpt>
<trkpt lat="47.3265141" lon="4.1009365">
<ele>527.00</ele>
<time>2021-06-26T12:54:58Z</time>
</trkpt>
<trkpt lat="47.3265580" lon="4.1006432">
<ele>528.17</ele>
<time>2021-06-26T12:55:02Z</time>
</trkpt>
<trkpt lat="47.3266014" lon="4.1003798">
<ele>528.26</ele>
<time>2021-06-26T12:55:06Z</time>
</trkpt>
<trkpt lat="47.3266778" lon="4.1001033">
<ele>528.36</ele>
<time>2021-06-26T12:55:11Z</time>
</trkpt>
<trkpt lat="47.3267893" lon="4.0998512">
<ele>529.02</ele>
<time>2021-06-26T12:55:16Z</time>
</trkpt>
<trkpt lat="47.3269180" lon="4.0996044">
<ele>529.20</ele>
<time>2021-06-26T12:55:22Z</time>
</trkpt>
<trkpt lat="47.3270074" lon="4.0993717">
<ele>529.74</ele>
<time>2021-06-26T12:55:27Z</time>
</trkpt>
<trkpt lat="47.3271191" lon="4.0990860">
<ele>529.39</ele>
<time>2021-06-26T12:55:33Z</time>
</trkpt>
<trkpt lat="47.3272421" lon="4.0988004">
<ele>528.67</ele>
<time>2021-06-26T12:55:37Z</time>
</trkpt>
<trkpt lat="47.3273708" lon="4.0985963">
<ele>528.17</ele>
<time>2021-06-26T12:55:40Z</time>
</trkpt>
<trkpt lat="47.3275222" lon="4.0983656">
<ele>527.71</ele>
<time>2021-06-26T12:55:43Z</time>
</trkpt>
<trkpt lat="47.3276849" lon="4.0981362">
<ele>527.19</ele>
<time>2021-06-26T12:55:46Z</time>
</trkpt>
<trkpt lat="47.3278540" lon="4.0978942">
<ele>526.72</ele>
<time>2021-06-26T12:55:49Z</time>
</trkpt>
<trkpt lat="47.3280388" lon="4.0977076">
<ele>526.79</ele>
<time>2021-06-26T12:55:52Z</time>
</trkpt>
<trkpt lat="47.3282368" lon="4.0975722">
<ele>526.68</ele>
<time>2021-06-26T12:55:55Z</time>
</trkpt>
<trkpt lat="47.3284198" lon="4.0974515">
<ele>526.98</ele>
<time>2021-06-26T12:55:58Z</time>
</trkpt>
<trkpt lat="47.3285939" lon="4.0973574">
<ele>526.97</ele>
<time>2021-06-26T12:56:01Z</time>
</trkpt>
<trkpt lat="47.3288267" lon="4.0973551">
<ele>527.75</ele>
<time>2021-06-26T12:56:05Z</time>
</trkpt>
<trkpt lat="47.3288946" lon="4.0970889">
<ele>526.68</ele>
<time>2021-06-26T12:56:09Z</time>
</trkpt>
<trkpt lat="47.3288876" lon="4.0967587">
<ele>525.80</ele>
<time>2021-06-26T12:56:12Z</time>
</trkpt>
<trkpt lat="47.3288536" lon="4.0964124">
<ele>525.04</ele>
<time>2021-06-26T12:56:15Z</time>
</trkpt>
<trkpt lat="47.3288195" lon="4.0961026">
<ele>524.93</ele>
<time>2021-06-26T12:56:18Z</time>
</trkpt>
<trkpt lat="47.3288107" lon="4.0958233">
<ele>525.00</ele>
<time>2021-06-26T12:56:21Z</time>
</trkpt>
<trkpt lat="47.3287951" lon="4.0955134">
<ele>524.62</ele>
<time>2021-06-26T12:56:24Z</time>
</trkpt>
<trkpt lat="47.3287964" lon="4.0952296">
<ele>526.22</ele>
<time>2021-06-26T12:56:27Z</time>
</trkpt>
<trkpt lat="47.3287896" lon="4.0948632">
<ele>526.10</ele>
<time>2021-06-26T12:56:31Z</time>
</trkpt>
<trkpt lat="47.3288044" lon="4.0945327">
<ele>526.39</ele>
<time>2021-06-26T12:56:35Z</time>
</trkpt>
</trkseg>
</trk>
</gpx>
